<?xml version="1.0" encoding="UTF-8" standalone="no" ?>
<gpx xmlns="http://www.topografix.com/GPX/1/1" xmlns:xsi="http://www.w3.org/2001/XMLSchema-instance" xsi:schemaLocation="http://www.topografix.com/GPX/1/1 http://www.topografix.com/GPX/1/1/gpx.xsd" version="1.1" creator="VisuGPX - https://www.visugpx.com">
  <metadata>
    <name>B2L-St-Lary-Retour</name>
  </metadata>
  <trk>
    <name><![CDATA[12976960-St Lary - Beaumont]]></name>
    <extensions>
      <line xmlns="http://www.topografix.com/GPX/gpx_style/0/2">
        <color>0000FF</color>
        <width>4</width>
      </line>
    </extensions>
    <trkseg>
      <trkpt lat="42.81667" lon="0.32053">
        <ele>823</ele>
        <time>2021-05-31T16:45:03Z</time>
      </trkpt>
      <trkpt lat="42.81667" lon="0.32053">
        <ele>823</ele>
        <time>2021-05-31T16:45:03Z</time>
      </trkpt>
      <trkpt lat="42.81728" lon="0.32131">
        <ele>821</ele>
        <time>2021-05-31T16:45:23Z</time>
      </trkpt>
      <trkpt lat="42.81736" lon="0.3214">
        <ele>821</ele>
        <time>2021-05-31T16:45:25Z</time>
      </trkpt>
      <trkpt lat="42.81775" lon="0.32152">
        <ele>819</ele>
        <time>2021-05-31T16:45:34Z</time>
      </trkpt>
      <trkpt lat="42.81808" lon="0.32184">
        <ele>817</ele>
        <time>2021-05-31T16:45:44Z</time>
      </trkpt>
      <trkpt lat="42.81826" lon="0.32206">
        <ele>816</ele>
        <time>2021-05-31T16:45:49Z</time>
      </trkpt>
      <trkpt lat="42.81839" lon="0.32223">
        <ele>816</ele>
        <time>2021-05-31T16:45:54Z</time>
      </trkpt>
      <trkpt lat="42.81847" lon="0.3224">
        <ele>816</ele>
        <time>2021-05-31T16:45:57Z</time>
      </trkpt>
      <trkpt lat="42.81858" lon="0.32252">
        <ele>816</ele>
        <time>2021-05-31T16:46:00Z</time>
      </trkpt>
      <trkpt lat="42.81881" lon="0.32255">
        <ele>817</ele>
        <time>2021-05-31T16:46:06Z</time>
      </trkpt>
      <trkpt lat="42.81932" lon="0.32277">
        <ele>817</ele>
        <time>2021-05-31T16:46:18Z</time>
      </trkpt>
      <trkpt lat="42.81945" lon="0.32277">
        <ele>817</ele>
        <time>2021-05-31T16:46:21Z</time>
      </trkpt>
      <trkpt lat="42.8196" lon="0.32272">
        <ele>817</ele>
        <time>2021-05-31T16:46:25Z</time>
      </trkpt>
      <trkpt lat="42.8197" lon="0.32263">
        <ele>817</ele>
        <time>2021-05-31T16:46:28Z</time>
      </trkpt>
      <trkpt lat="42.81985" lon="0.32257">
        <ele>818</ele>
        <time>2021-05-31T16:46:31Z</time>
      </trkpt>
      <trkpt lat="42.81987" lon="0.32262">
        <ele>818</ele>
        <time>2021-05-31T16:46:32Z</time>
      </trkpt>
      <trkpt lat="42.81994" lon="0.32267">
        <ele>818</ele>
        <time>2021-05-31T16:46:34Z</time>
      </trkpt>
      <trkpt lat="42.82" lon="0.32266">
        <ele>818</ele>
        <time>2021-05-31T16:46:36Z</time>
      </trkpt>
      <trkpt lat="42.82006" lon="0.32256">
        <ele>818</ele>
        <time>2021-05-31T16:46:38Z</time>
      </trkpt>
      <trkpt lat="42.82006" lon="0.32252">
        <ele>818</ele>
        <time>2021-05-31T16:46:38Z</time>
      </trkpt>
      <trkpt lat="42.82079" lon="0.3225">
        <ele>813</ele>
        <time>2021-05-31T16:46:56Z</time>
      </trkpt>
      <trkpt lat="42.82114" lon="0.32254">
        <ele>811</ele>
        <time>2021-05-31T16:47:04Z</time>
      </trkpt>
      <trkpt lat="42.82132" lon="0.32262">
        <ele>810</ele>
        <time>2021-05-31T16:47:08Z</time>
      </trkpt>
      <trkpt lat="42.82218" lon="0.32312">
        <ele>808</ele>
        <time>2021-05-31T16:47:30Z</time>
      </trkpt>
      <trkpt lat="42.82292" lon="0.32359">
        <ele>807</ele>
        <time>2021-05-31T16:47:49Z</time>
      </trkpt>
      <trkpt lat="42.82312" lon="0.32374">
        <ele>807</ele>
        <time>2021-05-31T16:47:54Z</time>
      </trkpt>
      <trkpt lat="42.82308" lon="0.32382">
        <ele>807</ele>
        <time>2021-05-31T16:47:56Z</time>
      </trkpt>
      <trkpt lat="42.82307" lon="0.32391">
        <ele>807</ele>
        <time>2021-05-31T16:47:58Z</time>
      </trkpt>
      <trkpt lat="42.82309" lon="0.324">
        <ele>806</ele>
        <time>2021-05-31T16:47:59Z</time>
      </trkpt>
      <trkpt lat="42.82314" lon="0.32407">
        <ele>806</ele>
        <time>2021-05-31T16:48:01Z</time>
      </trkpt>
      <trkpt lat="42.82319" lon="0.3241">
        <ele>806</ele>
        <time>2021-05-31T16:48:02Z</time>
      </trkpt>
      <trkpt lat="42.82324" lon="0.32411">
        <ele>806</ele>
        <time>2021-05-31T16:48:03Z</time>
      </trkpt>
      <trkpt lat="42.82329" lon="0.32409">
        <ele>806</ele>
        <time>2021-05-31T16:48:05Z</time>
      </trkpt>
      <trkpt lat="42.82334" lon="0.32405">
        <ele>806</ele>
        <time>2021-05-31T16:48:06Z</time>
      </trkpt>
      <trkpt lat="42.82351" lon="0.32435">
        <ele>806</ele>
        <time>2021-05-31T16:48:12Z</time>
      </trkpt>
      <trkpt lat="42.82414" lon="0.32511">
        <ele>804</ele>
        <time>2021-05-31T16:48:32Z</time>
      </trkpt>
      <trkpt lat="42.82436" lon="0.32539">
        <ele>803</ele>
        <time>2021-05-31T16:48:39Z</time>
      </trkpt>
      <trkpt lat="42.82474" lon="0.32585">
        <ele>802</ele>
        <time>2021-05-31T16:48:51Z</time>
      </trkpt>
      <trkpt lat="42.82496" lon="0.32611">
        <ele>801</ele>
        <time>2021-05-31T16:48:58Z</time>
      </trkpt>
      <trkpt lat="42.82498" lon="0.32613">
        <ele>801</ele>
        <time>2021-05-31T16:48:58Z</time>
      </trkpt>
      <trkpt lat="42.82523" lon="0.32643">
        <ele>801</ele>
        <time>2021-05-31T16:49:06Z</time>
      </trkpt>
      <trkpt lat="42.82531" lon="0.32652">
        <ele>801</ele>
        <time>2021-05-31T16:49:09Z</time>
      </trkpt>
      <trkpt lat="42.82541" lon="0.32663">
        <ele>801</ele>
        <time>2021-05-31T16:49:12Z</time>
      </trkpt>
      <trkpt lat="42.82545" lon="0.32666">
        <ele>801</ele>
        <time>2021-05-31T16:49:13Z</time>
      </trkpt>
      <trkpt lat="42.82548" lon="0.32668">
        <ele>801</ele>
        <time>2021-05-31T16:49:13Z</time>
      </trkpt>
      <trkpt lat="42.82561" lon="0.32683">
        <ele>801</ele>
        <time>2021-05-31T16:49:17Z</time>
      </trkpt>
      <trkpt lat="42.82565" lon="0.32691">
        <ele>801</ele>
        <time>2021-05-31T16:49:19Z</time>
      </trkpt>
      <trkpt lat="42.82567" lon="0.32694">
        <ele>801</ele>
        <time>2021-05-31T16:49:20Z</time>
      </trkpt>
      <trkpt lat="42.82592" lon="0.32723">
        <ele>801</ele>
        <time>2021-05-31T16:49:27Z</time>
      </trkpt>
      <trkpt lat="42.82596" lon="0.32727">
        <ele>801</ele>
        <time>2021-05-31T16:49:29Z</time>
      </trkpt>
      <trkpt lat="42.8261" lon="0.32746">
        <ele>801</ele>
        <time>2021-05-31T16:49:33Z</time>
      </trkpt>
      <trkpt lat="42.82625" lon="0.32766">
        <ele>801</ele>
        <time>2021-05-31T16:49:38Z</time>
      </trkpt>
      <trkpt lat="42.82646" lon="0.32794">
        <ele>800</ele>
        <time>2021-05-31T16:49:45Z</time>
      </trkpt>
      <trkpt lat="42.82667" lon="0.32806">
        <ele>799</ele>
        <time>2021-05-31T16:49:50Z</time>
      </trkpt>
      <trkpt lat="42.82672" lon="0.32809">
        <ele>799</ele>
        <time>2021-05-31T16:49:51Z</time>
      </trkpt>
      <trkpt lat="42.82705" lon="0.32822">
        <ele>798</ele>
        <time>2021-05-31T16:49:59Z</time>
      </trkpt>
      <trkpt lat="42.82716" lon="0.32826">
        <ele>798</ele>
        <time>2021-05-31T16:50:02Z</time>
      </trkpt>
      <trkpt lat="42.82756" lon="0.32836">
        <ele>797</ele>
        <time>2021-05-31T16:50:12Z</time>
      </trkpt>
      <trkpt lat="42.8277" lon="0.3284">
        <ele>797</ele>
        <time>2021-05-31T16:50:15Z</time>
      </trkpt>
      <trkpt lat="42.82863" lon="0.32862">
        <ele>795</ele>
        <time>2021-05-31T16:50:37Z</time>
      </trkpt>
      <trkpt lat="42.82882" lon="0.3287">
        <ele>795</ele>
        <time>2021-05-31T16:50:42Z</time>
      </trkpt>
      <trkpt lat="42.82907" lon="0.32884">
        <ele>794</ele>
        <time>2021-05-31T16:50:48Z</time>
      </trkpt>
      <trkpt lat="42.82911" lon="0.32885">
        <ele>794</ele>
        <time>2021-05-31T16:50:49Z</time>
      </trkpt>
      <trkpt lat="42.82913" lon="0.32885">
        <ele>794</ele>
        <time>2021-05-31T16:50:49Z</time>
      </trkpt>
      <trkpt lat="42.82926" lon="0.32877">
        <ele>794</ele>
        <time>2021-05-31T16:50:53Z</time>
      </trkpt>
      <trkpt lat="42.82932" lon="0.3287">
        <ele>794</ele>
        <time>2021-05-31T16:50:55Z</time>
      </trkpt>
      <trkpt lat="42.8294" lon="0.32871">
        <ele>794</ele>
        <time>2021-05-31T16:50:56Z</time>
      </trkpt>
      <trkpt lat="42.82944" lon="0.32875">
        <ele>794</ele>
        <time>2021-05-31T16:50:58Z</time>
      </trkpt>
      <trkpt lat="42.82946" lon="0.32877">
        <ele>793</ele>
        <time>2021-05-31T16:50:58Z</time>
      </trkpt>
      <trkpt lat="42.82956" lon="0.32847">
        <ele>793</ele>
        <time>2021-05-31T16:51:04Z</time>
      </trkpt>
      <trkpt lat="42.82959" lon="0.32839">
        <ele>793</ele>
        <time>2021-05-31T16:51:05Z</time>
      </trkpt>
      <trkpt lat="42.82961" lon="0.32835">
        <ele>793</ele>
        <time>2021-05-31T16:51:06Z</time>
      </trkpt>
      <trkpt lat="42.82969" lon="0.32812">
        <ele>793</ele>
        <time>2021-05-31T16:51:11Z</time>
      </trkpt>
      <trkpt lat="42.82971" lon="0.32801">
        <ele>793</ele>
        <time>2021-05-31T16:51:13Z</time>
      </trkpt>
      <trkpt lat="42.82972" lon="0.3277">
        <ele>793</ele>
        <time>2021-05-31T16:51:18Z</time>
      </trkpt>
      <trkpt lat="42.82975" lon="0.32744">
        <ele>793</ele>
        <time>2021-05-31T16:51:22Z</time>
      </trkpt>
      <trkpt lat="42.82976" lon="0.32731">
        <ele>794</ele>
        <time>2021-05-31T16:51:25Z</time>
      </trkpt>
      <trkpt lat="42.82984" lon="0.32734">
        <ele>793</ele>
        <time>2021-05-31T16:51:26Z</time>
      </trkpt>
      <trkpt lat="42.83028" lon="0.3276">
        <ele>792</ele>
        <time>2021-05-31T16:51:38Z</time>
      </trkpt>
      <trkpt lat="42.83043" lon="0.32767">
        <ele>792</ele>
        <time>2021-05-31T16:51:41Z</time>
      </trkpt>
      <trkpt lat="42.83098" lon="0.32777">
        <ele>791</ele>
        <time>2021-05-31T16:51:54Z</time>
      </trkpt>
      <trkpt lat="42.83153" lon="0.32783">
        <ele>791</ele>
        <time>2021-05-31T16:52:07Z</time>
      </trkpt>
      <trkpt lat="42.83214" lon="0.32791">
        <ele>791</ele>
        <time>2021-05-31T16:52:22Z</time>
      </trkpt>
      <trkpt lat="42.83247" lon="0.32798">
        <ele>791</ele>
        <time>2021-05-31T16:52:29Z</time>
      </trkpt>
      <trkpt lat="42.83281" lon="0.32812">
        <ele>790</ele>
        <time>2021-05-31T16:52:38Z</time>
      </trkpt>
      <trkpt lat="42.83346" lon="0.3284">
        <ele>789</ele>
        <time>2021-05-31T16:52:54Z</time>
      </trkpt>
      <trkpt lat="42.83387" lon="0.32866">
        <ele>789</ele>
        <time>2021-05-31T16:53:04Z</time>
      </trkpt>
      <trkpt lat="42.83409" lon="0.32878">
        <ele>789</ele>
        <time>2021-05-31T16:53:10Z</time>
      </trkpt>
      <trkpt lat="42.8344" lon="0.32887">
        <ele>789</ele>
        <time>2021-05-31T16:53:17Z</time>
      </trkpt>
      <trkpt lat="42.8361" lon="0.32937">
        <ele>792</ele>
        <time>2021-05-31T16:53:58Z</time>
      </trkpt>
      <trkpt lat="42.83629" lon="0.32948">
        <ele>794</ele>
        <time>2021-05-31T16:54:02Z</time>
      </trkpt>
      <trkpt lat="42.83647" lon="0.32961">
        <ele>795</ele>
        <time>2021-05-31T16:54:07Z</time>
      </trkpt>
      <trkpt lat="42.83661" lon="0.32975">
        <ele>795</ele>
        <time>2021-05-31T16:54:11Z</time>
      </trkpt>
      <trkpt lat="42.83689" lon="0.33015">
        <ele>796</ele>
        <time>2021-05-31T16:54:21Z</time>
      </trkpt>
      <trkpt lat="42.8375" lon="0.33083">
        <ele>796</ele>
        <time>2021-05-31T16:54:39Z</time>
      </trkpt>
      <trkpt lat="42.83772" lon="0.33121">
        <ele>798</ele>
        <time>2021-05-31T16:54:47Z</time>
      </trkpt>
      <trkpt lat="42.83797" lon="0.33178">
        <ele>795</ele>
        <time>2021-05-31T16:54:59Z</time>
      </trkpt>
      <trkpt lat="42.83817" lon="0.33217">
        <ele>794</ele>
        <time>2021-05-31T16:55:07Z</time>
      </trkpt>
      <trkpt lat="42.83842" lon="0.3327">
        <ele>790</ele>
        <time>2021-05-31T16:55:18Z</time>
      </trkpt>
      <trkpt lat="42.83858" lon="0.33313">
        <ele>787</ele>
        <time>2021-05-31T16:55:26Z</time>
      </trkpt>
      <trkpt lat="42.83868" lon="0.33343">
        <ele>784</ele>
        <time>2021-05-31T16:55:32Z</time>
      </trkpt>
      <trkpt lat="42.83876" lon="0.33359">
        <ele>783</ele>
        <time>2021-05-31T16:55:35Z</time>
      </trkpt>
      <trkpt lat="42.83883" lon="0.33369">
        <ele>783</ele>
        <time>2021-05-31T16:55:37Z</time>
      </trkpt>
      <trkpt lat="42.83904" lon="0.3339">
        <ele>781</ele>
        <time>2021-05-31T16:55:43Z</time>
      </trkpt>
      <trkpt lat="42.8403" lon="0.33485">
        <ele>781</ele>
        <time>2021-05-31T16:56:17Z</time>
      </trkpt>
      <trkpt lat="42.84143" lon="0.33583">
        <ele>777</ele>
        <time>2021-05-31T16:56:48Z</time>
      </trkpt>
      <trkpt lat="42.84177" lon="0.33614">
        <ele>778</ele>
        <time>2021-05-31T16:56:58Z</time>
      </trkpt>
      <trkpt lat="42.84214" lon="0.33647">
        <ele>779</ele>
        <time>2021-05-31T16:57:08Z</time>
      </trkpt>
      <trkpt lat="42.84256" lon="0.33684">
        <ele>778</ele>
        <time>2021-05-31T16:57:20Z</time>
      </trkpt>
      <trkpt lat="42.84318" lon="0.33737">
        <ele>778</ele>
        <time>2021-05-31T16:57:37Z</time>
      </trkpt>
      <trkpt lat="42.84325" lon="0.33743">
        <ele>777</ele>
        <time>2021-05-31T16:57:39Z</time>
      </trkpt>
      <trkpt lat="42.84357" lon="0.33777">
        <ele>776</ele>
        <time>2021-05-31T16:57:48Z</time>
      </trkpt>
      <trkpt lat="42.84361" lon="0.33782">
        <ele>776</ele>
        <time>2021-05-31T16:57:50Z</time>
      </trkpt>
      <trkpt lat="42.84378" lon="0.33803">
        <ele>774</ele>
        <time>2021-05-31T16:57:55Z</time>
      </trkpt>
      <trkpt lat="42.84384" lon="0.33808">
        <ele>774</ele>
        <time>2021-05-31T16:57:57Z</time>
      </trkpt>
      <trkpt lat="42.84388" lon="0.33811">
        <ele>774</ele>
        <time>2021-05-31T16:57:58Z</time>
      </trkpt>
      <trkpt lat="42.84434" lon="0.33837">
        <ele>772</ele>
        <time>2021-05-31T16:58:09Z</time>
      </trkpt>
      <trkpt lat="42.84482" lon="0.33867">
        <ele>773</ele>
        <time>2021-05-31T16:58:22Z</time>
      </trkpt>
      <trkpt lat="42.84554" lon="0.33912">
        <ele>771</ele>
        <time>2021-05-31T16:58:40Z</time>
      </trkpt>
      <trkpt lat="42.84557" lon="0.33914">
        <ele>771</ele>
        <time>2021-05-31T16:58:41Z</time>
      </trkpt>
      <trkpt lat="42.84691" lon="0.33991">
        <ele>777</ele>
        <time>2021-05-31T16:59:15Z</time>
      </trkpt>
      <trkpt lat="42.8471" lon="0.34002">
        <ele>778</ele>
        <time>2021-05-31T16:59:20Z</time>
      </trkpt>
      <trkpt lat="42.8474" lon="0.3402">
        <ele>780</ele>
        <time>2021-05-31T16:59:27Z</time>
      </trkpt>
      <trkpt lat="42.84774" lon="0.34044">
        <ele>781</ele>
        <time>2021-05-31T16:59:36Z</time>
      </trkpt>
      <trkpt lat="42.84826" lon="0.34082">
        <ele>775</ele>
        <time>2021-05-31T16:59:50Z</time>
      </trkpt>
      <trkpt lat="42.84851" lon="0.34097">
        <ele>776</ele>
        <time>2021-05-31T16:59:56Z</time>
      </trkpt>
      <trkpt lat="42.84894" lon="0.34116">
        <ele>778</ele>
        <time>2021-05-31T17:00:07Z</time>
      </trkpt>
      <trkpt lat="42.84961" lon="0.3413">
        <ele>777</ele>
        <time>2021-05-31T17:00:23Z</time>
      </trkpt>
      <trkpt lat="42.84966" lon="0.34131">
        <ele>777</ele>
        <time>2021-05-31T17:00:24Z</time>
      </trkpt>
      <trkpt lat="42.8501" lon="0.34132">
        <ele>776</ele>
        <time>2021-05-31T17:00:34Z</time>
      </trkpt>
      <trkpt lat="42.85054" lon="0.3412">
        <ele>777</ele>
        <time>2021-05-31T17:00:45Z</time>
      </trkpt>
      <trkpt lat="42.85065" lon="0.34119">
        <ele>777</ele>
        <time>2021-05-31T17:00:47Z</time>
      </trkpt>
      <trkpt lat="42.85085" lon="0.34121">
        <ele>775</ele>
        <time>2021-05-31T17:00:52Z</time>
      </trkpt>
      <trkpt lat="42.85178" lon="0.34128">
        <ele>770</ele>
        <time>2021-05-31T17:01:14Z</time>
      </trkpt>
      <trkpt lat="42.85236" lon="0.34137">
        <ele>771</ele>
        <time>2021-05-31T17:01:27Z</time>
      </trkpt>
      <trkpt lat="42.85245" lon="0.34135">
        <ele>771</ele>
        <time>2021-05-31T17:01:30Z</time>
      </trkpt>
      <trkpt lat="42.85261" lon="0.34127">
        <ele>773</ele>
        <time>2021-05-31T17:01:34Z</time>
      </trkpt>
      <trkpt lat="42.85283" lon="0.34113">
        <ele>775</ele>
        <time>2021-05-31T17:01:39Z</time>
      </trkpt>
      <trkpt lat="42.85294" lon="0.34106">
        <ele>776</ele>
        <time>2021-05-31T17:01:42Z</time>
      </trkpt>
      <trkpt lat="42.85304" lon="0.34104">
        <ele>776</ele>
        <time>2021-05-31T17:01:44Z</time>
      </trkpt>
      <trkpt lat="42.85328" lon="0.34104">
        <ele>775</ele>
        <time>2021-05-31T17:01:50Z</time>
      </trkpt>
      <trkpt lat="42.85369" lon="0.34109">
        <ele>774</ele>
        <time>2021-05-31T17:02:00Z</time>
      </trkpt>
      <trkpt lat="42.85386" lon="0.34107">
        <ele>774</ele>
        <time>2021-05-31T17:02:04Z</time>
      </trkpt>
      <trkpt lat="42.85412" lon="0.34101">
        <ele>775</ele>
        <time>2021-05-31T17:02:10Z</time>
      </trkpt>
      <trkpt lat="42.85415" lon="0.34101">
        <ele>774</ele>
        <time>2021-05-31T17:02:10Z</time>
      </trkpt>
      <trkpt lat="42.85527" lon="0.34103">
        <ele>774</ele>
        <time>2021-05-31T17:02:37Z</time>
      </trkpt>
      <trkpt lat="42.85572" lon="0.34087">
        <ele>777</ele>
        <time>2021-05-31T17:02:47Z</time>
      </trkpt>
      <trkpt lat="42.85607" lon="0.34086">
        <ele>775</ele>
        <time>2021-05-31T17:02:56Z</time>
      </trkpt>
      <trkpt lat="42.85618" lon="0.34089">
        <ele>774</ele>
        <time>2021-05-31T17:02:58Z</time>
      </trkpt>
      <trkpt lat="42.85625" lon="0.3409">
        <ele>774</ele>
        <time>2021-05-31T17:03:00Z</time>
      </trkpt>
      <trkpt lat="42.85684" lon="0.34103">
        <ele>769</ele>
        <time>2021-05-31T17:03:14Z</time>
      </trkpt>
      <trkpt lat="42.85978" lon="0.33965">
        <ele>768</ele>
        <time>2021-05-31T17:04:26Z</time>
      </trkpt>
      <trkpt lat="42.86078" lon="0.33918">
        <ele>771</ele>
        <time>2021-05-31T17:04:51Z</time>
      </trkpt>
      <trkpt lat="42.86084" lon="0.33915">
        <ele>771</ele>
        <time>2021-05-31T17:04:53Z</time>
      </trkpt>
      <trkpt lat="42.86114" lon="0.339">
        <ele>771</ele>
        <time>2021-05-31T17:05:00Z</time>
      </trkpt>
      <trkpt lat="42.86147" lon="0.33883">
        <ele>771</ele>
        <time>2021-05-31T17:05:08Z</time>
      </trkpt>
      <trkpt lat="42.86151" lon="0.33882">
        <ele>771</ele>
        <time>2021-05-31T17:05:09Z</time>
      </trkpt>
      <trkpt lat="42.86176" lon="0.33877">
        <ele>771</ele>
        <time>2021-05-31T17:05:15Z</time>
      </trkpt>
      <trkpt lat="42.86184" lon="0.33874">
        <ele>772</ele>
        <time>2021-05-31T17:05:17Z</time>
      </trkpt>
      <trkpt lat="42.86227" lon="0.33863">
        <ele>773</ele>
        <time>2021-05-31T17:05:27Z</time>
      </trkpt>
      <trkpt lat="42.86263" lon="0.33855">
        <ele>775</ele>
        <time>2021-05-31T17:05:36Z</time>
      </trkpt>
      <trkpt lat="42.86279" lon="0.33851">
        <ele>775</ele>
        <time>2021-05-31T17:05:40Z</time>
      </trkpt>
      <trkpt lat="42.86282" lon="0.3385">
        <ele>775</ele>
        <time>2021-05-31T17:05:40Z</time>
      </trkpt>
      <trkpt lat="42.86286" lon="0.3385">
        <ele>776</ele>
        <time>2021-05-31T17:05:41Z</time>
      </trkpt>
      <trkpt lat="42.86319" lon="0.33844">
        <ele>777</ele>
        <time>2021-05-31T17:05:49Z</time>
      </trkpt>
      <trkpt lat="42.86326" lon="0.33843">
        <ele>777</ele>
        <time>2021-05-31T17:05:51Z</time>
      </trkpt>
      <trkpt lat="42.86336" lon="0.33843">
        <ele>777</ele>
        <time>2021-05-31T17:05:53Z</time>
      </trkpt>
      <trkpt lat="42.86342" lon="0.33845">
        <ele>777</ele>
        <time>2021-05-31T17:05:55Z</time>
      </trkpt>
      <trkpt lat="42.86421" lon="0.33875">
        <ele>773</ele>
        <time>2021-05-31T17:06:14Z</time>
      </trkpt>
      <trkpt lat="42.86427" lon="0.33877">
        <ele>773</ele>
        <time>2021-05-31T17:06:15Z</time>
      </trkpt>
      <trkpt lat="42.86454" lon="0.33884">
        <ele>773</ele>
        <time>2021-05-31T17:06:22Z</time>
      </trkpt>
      <trkpt lat="42.86472" lon="0.33888">
        <ele>773</ele>
        <time>2021-05-31T17:06:26Z</time>
      </trkpt>
      <trkpt lat="42.86488" lon="0.33892">
        <ele>773</ele>
        <time>2021-05-31T17:06:30Z</time>
      </trkpt>
      <trkpt lat="42.86497" lon="0.33894">
        <ele>773</ele>
        <time>2021-05-31T17:06:32Z</time>
      </trkpt>
      <trkpt lat="42.86548" lon="0.33914">
        <ele>772</ele>
        <time>2021-05-31T17:06:44Z</time>
      </trkpt>
      <trkpt lat="42.87189" lon="0.34113">
        <ele>762</ele>
        <time>2021-05-31T17:09:18Z</time>
      </trkpt>
      <trkpt lat="42.87201" lon="0.34119">
        <ele>762</ele>
        <time>2021-05-31T17:09:21Z</time>
      </trkpt>
      <trkpt lat="42.87268" lon="0.34161">
        <ele>759</ele>
        <time>2021-05-31T17:09:38Z</time>
      </trkpt>
      <trkpt lat="42.87376" lon="0.34251">
        <ele>755</ele>
        <time>2021-05-31T17:10:07Z</time>
      </trkpt>
      <trkpt lat="42.87383" lon="0.34257">
        <ele>755</ele>
        <time>2021-05-31T17:10:09Z</time>
      </trkpt>
      <trkpt lat="42.87387" lon="0.3426">
        <ele>755</ele>
        <time>2021-05-31T17:10:10Z</time>
      </trkpt>
      <trkpt lat="42.8745" lon="0.34313">
        <ele>753</ele>
        <time>2021-05-31T17:10:28Z</time>
      </trkpt>
      <trkpt lat="42.87513" lon="0.34366">
        <ele>753</ele>
        <time>2021-05-31T17:10:45Z</time>
      </trkpt>
      <trkpt lat="42.8755" lon="0.34392">
        <ele>753</ele>
        <time>2021-05-31T17:10:55Z</time>
      </trkpt>
      <trkpt lat="42.87575" lon="0.34405">
        <ele>752</ele>
        <time>2021-05-31T17:11:01Z</time>
      </trkpt>
      <trkpt lat="42.87663" lon="0.34455">
        <ele>752</ele>
        <time>2021-05-31T17:11:23Z</time>
      </trkpt>
      <trkpt lat="42.87698" lon="0.34479">
        <ele>754</ele>
        <time>2021-05-31T17:11:32Z</time>
      </trkpt>
      <trkpt lat="42.877" lon="0.3448">
        <ele>754</ele>
        <time>2021-05-31T17:11:33Z</time>
      </trkpt>
      <trkpt lat="42.87709" lon="0.34489">
        <ele>754</ele>
        <time>2021-05-31T17:11:35Z</time>
      </trkpt>
      <trkpt lat="42.87738" lon="0.3452">
        <ele>753</ele>
        <time>2021-05-31T17:11:44Z</time>
      </trkpt>
      <trkpt lat="42.8789" lon="0.34623">
        <ele>751</ele>
        <time>2021-05-31T17:12:24Z</time>
      </trkpt>
      <trkpt lat="42.87904" lon="0.34634">
        <ele>750</ele>
        <time>2021-05-31T17:12:27Z</time>
      </trkpt>
      <trkpt lat="42.87919" lon="0.34629">
        <ele>753</ele>
        <time>2021-05-31T17:12:31Z</time>
      </trkpt>
      <trkpt lat="42.87983" lon="0.34633">
        <ele>756</ele>
        <time>2021-05-31T17:12:46Z</time>
      </trkpt>
      <trkpt lat="42.8802" lon="0.34642">
        <ele>755</ele>
        <time>2021-05-31T17:12:55Z</time>
      </trkpt>
      <trkpt lat="42.88068" lon="0.3467">
        <ele>748</ele>
        <time>2021-05-31T17:13:07Z</time>
      </trkpt>
      <trkpt lat="42.88083" lon="0.34677">
        <ele>748</ele>
        <time>2021-05-31T17:13:11Z</time>
      </trkpt>
      <trkpt lat="42.88093" lon="0.34678">
        <ele>747</ele>
        <time>2021-05-31T17:13:13Z</time>
      </trkpt>
      <trkpt lat="42.88173" lon="0.3465">
        <ele>758</ele>
        <time>2021-05-31T17:13:32Z</time>
      </trkpt>
      <trkpt lat="42.88194" lon="0.34651">
        <ele>756</ele>
        <time>2021-05-31T17:13:37Z</time>
      </trkpt>
      <trkpt lat="42.88232" lon="0.34661">
        <ele>751</ele>
        <time>2021-05-31T17:13:46Z</time>
      </trkpt>
      <trkpt lat="42.8828" lon="0.34676">
        <ele>747</ele>
        <time>2021-05-31T17:13:58Z</time>
      </trkpt>
      <trkpt lat="42.88331" lon="0.34695">
        <ele>744</ele>
        <time>2021-05-31T17:14:10Z</time>
      </trkpt>
      <trkpt lat="42.88388" lon="0.34724">
        <ele>744</ele>
        <time>2021-05-31T17:14:24Z</time>
      </trkpt>
      <trkpt lat="42.88434" lon="0.34733">
        <ele>745</ele>
        <time>2021-05-31T17:14:35Z</time>
      </trkpt>
      <trkpt lat="42.88446" lon="0.34736">
        <ele>745</ele>
        <time>2021-05-31T17:14:38Z</time>
      </trkpt>
      <trkpt lat="42.8845" lon="0.34737">
        <ele>745</ele>
        <time>2021-05-31T17:14:39Z</time>
      </trkpt>
      <trkpt lat="42.88506" lon="0.34746">
        <ele>745</ele>
        <time>2021-05-31T17:14:52Z</time>
      </trkpt>
      <trkpt lat="42.88591" lon="0.3476">
        <ele>740</ele>
        <time>2021-05-31T17:15:12Z</time>
      </trkpt>
      <trkpt lat="42.88617" lon="0.34764">
        <ele>739</ele>
        <time>2021-05-31T17:15:18Z</time>
      </trkpt>
      <trkpt lat="42.8877" lon="0.34754">
        <ele>741</ele>
        <time>2021-05-31T17:15:54Z</time>
      </trkpt>
      <trkpt lat="42.8878" lon="0.34755">
        <ele>743</ele>
        <time>2021-05-31T17:15:56Z</time>
      </trkpt>
      <trkpt lat="42.88792" lon="0.3476">
        <ele>745</ele>
        <time>2021-05-31T17:15:59Z</time>
      </trkpt>
      <trkpt lat="42.88804" lon="0.3477">
        <ele>746</ele>
        <time>2021-05-31T17:16:03Z</time>
      </trkpt>
      <trkpt lat="42.88813" lon="0.34781">
        <ele>746</ele>
        <time>2021-05-31T17:16:05Z</time>
      </trkpt>
      <trkpt lat="42.88824" lon="0.34806">
        <ele>744</ele>
        <time>2021-05-31T17:16:10Z</time>
      </trkpt>
      <trkpt lat="42.88842" lon="0.34846">
        <ele>740</ele>
        <time>2021-05-31T17:16:18Z</time>
      </trkpt>
      <trkpt lat="42.88849" lon="0.34855">
        <ele>740</ele>
        <time>2021-05-31T17:16:21Z</time>
      </trkpt>
      <trkpt lat="42.88855" lon="0.34862">
        <ele>740</ele>
        <time>2021-05-31T17:16:23Z</time>
      </trkpt>
      <trkpt lat="42.88859" lon="0.34867">
        <ele>740</ele>
        <time>2021-05-31T17:16:24Z</time>
      </trkpt>
      <trkpt lat="42.88902" lon="0.34896">
        <ele>742</ele>
        <time>2021-05-31T17:16:35Z</time>
      </trkpt>
      <trkpt lat="42.88911" lon="0.34901">
        <ele>742</ele>
        <time>2021-05-31T17:16:37Z</time>
      </trkpt>
      <trkpt lat="42.8892" lon="0.34905">
        <ele>742</ele>
        <time>2021-05-31T17:16:39Z</time>
      </trkpt>
      <trkpt lat="42.88924" lon="0.34906">
        <ele>742</ele>
        <time>2021-05-31T17:16:40Z</time>
      </trkpt>
      <trkpt lat="42.88929" lon="0.34906">
        <ele>742</ele>
        <time>2021-05-31T17:16:42Z</time>
      </trkpt>
      <trkpt lat="42.88947" lon="0.34902">
        <ele>743</ele>
        <time>2021-05-31T17:16:46Z</time>
      </trkpt>
      <trkpt lat="42.88941" lon="0.34938">
        <ele>738</ele>
        <time>2021-05-31T17:16:52Z</time>
      </trkpt>
      <trkpt lat="42.88943" lon="0.34942">
        <ele>737</ele>
        <time>2021-05-31T17:16:53Z</time>
      </trkpt>
      <trkpt lat="42.88938" lon="0.34964">
        <ele>734</ele>
        <time>2021-05-31T17:16:57Z</time>
      </trkpt>
      <trkpt lat="42.88922" lon="0.34957">
        <ele>734</ele>
        <time>2021-05-31T17:17:01Z</time>
      </trkpt>
      <trkpt lat="42.88893" lon="0.34951">
        <ele>735</ele>
        <time>2021-05-31T17:17:08Z</time>
      </trkpt>
      <trkpt lat="42.88878" lon="0.34943">
        <ele>735</ele>
        <time>2021-05-31T17:17:11Z</time>
      </trkpt>
      <trkpt lat="42.88878" lon="0.34946">
        <ele>735</ele>
        <time>2021-05-31T17:17:12Z</time>
      </trkpt>
      <trkpt lat="42.88875" lon="0.34966">
        <ele>733</ele>
        <time>2021-05-31T17:17:15Z</time>
      </trkpt>
      <trkpt lat="42.88876" lon="0.34976">
        <ele>733</ele>
        <time>2021-05-31T17:17:17Z</time>
      </trkpt>
      <trkpt lat="42.8886" lon="0.35013">
        <ele>733</ele>
        <time>2021-05-31T17:17:25Z</time>
      </trkpt>
      <trkpt lat="42.88891" lon="0.3504">
        <ele>732</ele>
        <time>2021-05-31T17:17:33Z</time>
      </trkpt>
      <trkpt lat="42.88893" lon="0.35045">
        <ele>732</ele>
        <time>2021-05-31T17:17:34Z</time>
      </trkpt>
      <trkpt lat="42.88973" lon="0.35107">
        <ele>730</ele>
        <time>2021-05-31T17:17:56Z</time>
      </trkpt>
      <trkpt lat="42.88989" lon="0.35122">
        <ele>730</ele>
        <time>2021-05-31T17:18:00Z</time>
      </trkpt>
      <trkpt lat="42.89003" lon="0.35141">
        <ele>729</ele>
        <time>2021-05-31T17:18:05Z</time>
      </trkpt>
      <trkpt lat="42.89047" lon="0.35227">
        <ele>729</ele>
        <time>2021-05-31T17:18:23Z</time>
      </trkpt>
      <trkpt lat="42.89062" lon="0.3525">
        <ele>730</ele>
        <time>2021-05-31T17:18:28Z</time>
      </trkpt>
      <trkpt lat="42.89068" lon="0.35263">
        <ele>733</ele>
        <time>2021-05-31T17:19:20Z</time>
      </trkpt>
      <trkpt lat="42.8916" lon="0.35278">
        <ele>742</ele>
        <time>2021-05-31T17:19:42Z</time>
      </trkpt>
      <trkpt lat="42.89236" lon="0.353">
        <ele>738</ele>
        <time>2021-05-31T17:20:00Z</time>
      </trkpt>
      <trkpt lat="42.89275" lon="0.35315">
        <ele>736</ele>
        <time>2021-05-31T17:20:09Z</time>
      </trkpt>
      <trkpt lat="42.8935" lon="0.35355">
        <ele>731</ele>
        <time>2021-05-31T17:20:28Z</time>
      </trkpt>
      <trkpt lat="42.89399" lon="0.35387">
        <ele>730</ele>
        <time>2021-05-31T17:20:41Z</time>
      </trkpt>
      <trkpt lat="42.89484" lon="0.35452">
        <ele>725</ele>
        <time>2021-05-31T17:21:04Z</time>
      </trkpt>
      <trkpt lat="42.89494" lon="0.35467">
        <ele>725</ele>
        <time>2021-05-31T17:21:07Z</time>
      </trkpt>
      <trkpt lat="42.89513" lon="0.35485">
        <ele>725</ele>
        <time>2021-05-31T17:21:13Z</time>
      </trkpt>
      <trkpt lat="42.89518" lon="0.35504">
        <ele>725</ele>
        <time>2021-05-31T17:21:16Z</time>
      </trkpt>
      <trkpt lat="42.89522" lon="0.35511">
        <ele>726</ele>
        <time>2021-05-31T17:21:18Z</time>
      </trkpt>
      <trkpt lat="42.8953" lon="0.35517">
        <ele>726</ele>
        <time>2021-05-31T17:21:20Z</time>
      </trkpt>
      <trkpt lat="42.89539" lon="0.35516">
        <ele>725</ele>
        <time>2021-05-31T17:21:22Z</time>
      </trkpt>
      <trkpt lat="42.89546" lon="0.35518">
        <ele>725</ele>
        <time>2021-05-31T17:21:23Z</time>
      </trkpt>
      <trkpt lat="42.89567" lon="0.35527">
        <ele>725</ele>
        <time>2021-05-31T17:21:29Z</time>
      </trkpt>
      <trkpt lat="42.89582" lon="0.35535">
        <ele>725</ele>
        <time>2021-05-31T17:21:32Z</time>
      </trkpt>
      <trkpt lat="42.89604" lon="0.35544">
        <ele>723</ele>
        <time>2021-05-31T17:21:38Z</time>
      </trkpt>
      <trkpt lat="42.89622" lon="0.35555">
        <ele>723</ele>
        <time>2021-05-31T17:21:42Z</time>
      </trkpt>
      <trkpt lat="42.89659" lon="0.35584">
        <ele>721</ele>
        <time>2021-05-31T17:21:52Z</time>
      </trkpt>
      <trkpt lat="42.89709" lon="0.35619">
        <ele>721</ele>
        <time>2021-05-31T17:22:05Z</time>
      </trkpt>
      <trkpt lat="42.89748" lon="0.35638">
        <ele>720</ele>
        <time>2021-05-31T17:22:15Z</time>
      </trkpt>
      <trkpt lat="42.89821" lon="0.35665">
        <ele>718</ele>
        <time>2021-05-31T17:22:33Z</time>
      </trkpt>
      <trkpt lat="42.8984" lon="0.35674">
        <ele>718</ele>
        <time>2021-05-31T17:22:37Z</time>
      </trkpt>
      <trkpt lat="42.8992" lon="0.35704">
        <ele>720</ele>
        <time>2021-05-31T17:22:57Z</time>
      </trkpt>
      <trkpt lat="42.89964" lon="0.35721">
        <ele>721</ele>
        <time>2021-05-31T17:23:07Z</time>
      </trkpt>
      <trkpt lat="42.89984" lon="0.35728">
        <ele>721</ele>
        <time>2021-05-31T17:23:12Z</time>
      </trkpt>
      <trkpt lat="42.9006" lon="0.35754">
        <ele>720</ele>
        <time>2021-05-31T17:23:31Z</time>
      </trkpt>
      <trkpt lat="42.90161" lon="0.35789">
        <ele>720</ele>
        <time>2021-05-31T17:23:55Z</time>
      </trkpt>
      <trkpt lat="42.90241" lon="0.35816">
        <ele>721</ele>
        <time>2021-05-31T17:24:14Z</time>
      </trkpt>
      <trkpt lat="42.90253" lon="0.3582">
        <ele>721</ele>
        <time>2021-05-31T17:24:17Z</time>
      </trkpt>
      <trkpt lat="42.90258" lon="0.35821">
        <ele>720</ele>
        <time>2021-05-31T17:24:18Z</time>
      </trkpt>
      <trkpt lat="42.90274" lon="0.35821">
        <ele>719</ele>
        <time>2021-05-31T17:24:22Z</time>
      </trkpt>
      <trkpt lat="42.90284" lon="0.3582">
        <ele>718</ele>
        <time>2021-05-31T17:24:24Z</time>
      </trkpt>
      <trkpt lat="42.90294" lon="0.35821">
        <ele>718</ele>
        <time>2021-05-31T17:24:27Z</time>
      </trkpt>
      <trkpt lat="42.90342" lon="0.35825">
        <ele>714</ele>
        <time>2021-05-31T17:24:38Z</time>
      </trkpt>
      <trkpt lat="42.90435" lon="0.35829">
        <ele>707</ele>
        <time>2021-05-31T17:25:00Z</time>
      </trkpt>
      <trkpt lat="42.90556" lon="0.35801">
        <ele>702</ele>
        <time>2021-05-31T17:25:28Z</time>
      </trkpt>
      <trkpt lat="42.90573" lon="0.35798">
        <ele>702</ele>
        <time>2021-05-31T17:25:32Z</time>
      </trkpt>
      <trkpt lat="42.90579" lon="0.35798">
        <ele>702</ele>
        <time>2021-05-31T17:25:34Z</time>
      </trkpt>
      <trkpt lat="42.90583" lon="0.35787">
        <ele>702</ele>
        <time>2021-05-31T17:25:36Z</time>
      </trkpt>
      <trkpt lat="42.90584" lon="0.35784">
        <ele>702</ele>
        <time>2021-05-31T17:25:36Z</time>
      </trkpt>
      <trkpt lat="42.9059" lon="0.35758">
        <ele>702</ele>
        <time>2021-05-31T17:25:41Z</time>
      </trkpt>
      <trkpt lat="42.90592" lon="0.35753">
        <ele>702</ele>
        <time>2021-05-31T17:25:42Z</time>
      </trkpt>
      <trkpt lat="42.90608" lon="0.35754">
        <ele>702</ele>
        <time>2021-05-31T17:25:46Z</time>
      </trkpt>
      <trkpt lat="42.9068" lon="0.35744">
        <ele>707</ele>
        <time>2021-05-31T17:26:03Z</time>
      </trkpt>
      <trkpt lat="42.90693" lon="0.35749">
        <ele>708</ele>
        <time>2021-05-31T17:26:06Z</time>
      </trkpt>
      <trkpt lat="42.9079" lon="0.35831">
        <ele>713</ele>
        <time>2021-05-31T17:26:32Z</time>
      </trkpt>
      <trkpt lat="42.90908" lon="0.35964">
        <ele>710</ele>
        <time>2021-05-31T17:27:08Z</time>
      </trkpt>
      <trkpt lat="42.9093" lon="0.36001">
        <ele>704</ele>
        <time>2021-05-31T17:27:16Z</time>
      </trkpt>
      <trkpt lat="42.90938" lon="0.36014">
        <ele>704</ele>
        <time>2021-05-31T17:27:19Z</time>
      </trkpt>
      <trkpt lat="42.90947" lon="0.36023">
        <ele>704</ele>
        <time>2021-05-31T17:27:22Z</time>
      </trkpt>
      <trkpt lat="42.90963" lon="0.36033">
        <ele>704</ele>
        <time>2021-05-31T17:27:26Z</time>
      </trkpt>
      <trkpt lat="42.91036" lon="0.36066">
        <ele>700</ele>
        <time>2021-05-31T17:27:44Z</time>
      </trkpt>
      <trkpt lat="42.91047" lon="0.36069">
        <ele>699</ele>
        <time>2021-05-31T17:27:46Z</time>
      </trkpt>
      <trkpt lat="42.91058" lon="0.36068">
        <ele>699</ele>
        <time>2021-05-31T17:27:49Z</time>
      </trkpt>
      <trkpt lat="42.91072" lon="0.36063">
        <ele>700</ele>
        <time>2021-05-31T17:27:52Z</time>
      </trkpt>
      <trkpt lat="42.91143" lon="0.36007">
        <ele>699</ele>
        <time>2021-05-31T17:28:12Z</time>
      </trkpt>
      <trkpt lat="42.91168" lon="0.35982">
        <ele>701</ele>
        <time>2021-05-31T17:28:19Z</time>
      </trkpt>
      <trkpt lat="42.91193" lon="0.35949">
        <ele>703</ele>
        <time>2021-05-31T17:28:27Z</time>
      </trkpt>
      <trkpt lat="42.91217" lon="0.35926">
        <ele>701</ele>
        <time>2021-05-31T17:28:34Z</time>
      </trkpt>
      <trkpt lat="42.91231" lon="0.35915">
        <ele>700</ele>
        <time>2021-05-31T17:28:38Z</time>
      </trkpt>
      <trkpt lat="42.91262" lon="0.35899">
        <ele>702</ele>
        <time>2021-05-31T17:28:45Z</time>
      </trkpt>
      <trkpt lat="42.91277" lon="0.35894">
        <ele>704</ele>
        <time>2021-05-31T17:28:49Z</time>
      </trkpt>
      <trkpt lat="42.91289" lon="0.35892">
        <ele>704</ele>
        <time>2021-05-31T17:28:52Z</time>
      </trkpt>
      <trkpt lat="42.91309" lon="0.35893">
        <ele>704</ele>
        <time>2021-05-31T17:28:56Z</time>
      </trkpt>
      <trkpt lat="42.91333" lon="0.35898">
        <ele>702</ele>
        <time>2021-05-31T17:29:02Z</time>
      </trkpt>
      <trkpt lat="42.91414" lon="0.35954">
        <ele>698</ele>
        <time>2021-05-31T17:29:23Z</time>
      </trkpt>
      <trkpt lat="42.91477" lon="0.36006">
        <ele>693</ele>
        <time>2021-05-31T17:29:40Z</time>
      </trkpt>
      <trkpt lat="42.91526" lon="0.36046">
        <ele>694</ele>
        <time>2021-05-31T17:29:54Z</time>
      </trkpt>
      <trkpt lat="42.91563" lon="0.36083">
        <ele>694</ele>
        <time>2021-05-31T17:30:05Z</time>
      </trkpt>
      <trkpt lat="42.91581" lon="0.36105">
        <ele>693</ele>
        <time>2021-05-31T17:30:10Z</time>
      </trkpt>
      <trkpt lat="42.91633" lon="0.36194">
        <ele>695</ele>
        <time>2021-05-31T17:30:30Z</time>
      </trkpt>
      <trkpt lat="42.91668" lon="0.36239">
        <ele>692</ele>
        <time>2021-05-31T17:30:41Z</time>
      </trkpt>
      <trkpt lat="42.9169" lon="0.36263">
        <ele>693</ele>
        <time>2021-05-31T17:30:47Z</time>
      </trkpt>
      <trkpt lat="42.91711" lon="0.3628">
        <ele>694</ele>
        <time>2021-05-31T17:30:53Z</time>
      </trkpt>
      <trkpt lat="42.9172" lon="0.36287">
        <ele>694</ele>
        <time>2021-05-31T17:30:56Z</time>
      </trkpt>
      <trkpt lat="42.91749" lon="0.36299">
        <ele>693</ele>
        <time>2021-05-31T17:31:03Z</time>
      </trkpt>
      <trkpt lat="42.91834" lon="0.36323">
        <ele>690</ele>
        <time>2021-05-31T17:31:23Z</time>
      </trkpt>
      <trkpt lat="42.919" lon="0.36341">
        <ele>694</ele>
        <time>2021-05-31T17:31:39Z</time>
      </trkpt>
      <trkpt lat="42.91972" lon="0.36357">
        <ele>696</ele>
        <time>2021-05-31T17:31:56Z</time>
      </trkpt>
      <trkpt lat="42.92072" lon="0.36366">
        <ele>704</ele>
        <time>2021-05-31T17:32:19Z</time>
      </trkpt>
      <trkpt lat="42.92127" lon="0.36375">
        <ele>705</ele>
        <time>2021-05-31T17:32:32Z</time>
      </trkpt>
      <trkpt lat="42.92158" lon="0.36384">
        <ele>704</ele>
        <time>2021-05-31T17:32:39Z</time>
      </trkpt>
      <trkpt lat="42.92179" lon="0.36396">
        <ele>702</ele>
        <time>2021-05-31T17:32:45Z</time>
      </trkpt>
      <trkpt lat="42.92199" lon="0.3641">
        <ele>700</ele>
        <time>2021-05-31T17:32:50Z</time>
      </trkpt>
      <trkpt lat="42.92241" lon="0.36451">
        <ele>697</ele>
        <time>2021-05-31T17:33:02Z</time>
      </trkpt>
      <trkpt lat="42.92373" lon="0.36595">
        <ele>690</ele>
        <time>2021-05-31T17:33:41Z</time>
      </trkpt>
      <trkpt lat="42.92458" lon="0.36645">
        <ele>690</ele>
        <time>2021-05-31T17:34:03Z</time>
      </trkpt>
      <trkpt lat="42.92473" lon="0.36652">
        <ele>689</ele>
        <time>2021-05-31T17:34:39Z</time>
      </trkpt>
      <trkpt lat="42.925" lon="0.36663">
        <ele>689</ele>
        <time>2021-05-31T17:34:45Z</time>
      </trkpt>
      <trkpt lat="42.92577" lon="0.36694">
        <ele>689</ele>
        <time>2021-05-31T17:35:04Z</time>
      </trkpt>
      <trkpt lat="42.92636" lon="0.36714">
        <ele>689</ele>
        <time>2021-05-31T17:35:18Z</time>
      </trkpt>
      <trkpt lat="42.92647" lon="0.36718">
        <ele>689</ele>
        <time>2021-05-31T17:35:21Z</time>
      </trkpt>
      <trkpt lat="42.92682" lon="0.36728">
        <ele>688</ele>
        <time>2021-05-31T17:35:29Z</time>
      </trkpt>
      <trkpt lat="42.92715" lon="0.36735">
        <ele>688</ele>
        <time>2021-05-31T17:35:37Z</time>
      </trkpt>
      <trkpt lat="42.92765" lon="0.3674">
        <ele>690</ele>
        <time>2021-05-31T17:35:49Z</time>
      </trkpt>
      <trkpt lat="42.92862" lon="0.36759">
        <ele>687</ele>
        <time>2021-05-31T17:36:12Z</time>
      </trkpt>
      <trkpt lat="42.92894" lon="0.36761">
        <ele>687</ele>
        <time>2021-05-31T17:36:19Z</time>
      </trkpt>
      <trkpt lat="42.92957" lon="0.3676">
        <ele>687</ele>
        <time>2021-05-31T17:36:34Z</time>
      </trkpt>
      <trkpt lat="42.92994" lon="0.36756">
        <ele>687</ele>
        <time>2021-05-31T17:36:43Z</time>
      </trkpt>
      <trkpt lat="42.93069" lon="0.36741">
        <ele>685</ele>
        <time>2021-05-31T17:37:00Z</time>
      </trkpt>
      <trkpt lat="42.93096" lon="0.3674">
        <ele>685</ele>
        <time>2021-05-31T17:37:07Z</time>
      </trkpt>
      <trkpt lat="42.93117" lon="0.36743">
        <ele>684</ele>
        <time>2021-05-31T17:37:12Z</time>
      </trkpt>
      <trkpt lat="42.93155" lon="0.36757">
        <ele>682</ele>
        <time>2021-05-31T17:37:21Z</time>
      </trkpt>
      <trkpt lat="42.93192" lon="0.36769">
        <ele>682</ele>
        <time>2021-05-31T17:37:30Z</time>
      </trkpt>
      <trkpt lat="42.93226" lon="0.36772">
        <ele>682</ele>
        <time>2021-05-31T17:37:38Z</time>
      </trkpt>
      <trkpt lat="42.93275" lon="0.36778">
        <ele>684</ele>
        <time>2021-05-31T17:37:49Z</time>
      </trkpt>
      <trkpt lat="42.933" lon="0.36785">
        <ele>685</ele>
        <time>2021-05-31T17:37:55Z</time>
      </trkpt>
      <trkpt lat="42.93354" lon="0.36809">
        <ele>683</ele>
        <time>2021-05-31T17:38:08Z</time>
      </trkpt>
      <trkpt lat="42.93417" lon="0.36837">
        <ele>682</ele>
        <time>2021-05-31T17:38:24Z</time>
      </trkpt>
      <trkpt lat="42.93434" lon="0.36845">
        <ele>682</ele>
        <time>2021-05-31T17:38:28Z</time>
      </trkpt>
      <trkpt lat="42.93471" lon="0.36861">
        <ele>683</ele>
        <time>2021-05-31T17:38:37Z</time>
      </trkpt>
      <trkpt lat="42.93503" lon="0.36878">
        <ele>681</ele>
        <time>2021-05-31T17:38:45Z</time>
      </trkpt>
      <trkpt lat="42.93538" lon="0.36902">
        <ele>677</ele>
        <time>2021-05-31T17:38:54Z</time>
      </trkpt>
      <trkpt lat="42.93669" lon="0.36998">
        <ele>673</ele>
        <time>2021-05-31T17:39:29Z</time>
      </trkpt>
      <trkpt lat="42.93678" lon="0.37003">
        <ele>673</ele>
        <time>2021-05-31T17:39:31Z</time>
      </trkpt>
      <trkpt lat="42.9369" lon="0.3701">
        <ele>674</ele>
        <time>2021-05-31T17:39:34Z</time>
      </trkpt>
      <trkpt lat="42.93725" lon="0.37027">
        <ele>675</ele>
        <time>2021-05-31T17:39:43Z</time>
      </trkpt>
      <trkpt lat="42.9374" lon="0.37033">
        <ele>675</ele>
        <time>2021-05-31T17:39:47Z</time>
      </trkpt>
      <trkpt lat="42.93769" lon="0.37044">
        <ele>672</ele>
        <time>2021-05-31T17:39:54Z</time>
      </trkpt>
      <trkpt lat="42.93849" lon="0.3707">
        <ele>667</ele>
        <time>2021-05-31T17:40:13Z</time>
      </trkpt>
      <trkpt lat="42.94001" lon="0.37118">
        <ele>664</ele>
        <time>2021-05-31T17:40:49Z</time>
      </trkpt>
      <trkpt lat="42.94069" lon="0.37138">
        <ele>663</ele>
        <time>2021-05-31T17:41:05Z</time>
      </trkpt>
      <trkpt lat="42.94116" lon="0.37148">
        <ele>664</ele>
        <time>2021-05-31T17:41:17Z</time>
      </trkpt>
      <trkpt lat="42.94139" lon="0.37157">
        <ele>664</ele>
        <time>2021-05-31T17:41:22Z</time>
      </trkpt>
      <trkpt lat="42.94152" lon="0.37169">
        <ele>664</ele>
        <time>2021-05-31T17:41:26Z</time>
      </trkpt>
      <trkpt lat="42.94165" lon="0.37184">
        <ele>664</ele>
        <time>2021-05-31T17:41:30Z</time>
      </trkpt>
      <trkpt lat="42.94168" lon="0.3719">
        <ele>664</ele>
        <time>2021-05-31T17:41:31Z</time>
      </trkpt>
      <trkpt lat="42.94175" lon="0.37201">
        <ele>667</ele>
        <time>2021-05-31T17:41:34Z</time>
      </trkpt>
      <trkpt lat="42.94185" lon="0.3723">
        <ele>669</ele>
        <time>2021-05-31T17:41:39Z</time>
      </trkpt>
      <trkpt lat="42.94196" lon="0.37309">
        <ele>666</ele>
        <time>2021-05-31T17:41:53Z</time>
      </trkpt>
      <trkpt lat="42.94204" lon="0.37331">
        <ele>665</ele>
        <time>2021-05-31T17:41:57Z</time>
      </trkpt>
      <trkpt lat="42.94217" lon="0.37355">
        <ele>665</ele>
        <time>2021-05-31T17:42:02Z</time>
      </trkpt>
      <trkpt lat="42.94232" lon="0.3737">
        <ele>665</ele>
        <time>2021-05-31T17:42:06Z</time>
      </trkpt>
      <trkpt lat="42.94246" lon="0.37379">
        <ele>663</ele>
        <time>2021-05-31T17:42:10Z</time>
      </trkpt>
      <trkpt lat="42.94263" lon="0.37387">
        <ele>662</ele>
        <time>2021-05-31T17:42:14Z</time>
      </trkpt>
      <trkpt lat="42.94281" lon="0.37388">
        <ele>662</ele>
        <time>2021-05-31T17:42:18Z</time>
      </trkpt>
      <trkpt lat="42.94301" lon="0.37384">
        <ele>663</ele>
        <time>2021-05-31T17:42:23Z</time>
      </trkpt>
      <trkpt lat="42.94319" lon="0.37384">
        <ele>663</ele>
        <time>2021-05-31T17:42:27Z</time>
      </trkpt>
      <trkpt lat="42.94403" lon="0.37387">
        <ele>661</ele>
        <time>2021-05-31T17:42:47Z</time>
      </trkpt>
      <trkpt lat="42.94481" lon="0.37374">
        <ele>661</ele>
        <time>2021-05-31T17:43:05Z</time>
      </trkpt>
      <trkpt lat="42.9453" lon="0.37368">
        <ele>662</ele>
        <time>2021-05-31T17:43:17Z</time>
      </trkpt>
      <trkpt lat="42.94624" lon="0.37357">
        <ele>667</ele>
        <time>2021-05-31T17:43:39Z</time>
      </trkpt>
      <trkpt lat="42.94651" lon="0.37357">
        <ele>667</ele>
        <time>2021-05-31T17:43:45Z</time>
      </trkpt>
      <trkpt lat="42.94676" lon="0.37367">
        <ele>666</ele>
        <time>2021-05-31T17:43:51Z</time>
      </trkpt>
      <trkpt lat="42.94702" lon="0.37386">
        <ele>664</ele>
        <time>2021-05-31T17:43:58Z</time>
      </trkpt>
      <trkpt lat="42.94749" lon="0.37426">
        <ele>657</ele>
        <time>2021-05-31T17:44:11Z</time>
      </trkpt>
      <trkpt lat="42.94769" lon="0.37445">
        <ele>659</ele>
        <time>2021-05-31T17:44:17Z</time>
      </trkpt>
      <trkpt lat="42.94802" lon="0.37467">
        <ele>660</ele>
        <time>2021-05-31T17:44:25Z</time>
      </trkpt>
      <trkpt lat="42.94822" lon="0.37477">
        <ele>660</ele>
        <time>2021-05-31T17:44:30Z</time>
      </trkpt>
      <trkpt lat="42.9483" lon="0.37481">
        <ele>659</ele>
        <time>2021-05-31T17:44:32Z</time>
      </trkpt>
      <trkpt lat="42.94856" lon="0.37493">
        <ele>656</ele>
        <time>2021-05-31T17:44:39Z</time>
      </trkpt>
      <trkpt lat="42.9492" lon="0.37514">
        <ele>656</ele>
        <time>2021-05-31T17:44:54Z</time>
      </trkpt>
      <trkpt lat="42.94963" lon="0.37523">
        <ele>656</ele>
        <time>2021-05-31T17:45:04Z</time>
      </trkpt>
      <trkpt lat="42.94981" lon="0.37519">
        <ele>657</ele>
        <time>2021-05-31T17:45:08Z</time>
      </trkpt>
      <trkpt lat="42.95008" lon="0.37503">
        <ele>660</ele>
        <time>2021-05-31T17:45:15Z</time>
      </trkpt>
      <trkpt lat="42.95034" lon="0.37487">
        <ele>668</ele>
        <time>2021-05-31T17:45:22Z</time>
      </trkpt>
      <trkpt lat="42.95055" lon="0.37482">
        <ele>672</ele>
        <time>2021-05-31T17:45:27Z</time>
      </trkpt>
      <trkpt lat="42.95071" lon="0.37484">
        <ele>673</ele>
        <time>2021-05-31T17:45:31Z</time>
      </trkpt>
      <trkpt lat="42.95093" lon="0.37494">
        <ele>673</ele>
        <time>2021-05-31T17:45:36Z</time>
      </trkpt>
      <trkpt lat="42.95116" lon="0.3752">
        <ele>673</ele>
        <time>2021-05-31T17:45:43Z</time>
      </trkpt>
      <trkpt lat="42.95146" lon="0.37561">
        <ele>663</ele>
        <time>2021-05-31T17:45:53Z</time>
      </trkpt>
      <trkpt lat="42.95199" lon="0.37614">
        <ele>665</ele>
        <time>2021-05-31T17:46:08Z</time>
      </trkpt>
      <trkpt lat="42.95218" lon="0.37631">
        <ele>666</ele>
        <time>2021-05-31T17:46:14Z</time>
      </trkpt>
      <trkpt lat="42.95245" lon="0.37655">
        <ele>660</ele>
        <time>2021-05-31T17:46:21Z</time>
      </trkpt>
      <trkpt lat="42.95287" lon="0.37694">
        <ele>664</ele>
        <time>2021-05-31T17:46:33Z</time>
      </trkpt>
      <trkpt lat="42.95344" lon="0.37747">
        <ele>652</ele>
        <time>2021-05-31T17:46:49Z</time>
      </trkpt>
      <trkpt lat="42.95376" lon="0.37772">
        <ele>650</ele>
        <time>2021-05-31T17:46:58Z</time>
      </trkpt>
      <trkpt lat="42.95614" lon="0.37841">
        <ele>646</ele>
        <time>2021-05-31T17:47:55Z</time>
      </trkpt>
      <trkpt lat="42.95632" lon="0.37847">
        <ele>645</ele>
        <time>2021-05-31T17:47:59Z</time>
      </trkpt>
      <trkpt lat="42.95654" lon="0.37854">
        <ele>644</ele>
        <time>2021-05-31T17:48:04Z</time>
      </trkpt>
      <trkpt lat="42.95806" lon="0.37892">
        <ele>649</ele>
        <time>2021-05-31T17:48:40Z</time>
      </trkpt>
      <trkpt lat="42.95833" lon="0.37902">
        <ele>648</ele>
        <time>2021-05-31T17:48:47Z</time>
      </trkpt>
      <trkpt lat="42.95871" lon="0.37903">
        <ele>647</ele>
        <time>2021-05-31T17:48:56Z</time>
      </trkpt>
      <trkpt lat="42.95879" lon="0.37902">
        <ele>647</ele>
        <time>2021-05-31T17:48:58Z</time>
      </trkpt>
      <trkpt lat="42.95892" lon="0.37902">
        <ele>647</ele>
        <time>2021-05-31T17:49:01Z</time>
      </trkpt>
      <trkpt lat="42.9592" lon="0.37902">
        <ele>647</ele>
        <time>2021-05-31T17:49:07Z</time>
      </trkpt>
      <trkpt lat="42.95926" lon="0.37902">
        <ele>646</ele>
        <time>2021-05-31T17:49:09Z</time>
      </trkpt>
      <trkpt lat="42.9594" lon="0.37901">
        <ele>646</ele>
        <time>2021-05-31T17:49:12Z</time>
      </trkpt>
      <trkpt lat="42.95958" lon="0.37903">
        <ele>645</ele>
        <time>2021-05-31T17:49:16Z</time>
      </trkpt>
      <trkpt lat="42.95978" lon="0.37906">
        <ele>644</ele>
        <time>2021-05-31T17:49:21Z</time>
      </trkpt>
      <trkpt lat="42.96006" lon="0.37913">
        <ele>642</ele>
        <time>2021-05-31T17:49:27Z</time>
      </trkpt>
      <trkpt lat="42.96031" lon="0.37921">
        <ele>640</ele>
        <time>2021-05-31T17:49:33Z</time>
      </trkpt>
      <trkpt lat="42.96032" lon="0.37921">
        <ele>639</ele>
        <time>2021-05-31T17:49:34Z</time>
      </trkpt>
      <trkpt lat="42.96072" lon="0.37931">
        <ele>636</ele>
        <time>2021-05-31T17:49:43Z</time>
      </trkpt>
      <trkpt lat="42.96076" lon="0.37931">
        <ele>636</ele>
        <time>2021-05-31T17:49:44Z</time>
      </trkpt>
      <trkpt lat="42.96084" lon="0.37932">
        <ele>636</ele>
        <time>2021-05-31T17:49:46Z</time>
      </trkpt>
      <trkpt lat="42.96183" lon="0.37936">
        <ele>635</ele>
        <time>2021-05-31T17:50:09Z</time>
      </trkpt>
      <trkpt lat="42.96204" lon="0.37931">
        <ele>635</ele>
        <time>2021-05-31T17:50:14Z</time>
      </trkpt>
      <trkpt lat="42.96234" lon="0.37921">
        <ele>634</ele>
        <time>2021-05-31T17:50:21Z</time>
      </trkpt>
      <trkpt lat="42.96302" lon="0.37885">
        <ele>633</ele>
        <time>2021-05-31T17:50:38Z</time>
      </trkpt>
      <trkpt lat="42.96311" lon="0.37881">
        <ele>633</ele>
        <time>2021-05-31T17:50:40Z</time>
      </trkpt>
      <trkpt lat="42.96312" lon="0.3788">
        <ele>633</ele>
        <time>2021-05-31T17:50:41Z</time>
      </trkpt>
      <trkpt lat="42.96317" lon="0.37877">
        <ele>633</ele>
        <time>2021-05-31T17:50:42Z</time>
      </trkpt>
      <trkpt lat="42.96401" lon="0.37833">
        <ele>631</ele>
        <time>2021-05-31T17:51:03Z</time>
      </trkpt>
      <trkpt lat="42.96405" lon="0.37831">
        <ele>631</ele>
        <time>2021-05-31T17:51:04Z</time>
      </trkpt>
      <trkpt lat="42.96407" lon="0.3783">
        <ele>631</ele>
        <time>2021-05-31T17:51:05Z</time>
      </trkpt>
      <trkpt lat="42.96529" lon="0.37764">
        <ele>630</ele>
        <time>2021-05-31T17:51:35Z</time>
      </trkpt>
      <trkpt lat="42.96553" lon="0.3775">
        <ele>630</ele>
        <time>2021-05-31T17:51:41Z</time>
      </trkpt>
      <trkpt lat="42.96565" lon="0.37742">
        <ele>630</ele>
        <time>2021-05-31T17:51:44Z</time>
      </trkpt>
      <trkpt lat="42.9657" lon="0.37739">
        <ele>630</ele>
        <time>2021-05-31T17:51:46Z</time>
      </trkpt>
      <trkpt lat="42.9661" lon="0.37718">
        <ele>630</ele>
        <time>2021-05-31T17:51:56Z</time>
      </trkpt>
      <trkpt lat="42.96637" lon="0.37704">
        <ele>630</ele>
        <time>2021-05-31T17:52:02Z</time>
      </trkpt>
      <trkpt lat="42.96641" lon="0.37701">
        <ele>630</ele>
        <time>2021-05-31T17:52:03Z</time>
      </trkpt>
      <trkpt lat="42.96653" lon="0.37695">
        <ele>630</ele>
        <time>2021-05-31T17:52:06Z</time>
      </trkpt>
      <trkpt lat="42.96666" lon="0.37688">
        <ele>630</ele>
        <time>2021-05-31T17:52:10Z</time>
      </trkpt>
      <trkpt lat="42.9667" lon="0.37687">
        <ele>629</ele>
        <time>2021-05-31T17:52:11Z</time>
      </trkpt>
      <trkpt lat="42.96674" lon="0.37684">
        <ele>629</ele>
        <time>2021-05-31T17:52:12Z</time>
      </trkpt>
      <trkpt lat="42.96705" lon="0.37668">
        <ele>629</ele>
        <time>2021-05-31T17:52:19Z</time>
      </trkpt>
      <trkpt lat="42.96713" lon="0.37664">
        <ele>629</ele>
        <time>2021-05-31T17:52:21Z</time>
      </trkpt>
      <trkpt lat="42.96729" lon="0.37656">
        <ele>629</ele>
        <time>2021-05-31T17:52:25Z</time>
      </trkpt>
      <trkpt lat="42.96744" lon="0.37649">
        <ele>629</ele>
        <time>2021-05-31T17:52:29Z</time>
      </trkpt>
      <trkpt lat="42.96749" lon="0.37646">
        <ele>630</ele>
        <time>2021-05-31T17:52:30Z</time>
      </trkpt>
      <trkpt lat="42.96755" lon="0.37643">
        <ele>630</ele>
        <time>2021-05-31T17:52:32Z</time>
      </trkpt>
      <trkpt lat="42.96773" lon="0.37632">
        <ele>630</ele>
        <time>2021-05-31T17:52:37Z</time>
      </trkpt>
      <trkpt lat="42.96814" lon="0.37614">
        <ele>629</ele>
        <time>2021-05-31T17:52:47Z</time>
      </trkpt>
      <trkpt lat="42.9684" lon="0.37609">
        <ele>628</ele>
        <time>2021-05-31T17:52:53Z</time>
      </trkpt>
      <trkpt lat="42.96891" lon="0.37607">
        <ele>626</ele>
        <time>2021-05-31T17:53:05Z</time>
      </trkpt>
      <trkpt lat="42.96903" lon="0.37606">
        <ele>625</ele>
        <time>2021-05-31T17:53:07Z</time>
      </trkpt>
      <trkpt lat="42.96913" lon="0.37606">
        <ele>625</ele>
        <time>2021-05-31T17:53:10Z</time>
      </trkpt>
      <trkpt lat="42.96916" lon="0.37606">
        <ele>624</ele>
        <time>2021-05-31T17:53:10Z</time>
      </trkpt>
      <trkpt lat="42.96933" lon="0.37606">
        <ele>624</ele>
        <time>2021-05-31T17:53:14Z</time>
      </trkpt>
      <trkpt lat="42.96956" lon="0.37605">
        <ele>624</ele>
        <time>2021-05-31T17:53:20Z</time>
      </trkpt>
      <trkpt lat="42.96993" lon="0.37605">
        <ele>624</ele>
        <time>2021-05-31T17:53:28Z</time>
      </trkpt>
      <trkpt lat="42.97006" lon="0.37604">
        <ele>624</ele>
        <time>2021-05-31T17:53:31Z</time>
      </trkpt>
      <trkpt lat="42.97025" lon="0.37604">
        <ele>624</ele>
        <time>2021-05-31T17:53:36Z</time>
      </trkpt>
      <trkpt lat="42.97038" lon="0.37603">
        <ele>623</ele>
        <time>2021-05-31T17:53:39Z</time>
      </trkpt>
      <trkpt lat="42.97044" lon="0.37603">
        <ele>623</ele>
        <time>2021-05-31T17:53:40Z</time>
      </trkpt>
      <trkpt lat="42.97082" lon="0.37603">
        <ele>622</ele>
        <time>2021-05-31T17:53:49Z</time>
      </trkpt>
      <trkpt lat="42.97104" lon="0.37603">
        <ele>622</ele>
        <time>2021-05-31T17:53:54Z</time>
      </trkpt>
      <trkpt lat="42.97107" lon="0.37603">
        <ele>622</ele>
        <time>2021-05-31T17:53:55Z</time>
      </trkpt>
      <trkpt lat="42.97131" lon="0.37602">
        <ele>622</ele>
        <time>2021-05-31T17:54:01Z</time>
      </trkpt>
      <trkpt lat="42.9714" lon="0.37602">
        <ele>622</ele>
        <time>2021-05-31T17:54:03Z</time>
      </trkpt>
      <trkpt lat="42.97219" lon="0.376">
        <ele>621</ele>
        <time>2021-05-31T17:54:21Z</time>
      </trkpt>
      <trkpt lat="42.97228" lon="0.376">
        <ele>621</ele>
        <time>2021-05-31T17:54:23Z</time>
      </trkpt>
      <trkpt lat="42.97282" lon="0.37598">
        <ele>621</ele>
        <time>2021-05-31T17:54:36Z</time>
      </trkpt>
      <trkpt lat="42.97418" lon="0.37605">
        <ele>619</ele>
        <time>2021-05-31T17:55:08Z</time>
      </trkpt>
      <trkpt lat="42.97429" lon="0.37606">
        <ele>619</ele>
        <time>2021-05-31T17:55:10Z</time>
      </trkpt>
      <trkpt lat="42.97442" lon="0.37607">
        <ele>619</ele>
        <time>2021-05-31T17:55:13Z</time>
      </trkpt>
      <trkpt lat="42.97455" lon="0.37608">
        <ele>618</ele>
        <time>2021-05-31T17:55:16Z</time>
      </trkpt>
      <trkpt lat="42.97479" lon="0.37608">
        <ele>618</ele>
        <time>2021-05-31T17:55:22Z</time>
      </trkpt>
      <trkpt lat="42.97497" lon="0.37609">
        <ele>618</ele>
        <time>2021-05-31T17:55:26Z</time>
      </trkpt>
      <trkpt lat="42.97516" lon="0.37609">
        <ele>618</ele>
        <time>2021-05-31T17:55:31Z</time>
      </trkpt>
      <trkpt lat="42.97577" lon="0.37612">
        <ele>618</ele>
        <time>2021-05-31T17:55:45Z</time>
      </trkpt>
      <trkpt lat="42.97613" lon="0.37613">
        <ele>619</ele>
        <time>2021-05-31T17:55:53Z</time>
      </trkpt>
      <trkpt lat="42.97652" lon="0.37614">
        <ele>620</ele>
        <time>2021-05-31T17:56:02Z</time>
      </trkpt>
      <trkpt lat="42.97694" lon="0.37615">
        <ele>621</ele>
        <time>2021-05-31T17:56:12Z</time>
      </trkpt>
      <trkpt lat="42.97724" lon="0.37611">
        <ele>621</ele>
        <time>2021-05-31T17:56:19Z</time>
      </trkpt>
      <trkpt lat="42.97761" lon="0.37597">
        <ele>623</ele>
        <time>2021-05-31T17:56:28Z</time>
      </trkpt>
      <trkpt lat="42.97822" lon="0.37567">
        <ele>628</ele>
        <time>2021-05-31T17:56:43Z</time>
      </trkpt>
      <trkpt lat="42.97964" lon="0.37499">
        <ele>624</ele>
        <time>2021-05-31T17:57:19Z</time>
      </trkpt>
      <trkpt lat="42.98002" lon="0.37483">
        <ele>628</ele>
        <time>2021-05-31T17:57:28Z</time>
      </trkpt>
      <trkpt lat="42.9802" lon="0.37479">
        <ele>630</ele>
        <time>2021-05-31T17:57:32Z</time>
      </trkpt>
      <trkpt lat="42.9805" lon="0.37488">
        <ele>624</ele>
        <time>2021-05-31T17:57:39Z</time>
      </trkpt>
      <trkpt lat="42.98128" lon="0.37524">
        <ele>618</ele>
        <time>2021-05-31T17:57:58Z</time>
      </trkpt>
      <trkpt lat="42.98139" lon="0.37529">
        <ele>618</ele>
        <time>2021-05-31T17:58:01Z</time>
      </trkpt>
      <trkpt lat="42.98151" lon="0.37534">
        <ele>618</ele>
        <time>2021-05-31T17:58:04Z</time>
      </trkpt>
      <trkpt lat="42.98157" lon="0.37537">
        <ele>618</ele>
        <time>2021-05-31T17:58:06Z</time>
      </trkpt>
      <trkpt lat="42.98212" lon="0.37556">
        <ele>617</ele>
        <time>2021-05-31T17:58:19Z</time>
      </trkpt>
      <trkpt lat="42.98423" lon="0.37578">
        <ele>617</ele>
        <time>2021-05-31T17:59:08Z</time>
      </trkpt>
      <trkpt lat="42.98567" lon="0.37602">
        <ele>611</ele>
        <time>2021-05-31T17:59:42Z</time>
      </trkpt>
      <trkpt lat="42.98594" lon="0.37599">
        <ele>611</ele>
        <time>2021-05-31T17:59:48Z</time>
      </trkpt>
      <trkpt lat="42.98596" lon="0.37598">
        <ele>611</ele>
        <time>2021-05-31T17:59:49Z</time>
      </trkpt>
      <trkpt lat="42.9863" lon="0.37587">
        <ele>609</ele>
        <time>2021-05-31T17:59:57Z</time>
      </trkpt>
      <trkpt lat="42.98724" lon="0.3755">
        <ele>616</ele>
        <time>2021-05-31T18:00:20Z</time>
      </trkpt>
      <trkpt lat="42.98782" lon="0.37521">
        <ele>621</ele>
        <time>2021-05-31T18:00:34Z</time>
      </trkpt>
      <trkpt lat="42.98833" lon="0.37497">
        <ele>623</ele>
        <time>2021-05-31T18:00:47Z</time>
      </trkpt>
      <trkpt lat="42.98855" lon="0.3749">
        <ele>627</ele>
        <time>2021-05-31T18:00:52Z</time>
      </trkpt>
      <trkpt lat="42.98873" lon="0.37487">
        <ele>628</ele>
        <time>2021-05-31T18:00:56Z</time>
      </trkpt>
      <trkpt lat="42.98933" lon="0.37485">
        <ele>623</ele>
        <time>2021-05-31T18:01:11Z</time>
      </trkpt>
      <trkpt lat="42.99034" lon="0.37476">
        <ele>616</ele>
        <time>2021-05-31T18:01:34Z</time>
      </trkpt>
      <trkpt lat="42.99202" lon="0.37481">
        <ele>607</ele>
        <time>2021-05-31T18:02:13Z</time>
      </trkpt>
      <trkpt lat="42.99244" lon="0.37479">
        <ele>604</ele>
        <time>2021-05-31T18:02:23Z</time>
      </trkpt>
      <trkpt lat="42.99354" lon="0.37467">
        <ele>598</ele>
        <time>2021-05-31T18:02:49Z</time>
      </trkpt>
      <trkpt lat="42.99368" lon="0.37459">
        <ele>598</ele>
        <time>2021-05-31T18:02:53Z</time>
      </trkpt>
      <trkpt lat="42.99386" lon="0.37449">
        <ele>598</ele>
        <time>2021-05-31T18:02:57Z</time>
      </trkpt>
      <trkpt lat="42.994" lon="0.37439">
        <ele>598</ele>
        <time>2021-05-31T18:03:01Z</time>
      </trkpt>
      <trkpt lat="42.99434" lon="0.37414">
        <ele>599</ele>
        <time>2021-05-31T18:03:10Z</time>
      </trkpt>
      <trkpt lat="42.99458" lon="0.37395">
        <ele>600</ele>
        <time>2021-05-31T18:03:16Z</time>
      </trkpt>
      <trkpt lat="42.99469" lon="0.37385">
        <ele>601</ele>
        <time>2021-05-31T18:03:19Z</time>
      </trkpt>
      <trkpt lat="42.99481" lon="0.37372">
        <ele>602</ele>
        <time>2021-05-31T18:03:23Z</time>
      </trkpt>
      <trkpt lat="42.9953" lon="0.37298">
        <ele>611</ele>
        <time>2021-05-31T18:03:40Z</time>
      </trkpt>
      <trkpt lat="42.99539" lon="0.37288">
        <ele>612</ele>
        <time>2021-05-31T18:03:43Z</time>
      </trkpt>
      <trkpt lat="42.99547" lon="0.37281">
        <ele>611</ele>
        <time>2021-05-31T18:03:45Z</time>
      </trkpt>
      <trkpt lat="42.99569" lon="0.3727">
        <ele>609</ele>
        <time>2021-05-31T18:03:50Z</time>
      </trkpt>
      <trkpt lat="42.99581" lon="0.37267">
        <ele>607</ele>
        <time>2021-05-31T18:03:53Z</time>
      </trkpt>
      <trkpt lat="42.99598" lon="0.37271">
        <ele>606</ele>
        <time>2021-05-31T18:03:57Z</time>
      </trkpt>
      <trkpt lat="42.99666" lon="0.37299">
        <ele>603</ele>
        <time>2021-05-31T18:04:14Z</time>
      </trkpt>
      <trkpt lat="42.99683" lon="0.37308">
        <ele>603</ele>
        <time>2021-05-31T18:04:18Z</time>
      </trkpt>
      <trkpt lat="42.99717" lon="0.37337">
        <ele>602</ele>
        <time>2021-05-31T18:04:27Z</time>
      </trkpt>
      <trkpt lat="42.99745" lon="0.37354">
        <ele>603</ele>
        <time>2021-05-31T18:04:35Z</time>
      </trkpt>
      <trkpt lat="42.99759" lon="0.3736">
        <ele>603</ele>
        <time>2021-05-31T18:04:38Z</time>
      </trkpt>
      <trkpt lat="42.99805" lon="0.3737">
        <ele>605</ele>
        <time>2021-05-31T18:04:49Z</time>
      </trkpt>
      <trkpt lat="42.9984" lon="0.37378">
        <ele>607</ele>
        <time>2021-05-31T18:04:57Z</time>
      </trkpt>
      <trkpt lat="42.99852" lon="0.37384">
        <ele>608</ele>
        <time>2021-05-31T18:05:00Z</time>
      </trkpt>
      <trkpt lat="42.99911" lon="0.37421">
        <ele>606</ele>
        <time>2021-05-31T18:05:15Z</time>
      </trkpt>
      <trkpt lat="42.99973" lon="0.37465">
        <ele>611</ele>
        <time>2021-05-31T18:05:32Z</time>
      </trkpt>
      <trkpt lat="42.99978" lon="0.37469">
        <ele>611</ele>
        <time>2021-05-31T18:05:33Z</time>
      </trkpt>
      <trkpt lat="42.99991" lon="0.37479">
        <ele>610</ele>
        <time>2021-05-31T18:05:36Z</time>
      </trkpt>
      <trkpt lat="43.0008" lon="0.3757">
        <ele>604</ele>
        <time>2021-05-31T18:06:02Z</time>
      </trkpt>
      <trkpt lat="43.0008" lon="0.37579">
        <ele>602</ele>
        <time>2021-05-31T18:06:04Z</time>
      </trkpt>
      <trkpt lat="43.00124" lon="0.37637">
        <ele>601</ele>
        <time>2021-05-31T18:06:18Z</time>
      </trkpt>
      <trkpt lat="43.00131" lon="0.37654">
        <ele>600</ele>
        <time>2021-05-31T18:06:22Z</time>
      </trkpt>
      <trkpt lat="43.00132" lon="0.3766">
        <ele>600</ele>
        <time>2021-05-31T18:06:23Z</time>
      </trkpt>
      <trkpt lat="43.00162" lon="0.37673">
        <ele>601</ele>
        <time>2021-05-31T18:06:30Z</time>
      </trkpt>
      <trkpt lat="43.00203" lon="0.37704">
        <ele>605</ele>
        <time>2021-05-31T18:06:41Z</time>
      </trkpt>
      <trkpt lat="43.00213" lon="0.37704">
        <ele>607</ele>
        <time>2021-05-31T18:06:43Z</time>
      </trkpt>
      <trkpt lat="43.00226" lon="0.37719">
        <ele>607</ele>
        <time>2021-05-31T18:06:47Z</time>
      </trkpt>
      <trkpt lat="43.0023" lon="0.37726">
        <ele>607</ele>
        <time>2021-05-31T18:06:49Z</time>
      </trkpt>
      <trkpt lat="43.00238" lon="0.37737">
        <ele>606</ele>
        <time>2021-05-31T18:06:51Z</time>
      </trkpt>
      <trkpt lat="43.00248" lon="0.37754">
        <ele>604</ele>
        <time>2021-05-31T18:06:55Z</time>
      </trkpt>
      <trkpt lat="43.00265" lon="0.37789">
        <ele>602</ele>
        <time>2021-05-31T18:07:02Z</time>
      </trkpt>
      <trkpt lat="43.00281" lon="0.37817">
        <ele>601</ele>
        <time>2021-05-31T18:07:08Z</time>
      </trkpt>
      <trkpt lat="43.0029" lon="0.37826">
        <ele>601</ele>
        <time>2021-05-31T18:07:11Z</time>
      </trkpt>
      <trkpt lat="43.00309" lon="0.37842">
        <ele>601</ele>
        <time>2021-05-31T18:07:16Z</time>
      </trkpt>
      <trkpt lat="43.0032" lon="0.37848">
        <ele>601</ele>
        <time>2021-05-31T18:07:19Z</time>
      </trkpt>
      <trkpt lat="43.00333" lon="0.37855">
        <ele>602</ele>
        <time>2021-05-31T18:07:22Z</time>
      </trkpt>
      <trkpt lat="43.00376" lon="0.37861">
        <ele>603</ele>
        <time>2021-05-31T18:07:32Z</time>
      </trkpt>
      <trkpt lat="43.00419" lon="0.37864">
        <ele>605</ele>
        <time>2021-05-31T18:07:42Z</time>
      </trkpt>
      <trkpt lat="43.0043" lon="0.37863">
        <ele>604</ele>
        <time>2021-05-31T18:07:45Z</time>
      </trkpt>
      <trkpt lat="43.00454" lon="0.37858">
        <ele>604</ele>
        <time>2021-05-31T18:07:51Z</time>
      </trkpt>
      <trkpt lat="43.00486" lon="0.37841">
        <ele>605</ele>
        <time>2021-05-31T18:07:59Z</time>
      </trkpt>
      <trkpt lat="43.00565" lon="0.37779">
        <ele>610</ele>
        <time>2021-05-31T18:08:20Z</time>
      </trkpt>
      <trkpt lat="43.00618" lon="0.37764">
        <ele>608</ele>
        <time>2021-05-31T18:08:32Z</time>
      </trkpt>
      <trkpt lat="43.00632" lon="0.37758">
        <ele>608</ele>
        <time>2021-05-31T18:08:36Z</time>
      </trkpt>
      <trkpt lat="43.00916" lon="0.37476">
        <ele>617</ele>
        <time>2021-05-31T18:09:58Z</time>
      </trkpt>
      <trkpt lat="43.00919" lon="0.37474">
        <ele>617</ele>
        <time>2021-05-31T18:09:59Z</time>
      </trkpt>
      <trkpt lat="43.00935" lon="0.37462">
        <ele>618</ele>
        <time>2021-05-31T18:10:03Z</time>
      </trkpt>
      <trkpt lat="43.00958" lon="0.37451">
        <ele>619</ele>
        <time>2021-05-31T18:10:09Z</time>
      </trkpt>
      <trkpt lat="43.01003" lon="0.37435">
        <ele>618</ele>
        <time>2021-05-31T18:10:19Z</time>
      </trkpt>
      <trkpt lat="43.01015" lon="0.37428">
        <ele>618</ele>
        <time>2021-05-31T18:10:23Z</time>
      </trkpt>
      <trkpt lat="43.01033" lon="0.37415">
        <ele>617</ele>
        <time>2021-05-31T18:10:27Z</time>
      </trkpt>
      <trkpt lat="43.01046" lon="0.374">
        <ele>617</ele>
        <time>2021-05-31T18:10:31Z</time>
      </trkpt>
      <trkpt lat="43.01074" lon="0.37363">
        <ele>617</ele>
        <time>2021-05-31T18:10:40Z</time>
      </trkpt>
      <trkpt lat="43.01093" lon="0.37337">
        <ele>617</ele>
        <time>2021-05-31T18:10:47Z</time>
      </trkpt>
      <trkpt lat="43.0113" lon="0.37297">
        <ele>618</ele>
        <time>2021-05-31T18:10:58Z</time>
      </trkpt>
      <trkpt lat="43.01143" lon="0.37289">
        <ele>619</ele>
        <time>2021-05-31T18:11:01Z</time>
      </trkpt>
      <trkpt lat="43.01155" lon="0.37283">
        <ele>620</ele>
        <time>2021-05-31T18:11:04Z</time>
      </trkpt>
      <trkpt lat="43.01167" lon="0.37279">
        <ele>620</ele>
        <time>2021-05-31T18:11:07Z</time>
      </trkpt>
      <trkpt lat="43.01188" lon="0.37277">
        <ele>622</ele>
        <time>2021-05-31T18:11:12Z</time>
      </trkpt>
      <trkpt lat="43.0123" lon="0.37274">
        <ele>626</ele>
        <time>2021-05-31T18:11:22Z</time>
      </trkpt>
      <trkpt lat="43.01252" lon="0.37277">
        <ele>628</ele>
        <time>2021-05-31T18:11:27Z</time>
      </trkpt>
      <trkpt lat="43.01278" lon="0.37284">
        <ele>628</ele>
        <time>2021-05-31T18:11:33Z</time>
      </trkpt>
      <trkpt lat="43.01299" lon="0.37294">
        <ele>628</ele>
        <time>2021-05-31T18:11:38Z</time>
      </trkpt>
      <trkpt lat="43.01303" lon="0.37296">
        <ele>628</ele>
        <time>2021-05-31T18:11:39Z</time>
      </trkpt>
      <trkpt lat="43.01315" lon="0.37299">
        <ele>628</ele>
        <time>2021-05-31T18:11:42Z</time>
      </trkpt>
      <trkpt lat="43.01336" lon="0.37301">
        <ele>628</ele>
        <time>2021-05-31T18:11:47Z</time>
      </trkpt>
      <trkpt lat="43.01366" lon="0.37297">
        <ele>629</ele>
        <time>2021-05-31T18:11:54Z</time>
      </trkpt>
      <trkpt lat="43.01402" lon="0.37286">
        <ele>630</ele>
        <time>2021-05-31T18:12:03Z</time>
      </trkpt>
      <trkpt lat="43.01432" lon="0.37268">
        <ele>629</ele>
        <time>2021-05-31T18:12:10Z</time>
      </trkpt>
      <trkpt lat="43.0145" lon="0.37257">
        <ele>630</ele>
        <time>2021-05-31T18:12:15Z</time>
      </trkpt>
      <trkpt lat="43.01454" lon="0.37256">
        <ele>630</ele>
        <time>2021-05-31T18:12:16Z</time>
      </trkpt>
      <trkpt lat="43.01474" lon="0.37255">
        <ele>630</ele>
        <time>2021-05-31T18:12:20Z</time>
      </trkpt>
      <trkpt lat="43.01484" lon="0.37255">
        <ele>630</ele>
        <time>2021-05-31T18:12:23Z</time>
      </trkpt>
      <trkpt lat="43.01499" lon="0.37256">
        <ele>630</ele>
        <time>2021-05-31T18:12:26Z</time>
      </trkpt>
      <trkpt lat="43.0151" lon="0.37258">
        <ele>631</ele>
        <time>2021-05-31T18:12:29Z</time>
      </trkpt>
      <trkpt lat="43.01529" lon="0.37269">
        <ele>630</ele>
        <time>2021-05-31T18:12:34Z</time>
      </trkpt>
      <trkpt lat="43.01565" lon="0.37303">
        <ele>628</ele>
        <time>2021-05-31T18:12:44Z</time>
      </trkpt>
      <trkpt lat="43.01578" lon="0.3731">
        <ele>627</ele>
        <time>2021-05-31T18:12:47Z</time>
      </trkpt>
      <trkpt lat="43.01594" lon="0.37316">
        <ele>628</ele>
        <time>2021-05-31T18:12:51Z</time>
      </trkpt>
      <trkpt lat="43.01602" lon="0.3732">
        <ele>628</ele>
        <time>2021-05-31T18:12:53Z</time>
      </trkpt>
      <trkpt lat="43.01629" lon="0.37342">
        <ele>628</ele>
        <time>2021-05-31T18:13:00Z</time>
      </trkpt>
      <trkpt lat="43.01663" lon="0.37376">
        <ele>626</ele>
        <time>2021-05-31T18:13:10Z</time>
      </trkpt>
      <trkpt lat="43.01675" lon="0.37383">
        <ele>626</ele>
        <time>2021-05-31T18:13:13Z</time>
      </trkpt>
      <trkpt lat="43.0169" lon="0.3739">
        <ele>625</ele>
        <time>2021-05-31T18:13:17Z</time>
      </trkpt>
      <trkpt lat="43.017" lon="0.37393">
        <ele>625</ele>
        <time>2021-05-31T18:13:19Z</time>
      </trkpt>
      <trkpt lat="43.01735" lon="0.37404">
        <ele>626</ele>
        <time>2021-05-31T18:13:28Z</time>
      </trkpt>
      <trkpt lat="43.01768" lon="0.37409">
        <ele>625</ele>
        <time>2021-05-31T18:13:35Z</time>
      </trkpt>
      <trkpt lat="43.01795" lon="0.37402">
        <ele>625</ele>
        <time>2021-05-31T18:13:42Z</time>
      </trkpt>
      <trkpt lat="43.01811" lon="0.37394">
        <ele>625</ele>
        <time>2021-05-31T18:13:46Z</time>
      </trkpt>
      <trkpt lat="43.01828" lon="0.3738">
        <ele>626</ele>
        <time>2021-05-31T18:13:50Z</time>
      </trkpt>
      <trkpt lat="43.01841" lon="0.37366">
        <ele>626</ele>
        <time>2021-05-31T18:13:54Z</time>
      </trkpt>
      <trkpt lat="43.01853" lon="0.37347">
        <ele>627</ele>
        <time>2021-05-31T18:13:59Z</time>
      </trkpt>
      <trkpt lat="43.01868" lon="0.37314">
        <ele>628</ele>
        <time>2021-05-31T18:14:05Z</time>
      </trkpt>
      <trkpt lat="43.01885" lon="0.37285">
        <ele>628</ele>
        <time>2021-05-31T18:14:12Z</time>
      </trkpt>
      <trkpt lat="43.01904" lon="0.37271">
        <ele>626</ele>
        <time>2021-05-31T18:14:17Z</time>
      </trkpt>
      <trkpt lat="43.01913" lon="0.37267">
        <ele>626</ele>
        <time>2021-05-31T18:14:19Z</time>
      </trkpt>
      <trkpt lat="43.01917" lon="0.37265">
        <ele>625</ele>
        <time>2021-05-31T18:14:20Z</time>
      </trkpt>
      <trkpt lat="43.01922" lon="0.37281">
        <ele>624</ele>
        <time>2021-05-31T18:14:23Z</time>
      </trkpt>
      <trkpt lat="43.01924" lon="0.37293">
        <ele>624</ele>
        <time>2021-05-31T18:14:25Z</time>
      </trkpt>
      <trkpt lat="43.01935" lon="0.37347">
        <ele>620</ele>
        <time>2021-05-31T18:14:34Z</time>
      </trkpt>
      <trkpt lat="43.01937" lon="0.37352">
        <ele>619</ele>
        <time>2021-05-31T18:14:35Z</time>
      </trkpt>
      <trkpt lat="43.01941" lon="0.37355">
        <ele>619</ele>
        <time>2021-05-31T18:14:37Z</time>
      </trkpt>
      <trkpt lat="43.01999" lon="0.37363">
        <ele>616</ele>
        <time>2021-05-31T18:14:50Z</time>
      </trkpt>
      <trkpt lat="43.02023" lon="0.37371">
        <ele>615</ele>
        <time>2021-05-31T18:14:56Z</time>
      </trkpt>
      <trkpt lat="43.02034" lon="0.37379">
        <ele>615</ele>
        <time>2021-05-31T18:14:59Z</time>
      </trkpt>
      <trkpt lat="43.02069" lon="0.37416">
        <ele>613</ele>
        <time>2021-05-31T18:15:09Z</time>
      </trkpt>
      <trkpt lat="43.02075" lon="0.37417">
        <ele>613</ele>
        <time>2021-05-31T18:15:11Z</time>
      </trkpt>
      <trkpt lat="43.02109" lon="0.37496">
        <ele>609</ele>
        <time>2021-05-31T18:15:26Z</time>
      </trkpt>
      <trkpt lat="43.02101" lon="0.37536">
        <ele>608</ele>
        <time>2021-05-31T18:15:33Z</time>
      </trkpt>
      <trkpt lat="43.021" lon="0.37559">
        <ele>608</ele>
        <time>2021-05-31T18:15:37Z</time>
      </trkpt>
      <trkpt lat="43.02104" lon="0.37595">
        <ele>606</ele>
        <time>2021-05-31T18:15:43Z</time>
      </trkpt>
      <trkpt lat="43.0211" lon="0.37607">
        <ele>605</ele>
        <time>2021-05-31T18:15:46Z</time>
      </trkpt>
      <trkpt lat="43.02118" lon="0.37608">
        <ele>604</ele>
        <time>2021-05-31T18:15:48Z</time>
      </trkpt>
      <trkpt lat="43.0219" lon="0.37576">
        <ele>604</ele>
        <time>2021-05-31T18:16:05Z</time>
      </trkpt>
      <trkpt lat="43.02207" lon="0.37571">
        <ele>605</ele>
        <time>2021-05-31T18:16:10Z</time>
      </trkpt>
      <trkpt lat="43.02225" lon="0.37569">
        <ele>605</ele>
        <time>2021-05-31T18:16:14Z</time>
      </trkpt>
      <trkpt lat="43.02347" lon="0.37587">
        <ele>603</ele>
        <time>2021-05-31T18:16:42Z</time>
      </trkpt>
      <trkpt lat="43.02376" lon="0.37596">
        <ele>604</ele>
        <time>2021-05-31T18:16:49Z</time>
      </trkpt>
      <trkpt lat="43.02401" lon="0.37617">
        <ele>604</ele>
        <time>2021-05-31T18:16:56Z</time>
      </trkpt>
      <trkpt lat="43.02477" lon="0.37694">
        <ele>601</ele>
        <time>2021-05-31T18:17:18Z</time>
      </trkpt>
      <trkpt lat="43.02493" lon="0.37706">
        <ele>601</ele>
        <time>2021-05-31T18:17:23Z</time>
      </trkpt>
      <trkpt lat="43.02503" lon="0.37708">
        <ele>600</ele>
        <time>2021-05-31T18:17:25Z</time>
      </trkpt>
      <trkpt lat="43.02548" lon="0.37713">
        <ele>598</ele>
        <time>2021-05-31T18:17:35Z</time>
      </trkpt>
      <trkpt lat="43.02566" lon="0.37722">
        <ele>597</ele>
        <time>2021-05-31T18:17:40Z</time>
      </trkpt>
      <trkpt lat="43.02585" lon="0.37747">
        <ele>594</ele>
        <time>2021-05-31T18:17:46Z</time>
      </trkpt>
      <trkpt lat="43.0259" lon="0.37759">
        <ele>592</ele>
        <time>2021-05-31T18:17:48Z</time>
      </trkpt>
      <trkpt lat="43.02605" lon="0.37773">
        <ele>589</ele>
        <time>2021-05-31T18:17:53Z</time>
      </trkpt>
      <trkpt lat="43.02611" lon="0.37774">
        <ele>588</ele>
        <time>2021-05-31T18:17:54Z</time>
      </trkpt>
      <trkpt lat="43.02662" lon="0.37765">
        <ele>584</ele>
        <time>2021-05-31T18:18:06Z</time>
      </trkpt>
      <trkpt lat="43.02721" lon="0.37773">
        <ele>576</ele>
        <time>2021-05-31T18:18:20Z</time>
      </trkpt>
      <trkpt lat="43.02754" lon="0.37774">
        <ele>573</ele>
        <time>2021-05-31T18:18:28Z</time>
      </trkpt>
      <trkpt lat="43.02777" lon="0.3777">
        <ele>571</ele>
        <time>2021-05-31T18:18:33Z</time>
      </trkpt>
      <trkpt lat="43.02819" lon="0.37755">
        <ele>569</ele>
        <time>2021-05-31T18:18:43Z</time>
      </trkpt>
      <trkpt lat="43.0293" lon="0.37705">
        <ele>567</ele>
        <time>2021-05-31T18:19:11Z</time>
      </trkpt>
      <trkpt lat="43.02981" lon="0.3769">
        <ele>566</ele>
        <time>2021-05-31T18:19:23Z</time>
      </trkpt>
      <trkpt lat="43.03027" lon="0.37668">
        <ele>565</ele>
        <time>2021-05-31T18:19:34Z</time>
      </trkpt>
      <trkpt lat="43.03124" lon="0.3765">
        <ele>564</ele>
        <time>2021-05-31T18:19:57Z</time>
      </trkpt>
      <trkpt lat="43.0315" lon="0.37642">
        <ele>564</ele>
        <time>2021-05-31T18:20:03Z</time>
      </trkpt>
      <trkpt lat="43.03226" lon="0.37606">
        <ele>563</ele>
        <time>2021-05-31T18:20:22Z</time>
      </trkpt>
      <trkpt lat="43.03284" lon="0.37576">
        <ele>562</ele>
        <time>2021-05-31T18:20:36Z</time>
      </trkpt>
      <trkpt lat="43.03318" lon="0.37561">
        <ele>562</ele>
        <time>2021-05-31T18:20:45Z</time>
      </trkpt>
      <trkpt lat="43.03327" lon="0.37559">
        <ele>562</ele>
        <time>2021-05-31T18:20:47Z</time>
      </trkpt>
      <trkpt lat="43.03357" lon="0.37567">
        <ele>561</ele>
        <time>2021-05-31T18:20:54Z</time>
      </trkpt>
      <trkpt lat="43.03385" lon="0.37577">
        <ele>560</ele>
        <time>2021-05-31T18:21:01Z</time>
      </trkpt>
      <trkpt lat="43.03403" lon="0.37587">
        <ele>560</ele>
        <time>2021-05-31T18:21:05Z</time>
      </trkpt>
      <trkpt lat="43.03417" lon="0.37602">
        <ele>560</ele>
        <time>2021-05-31T18:21:09Z</time>
      </trkpt>
      <trkpt lat="43.03442" lon="0.37639">
        <ele>561</ele>
        <time>2021-05-31T18:21:18Z</time>
      </trkpt>
      <trkpt lat="43.03451" lon="0.37648">
        <ele>561</ele>
        <time>2021-05-31T18:21:21Z</time>
      </trkpt>
      <trkpt lat="43.03471" lon="0.3766">
        <ele>561</ele>
        <time>2021-05-31T18:21:26Z</time>
      </trkpt>
      <trkpt lat="43.03553" lon="0.37675">
        <ele>560</ele>
        <time>2021-05-31T18:21:45Z</time>
      </trkpt>
      <trkpt lat="43.03647" lon="0.37703">
        <ele>558</ele>
        <time>2021-05-31T18:22:08Z</time>
      </trkpt>
      <trkpt lat="43.03669" lon="0.37708">
        <ele>557</ele>
        <time>2021-05-31T18:22:13Z</time>
      </trkpt>
      <trkpt lat="43.03689" lon="0.37709">
        <ele>557</ele>
        <time>2021-05-31T18:22:17Z</time>
      </trkpt>
      <trkpt lat="43.03766" lon="0.37703">
        <ele>557</ele>
        <time>2021-05-31T18:22:35Z</time>
      </trkpt>
      <trkpt lat="43.03795" lon="0.3769">
        <ele>557</ele>
        <time>2021-05-31T18:22:43Z</time>
      </trkpt>
      <trkpt lat="43.03832" lon="0.37665">
        <ele>557</ele>
        <time>2021-05-31T18:22:52Z</time>
      </trkpt>
      <trkpt lat="43.03852" lon="0.37658">
        <ele>556</ele>
        <time>2021-05-31T18:22:57Z</time>
      </trkpt>
      <trkpt lat="43.0386" lon="0.37659">
        <ele>556</ele>
        <time>2021-05-31T18:22:59Z</time>
      </trkpt>
      <trkpt lat="43.03867" lon="0.37664">
        <ele>556</ele>
        <time>2021-05-31T18:23:01Z</time>
      </trkpt>
      <trkpt lat="43.03901" lon="0.37709">
        <ele>556</ele>
        <time>2021-05-31T18:23:12Z</time>
      </trkpt>
      <trkpt lat="43.0397" lon="0.37788">
        <ele>554</ele>
        <time>2021-05-31T18:23:33Z</time>
      </trkpt>
      <trkpt lat="43.03996" lon="0.37808">
        <ele>553</ele>
        <time>2021-05-31T18:23:40Z</time>
      </trkpt>
      <trkpt lat="43.04035" lon="0.37822">
        <ele>552</ele>
        <time>2021-05-31T18:23:49Z</time>
      </trkpt>
      <trkpt lat="43.04062" lon="0.37835">
        <ele>551</ele>
        <time>2021-05-31T18:23:56Z</time>
      </trkpt>
      <trkpt lat="43.04156" lon="0.37912">
        <ele>552</ele>
        <time>2021-05-31T18:24:21Z</time>
      </trkpt>
      <trkpt lat="43.04182" lon="0.3793">
        <ele>554</ele>
        <time>2021-05-31T18:24:28Z</time>
      </trkpt>
      <trkpt lat="43.04213" lon="0.37946">
        <ele>555</ele>
        <time>2021-05-31T18:24:36Z</time>
      </trkpt>
      <trkpt lat="43.04247" lon="0.37953">
        <ele>553</ele>
        <time>2021-05-31T18:24:44Z</time>
      </trkpt>
      <trkpt lat="43.04249" lon="0.37946">
        <ele>553</ele>
        <time>2021-05-31T18:24:45Z</time>
      </trkpt>
      <trkpt lat="43.04255" lon="0.37944">
        <ele>553</ele>
        <time>2021-05-31T18:24:47Z</time>
      </trkpt>
      <trkpt lat="43.04323" lon="0.37958">
        <ele>552</ele>
        <time>2021-05-31T18:25:03Z</time>
      </trkpt>
      <trkpt lat="43.04398" lon="0.37963">
        <ele>551</ele>
        <time>2021-05-31T18:25:20Z</time>
      </trkpt>
      <trkpt lat="43.04424" lon="0.37971">
        <ele>550</ele>
        <time>2021-05-31T18:25:27Z</time>
      </trkpt>
      <trkpt lat="43.04438" lon="0.37973">
        <ele>550</ele>
        <time>2021-05-31T18:25:30Z</time>
      </trkpt>
      <trkpt lat="43.04511" lon="0.37978">
        <ele>549</ele>
        <time>2021-05-31T18:25:47Z</time>
      </trkpt>
      <trkpt lat="43.0453" lon="0.37977">
        <ele>549</ele>
        <time>2021-05-31T18:25:51Z</time>
      </trkpt>
      <trkpt lat="43.0455" lon="0.37972">
        <ele>548</ele>
        <time>2021-05-31T18:25:56Z</time>
      </trkpt>
      <trkpt lat="43.04591" lon="0.37951">
        <ele>548</ele>
        <time>2021-05-31T18:26:06Z</time>
      </trkpt>
      <trkpt lat="43.04667" lon="0.37907">
        <ele>551</ele>
        <time>2021-05-31T18:26:26Z</time>
      </trkpt>
      <trkpt lat="43.04731" lon="0.37858">
        <ele>551</ele>
        <time>2021-05-31T18:26:43Z</time>
      </trkpt>
      <trkpt lat="43.04757" lon="0.37852">
        <ele>550</ele>
        <time>2021-05-31T18:26:49Z</time>
      </trkpt>
      <trkpt lat="43.04792" lon="0.37846">
        <ele>549</ele>
        <time>2021-05-31T18:26:57Z</time>
      </trkpt>
      <trkpt lat="43.0484" lon="0.37849">
        <ele>547</ele>
        <time>2021-05-31T18:27:08Z</time>
      </trkpt>
      <trkpt lat="43.04846" lon="0.37851">
        <ele>547</ele>
        <time>2021-05-31T18:27:10Z</time>
      </trkpt>
      <trkpt lat="43.04851" lon="0.37856">
        <ele>547</ele>
        <time>2021-05-31T18:27:11Z</time>
      </trkpt>
      <trkpt lat="43.0486" lon="0.37875">
        <ele>547</ele>
        <time>2021-05-31T18:27:15Z</time>
      </trkpt>
      <trkpt lat="43.04865" lon="0.37881">
        <ele>547</ele>
        <time>2021-05-31T18:27:17Z</time>
      </trkpt>
      <trkpt lat="43.0491" lon="0.37902">
        <ele>547</ele>
        <time>2021-05-31T18:27:28Z</time>
      </trkpt>
      <trkpt lat="43.04926" lon="0.37918">
        <ele>547</ele>
        <time>2021-05-31T18:27:32Z</time>
      </trkpt>
      <trkpt lat="43.04974" lon="0.37992">
        <ele>547</ele>
        <time>2021-05-31T18:27:49Z</time>
      </trkpt>
      <trkpt lat="43.04998" lon="0.38038">
        <ele>546</ele>
        <time>2021-05-31T18:27:59Z</time>
      </trkpt>
      <trkpt lat="43.05012" lon="0.38071">
        <ele>546</ele>
        <time>2021-05-31T18:28:05Z</time>
      </trkpt>
      <trkpt lat="43.05024" lon="0.3809">
        <ele>546</ele>
        <time>2021-05-31T18:28:10Z</time>
      </trkpt>
      <trkpt lat="43.0503" lon="0.38097">
        <ele>546</ele>
        <time>2021-05-31T18:28:12Z</time>
      </trkpt>
      <trkpt lat="43.05038" lon="0.38101">
        <ele>546</ele>
        <time>2021-05-31T18:28:14Z</time>
      </trkpt>
      <trkpt lat="43.05148" lon="0.38136">
        <ele>543</ele>
        <time>2021-05-31T18:28:40Z</time>
      </trkpt>
      <trkpt lat="43.05198" lon="0.38158">
        <ele>542</ele>
        <time>2021-05-31T18:28:52Z</time>
      </trkpt>
      <trkpt lat="43.05271" lon="0.382">
        <ele>541</ele>
        <time>2021-05-31T18:29:11Z</time>
      </trkpt>
      <trkpt lat="43.05306" lon="0.38224">
        <ele>540</ele>
        <time>2021-05-31T18:29:20Z</time>
      </trkpt>
      <trkpt lat="43.05385" lon="0.3829">
        <ele>539</ele>
        <time>2021-05-31T18:29:41Z</time>
      </trkpt>
      <trkpt lat="43.05417" lon="0.38314">
        <ele>538</ele>
        <time>2021-05-31T18:29:50Z</time>
      </trkpt>
      <trkpt lat="43.05432" lon="0.38321">
        <ele>538</ele>
        <time>2021-05-31T18:29:54Z</time>
      </trkpt>
      <trkpt lat="43.05456" lon="0.38325">
        <ele>538</ele>
        <time>2021-05-31T18:29:59Z</time>
      </trkpt>
      <trkpt lat="43.05471" lon="0.38325">
        <ele>539</ele>
        <time>2021-05-31T18:30:03Z</time>
      </trkpt>
      <trkpt lat="43.05495" lon="0.3832">
        <ele>539</ele>
        <time>2021-05-31T18:30:09Z</time>
      </trkpt>
      <trkpt lat="43.05573" lon="0.38281">
        <ele>538</ele>
        <time>2021-05-31T18:30:28Z</time>
      </trkpt>
      <trkpt lat="43.05603" lon="0.38274">
        <ele>538</ele>
        <time>2021-05-31T18:30:35Z</time>
      </trkpt>
      <trkpt lat="43.05674" lon="0.38278">
        <ele>538</ele>
        <time>2021-05-31T18:30:52Z</time>
      </trkpt>
      <trkpt lat="43.05743" lon="0.38277">
        <ele>537</ele>
        <time>2021-05-31T18:31:08Z</time>
      </trkpt>
      <trkpt lat="43.05846" lon="0.3829">
        <ele>537</ele>
        <time>2021-05-31T18:31:32Z</time>
      </trkpt>
      <trkpt lat="43.05866" lon="0.38287">
        <ele>537</ele>
        <time>2021-05-31T18:31:37Z</time>
      </trkpt>
      <trkpt lat="43.05953" lon="0.3824">
        <ele>535</ele>
        <time>2021-05-31T18:31:58Z</time>
      </trkpt>
      <trkpt lat="43.06029" lon="0.38217">
        <ele>533</ele>
        <time>2021-05-31T18:32:17Z</time>
      </trkpt>
      <trkpt lat="43.0606" lon="0.382">
        <ele>533</ele>
        <time>2021-05-31T18:32:24Z</time>
      </trkpt>
      <trkpt lat="43.06078" lon="0.38192">
        <ele>533</ele>
        <time>2021-05-31T18:32:29Z</time>
      </trkpt>
      <trkpt lat="43.06123" lon="0.3818">
        <ele>533</ele>
        <time>2021-05-31T18:32:40Z</time>
      </trkpt>
      <trkpt lat="43.06137" lon="0.38174">
        <ele>533</ele>
        <time>2021-05-31T18:32:43Z</time>
      </trkpt>
      <trkpt lat="43.06153" lon="0.38165">
        <ele>534</ele>
        <time>2021-05-31T18:32:47Z</time>
      </trkpt>
      <trkpt lat="43.06195" lon="0.38127">
        <ele>535</ele>
        <time>2021-05-31T18:32:59Z</time>
      </trkpt>
      <trkpt lat="43.06224" lon="0.38116">
        <ele>537</ele>
        <time>2021-05-31T18:33:06Z</time>
      </trkpt>
      <trkpt lat="43.06258" lon="0.38115">
        <ele>538</ele>
        <time>2021-05-31T18:33:14Z</time>
      </trkpt>
      <trkpt lat="43.06293" lon="0.38119">
        <ele>539</ele>
        <time>2021-05-31T18:33:22Z</time>
      </trkpt>
      <trkpt lat="43.0633" lon="0.38137">
        <ele>538</ele>
        <time>2021-05-31T18:33:31Z</time>
      </trkpt>
      <trkpt lat="43.06357" lon="0.38158">
        <ele>537</ele>
        <time>2021-05-31T18:33:38Z</time>
      </trkpt>
      <trkpt lat="43.06398" lon="0.38196">
        <ele>538</ele>
        <time>2021-05-31T18:33:50Z</time>
      </trkpt>
      <trkpt lat="43.0642" lon="0.38205">
        <ele>538</ele>
        <time>2021-05-31T18:33:55Z</time>
      </trkpt>
      <trkpt lat="43.06437" lon="0.38206">
        <ele>538</ele>
        <time>2021-05-31T18:33:59Z</time>
      </trkpt>
      <trkpt lat="43.06458" lon="0.38203">
        <ele>539</ele>
        <time>2021-05-31T18:34:04Z</time>
      </trkpt>
      <trkpt lat="43.06512" lon="0.38187">
        <ele>540</ele>
        <time>2021-05-31T18:34:17Z</time>
      </trkpt>
      <trkpt lat="43.06549" lon="0.38183">
        <ele>540</ele>
        <time>2021-05-31T18:34:26Z</time>
      </trkpt>
      <trkpt lat="43.06637" lon="0.38181">
        <ele>542</ele>
        <time>2021-05-31T18:34:46Z</time>
      </trkpt>
      <trkpt lat="43.06667" lon="0.38185">
        <ele>543</ele>
        <time>2021-05-31T18:34:53Z</time>
      </trkpt>
      <trkpt lat="43.06723" lon="0.38205">
        <ele>545</ele>
        <time>2021-05-31T18:35:07Z</time>
      </trkpt>
      <trkpt lat="43.06737" lon="0.38208">
        <ele>546</ele>
        <time>2021-05-31T18:35:10Z</time>
      </trkpt>
      <trkpt lat="43.06753" lon="0.38209">
        <ele>547</ele>
        <time>2021-05-31T18:35:14Z</time>
      </trkpt>
      <trkpt lat="43.06838" lon="0.38203">
        <ele>549</ele>
        <time>2021-05-31T18:35:34Z</time>
      </trkpt>
      <trkpt lat="43.06863" lon="0.38206">
        <ele>549</ele>
        <time>2021-05-31T18:35:40Z</time>
      </trkpt>
      <trkpt lat="43.06886" lon="0.38211">
        <ele>549</ele>
        <time>2021-05-31T18:35:45Z</time>
      </trkpt>
      <trkpt lat="43.06921" lon="0.38225">
        <ele>549</ele>
        <time>2021-05-31T18:35:54Z</time>
      </trkpt>
      <trkpt lat="43.06994" lon="0.38266">
        <ele>547</ele>
        <time>2021-05-31T18:36:12Z</time>
      </trkpt>
      <trkpt lat="43.07075" lon="0.38322">
        <ele>548</ele>
        <time>2021-05-31T18:36:33Z</time>
      </trkpt>
      <trkpt lat="43.07092" lon="0.38331">
        <ele>549</ele>
        <time>2021-05-31T18:36:37Z</time>
      </trkpt>
      <trkpt lat="43.07113" lon="0.38339">
        <ele>550</ele>
        <time>2021-05-31T18:36:43Z</time>
      </trkpt>
      <trkpt lat="43.07144" lon="0.38347">
        <ele>551</ele>
        <time>2021-05-31T18:36:50Z</time>
      </trkpt>
      <trkpt lat="43.07168" lon="0.38358">
        <ele>553</ele>
        <time>2021-05-31T18:36:56Z</time>
      </trkpt>
      <trkpt lat="43.07191" lon="0.38374">
        <ele>556</ele>
        <time>2021-05-31T18:37:02Z</time>
      </trkpt>
      <trkpt lat="43.07247" lon="0.38431">
        <ele>560</ele>
        <time>2021-05-31T18:37:18Z</time>
      </trkpt>
      <trkpt lat="43.07252" lon="0.38438">
        <ele>559</ele>
        <time>2021-05-31T18:37:20Z</time>
      </trkpt>
      <trkpt lat="43.0727" lon="0.38476">
        <ele>557</ele>
        <time>2021-05-31T18:37:28Z</time>
      </trkpt>
      <trkpt lat="43.07345" lon="0.38563">
        <ele>554</ele>
        <time>2021-05-31T18:37:51Z</time>
      </trkpt>
      <trkpt lat="43.07372" lon="0.38582">
        <ele>553</ele>
        <time>2021-05-31T18:37:58Z</time>
      </trkpt>
      <trkpt lat="43.07427" lon="0.38605">
        <ele>555</ele>
        <time>2021-05-31T18:38:11Z</time>
      </trkpt>
      <trkpt lat="43.07504" lon="0.38691">
        <ele>555</ele>
        <time>2021-05-31T18:38:34Z</time>
      </trkpt>
      <trkpt lat="43.07528" lon="0.38724">
        <ele>556</ele>
        <time>2021-05-31T18:38:42Z</time>
      </trkpt>
      <trkpt lat="43.07555" lon="0.38782">
        <ele>558</ele>
        <time>2021-05-31T18:38:54Z</time>
      </trkpt>
      <trkpt lat="43.07569" lon="0.38835">
        <ele>558</ele>
        <time>2021-05-31T18:39:04Z</time>
      </trkpt>
      <trkpt lat="43.07589" lon="0.38927">
        <ele>555</ele>
        <time>2021-05-31T18:39:20Z</time>
      </trkpt>
      <trkpt lat="43.07595" lon="0.38945">
        <ele>555</ele>
        <time>2021-05-31T18:39:23Z</time>
      </trkpt>
      <trkpt lat="43.0761" lon="0.38976">
        <ele>555</ele>
        <time>2021-05-31T18:39:30Z</time>
      </trkpt>
      <trkpt lat="43.07629" lon="0.38994">
        <ele>557</ele>
        <time>2021-05-31T18:39:35Z</time>
      </trkpt>
      <trkpt lat="43.07706" lon="0.39041">
        <ele>565</ele>
        <time>2021-05-31T18:39:55Z</time>
      </trkpt>
      <trkpt lat="43.07821" lon="0.39094">
        <ele>575</ele>
        <time>2021-05-31T18:40:23Z</time>
      </trkpt>
      <trkpt lat="43.07837" lon="0.39096">
        <ele>576</ele>
        <time>2021-05-31T18:40:27Z</time>
      </trkpt>
      <trkpt lat="43.0784" lon="0.39107">
        <ele>575</ele>
        <time>2021-05-31T18:40:29Z</time>
      </trkpt>
      <trkpt lat="43.07957" lon="0.39346">
        <ele>570</ele>
        <time>2021-05-31T18:41:18Z</time>
      </trkpt>
      <trkpt lat="43.08011" lon="0.39473">
        <ele>568</ele>
        <time>2021-05-31T18:41:43Z</time>
      </trkpt>
      <trkpt lat="43.08032" lon="0.39529">
        <ele>567</ele>
        <time>2021-05-31T18:41:54Z</time>
      </trkpt>
      <trkpt lat="43.08041" lon="0.39562">
        <ele>567</ele>
        <time>2021-05-31T18:42:00Z</time>
      </trkpt>
      <trkpt lat="43.08056" lon="0.39617">
        <ele>567</ele>
        <time>2021-05-31T18:42:10Z</time>
      </trkpt>
      <trkpt lat="43.08092" lon="0.39916">
        <ele>569</ele>
        <time>2021-05-31T18:43:01Z</time>
      </trkpt>
      <trkpt lat="43.0811" lon="0.40017">
        <ele>568</ele>
        <time>2021-05-31T18:43:19Z</time>
      </trkpt>
      <trkpt lat="43.08142" lon="0.40179">
        <ele>569</ele>
        <time>2021-05-31T18:43:48Z</time>
      </trkpt>
      <trkpt lat="43.08168" lon="0.40329">
        <ele>565</ele>
        <time>2021-05-31T18:44:14Z</time>
      </trkpt>
      <trkpt lat="43.08177" lon="0.40357">
        <ele>565</ele>
        <time>2021-05-31T18:44:19Z</time>
      </trkpt>
      <trkpt lat="43.08192" lon="0.40396">
        <ele>564</ele>
        <time>2021-05-31T18:44:27Z</time>
      </trkpt>
      <trkpt lat="43.08208" lon="0.4039">
        <ele>565</ele>
        <time>2021-05-31T18:44:31Z</time>
      </trkpt>
      <trkpt lat="43.08237" lon="0.40378">
        <ele>565</ele>
        <time>2021-05-31T18:44:38Z</time>
      </trkpt>
      <trkpt lat="43.08245" lon="0.40375">
        <ele>565</ele>
        <time>2021-05-31T18:44:40Z</time>
      </trkpt>
      <trkpt lat="43.08246" lon="0.40375">
        <ele>565</ele>
        <time>2021-05-31T18:44:40Z</time>
      </trkpt>
      <trkpt lat="43.08301" lon="0.40357">
        <ele>565</ele>
        <time>2021-05-31T18:44:53Z</time>
      </trkpt>
      <trkpt lat="43.08338" lon="0.40346">
        <ele>565</ele>
        <time>2021-05-31T18:45:02Z</time>
      </trkpt>
      <trkpt lat="43.08363" lon="0.40344">
        <ele>565</ele>
        <time>2021-05-31T18:45:08Z</time>
      </trkpt>
      <trkpt lat="43.08376" lon="0.40347">
        <ele>565</ele>
        <time>2021-05-31T18:45:11Z</time>
      </trkpt>
      <trkpt lat="43.08388" lon="0.40357">
        <ele>565</ele>
        <time>2021-05-31T18:45:14Z</time>
      </trkpt>
      <trkpt lat="43.08389" lon="0.40358">
        <ele>565</ele>
        <time>2021-05-31T18:45:14Z</time>
      </trkpt>
      <trkpt lat="43.08427" lon="0.40421">
        <ele>565</ele>
        <time>2021-05-31T18:45:28Z</time>
      </trkpt>
      <trkpt lat="43.08515" lon="0.40582">
        <ele>565</ele>
        <time>2021-05-31T18:46:03Z</time>
      </trkpt>
      <trkpt lat="43.08533" lon="0.40615">
        <ele>565</ele>
        <time>2021-05-31T18:46:10Z</time>
      </trkpt>
      <trkpt lat="43.08577" lon="0.40695">
        <ele>564</ele>
        <time>2021-05-31T18:46:27Z</time>
      </trkpt>
      <trkpt lat="43.08675" lon="0.4087">
        <ele>565</ele>
        <time>2021-05-31T18:47:04Z</time>
      </trkpt>
      <trkpt lat="43.08698" lon="0.40908">
        <ele>564</ele>
        <time>2021-05-31T18:47:13Z</time>
      </trkpt>
      <trkpt lat="43.08758" lon="0.40948">
        <ele>565</ele>
        <time>2021-05-31T18:47:28Z</time>
      </trkpt>
      <trkpt lat="43.08857" lon="0.41015">
        <ele>563</ele>
        <time>2021-05-31T18:47:54Z</time>
      </trkpt>
      <trkpt lat="43.08858" lon="0.41015">
        <ele>563</ele>
        <time>2021-05-31T18:47:54Z</time>
      </trkpt>
      <trkpt lat="43.08867" lon="0.4102">
        <ele>562</ele>
        <time>2021-05-31T18:47:57Z</time>
      </trkpt>
      <trkpt lat="43.08915" lon="0.41035">
        <ele>561</ele>
        <time>2021-05-31T18:48:08Z</time>
      </trkpt>
      <trkpt lat="43.0897" lon="0.41048">
        <ele>559</ele>
        <time>2021-05-31T18:48:21Z</time>
      </trkpt>
      <trkpt lat="43.09139" lon="0.41089">
        <ele>557</ele>
        <time>2021-05-31T18:49:01Z</time>
      </trkpt>
      <trkpt lat="43.09151" lon="0.41089">
        <ele>557</ele>
        <time>2021-05-31T18:49:04Z</time>
      </trkpt>
      <trkpt lat="43.09165" lon="0.41086">
        <ele>557</ele>
        <time>2021-05-31T18:49:07Z</time>
      </trkpt>
      <trkpt lat="43.09174" lon="0.41082">
        <ele>557</ele>
        <time>2021-05-31T18:49:10Z</time>
      </trkpt>
      <trkpt lat="43.09217" lon="0.41032">
        <ele>559</ele>
        <time>2021-05-31T18:49:23Z</time>
      </trkpt>
      <trkpt lat="43.09243" lon="0.41009">
        <ele>560</ele>
        <time>2021-05-31T18:49:30Z</time>
      </trkpt>
      <trkpt lat="43.09276" lon="0.40986">
        <ele>563</ele>
        <time>2021-05-31T18:49:39Z</time>
      </trkpt>
      <trkpt lat="43.09293" lon="0.40976">
        <ele>566</ele>
        <time>2021-05-31T18:49:43Z</time>
      </trkpt>
      <trkpt lat="43.09308" lon="0.40974">
        <ele>567</ele>
        <time>2021-05-31T18:49:47Z</time>
      </trkpt>
      <trkpt lat="43.09324" lon="0.40974">
        <ele>569</ele>
        <time>2021-05-31T18:49:50Z</time>
      </trkpt>
      <trkpt lat="43.09338" lon="0.40981">
        <ele>571</ele>
        <time>2021-05-31T18:49:54Z</time>
      </trkpt>
      <trkpt lat="43.09352" lon="0.40996">
        <ele>573</ele>
        <time>2021-05-31T18:49:58Z</time>
      </trkpt>
      <trkpt lat="43.09396" lon="0.41059">
        <ele>576</ele>
        <time>2021-05-31T18:50:13Z</time>
      </trkpt>
      <trkpt lat="43.09444" lon="0.41144">
        <ele>578</ele>
        <time>2021-05-31T18:50:31Z</time>
      </trkpt>
      <trkpt lat="43.09464" lon="0.41169">
        <ele>580</ele>
        <time>2021-05-31T18:50:37Z</time>
      </trkpt>
      <trkpt lat="43.09489" lon="0.41185">
        <ele>584</ele>
        <time>2021-05-31T18:50:44Z</time>
      </trkpt>
      <trkpt lat="43.09554" lon="0.41196">
        <ele>592</ele>
        <time>2021-05-31T18:50:59Z</time>
      </trkpt>
      <trkpt lat="43.09578" lon="0.41204">
        <ele>594</ele>
        <time>2021-05-31T18:51:05Z</time>
      </trkpt>
      <trkpt lat="43.09586" lon="0.41209">
        <ele>595</ele>
        <time>2021-05-31T18:51:07Z</time>
      </trkpt>
      <trkpt lat="43.09608" lon="0.41228">
        <ele>597</ele>
        <time>2021-05-31T18:51:13Z</time>
      </trkpt>
      <trkpt lat="43.09622" lon="0.41251">
        <ele>598</ele>
        <time>2021-05-31T18:51:18Z</time>
      </trkpt>
      <trkpt lat="43.09633" lon="0.41278">
        <ele>601</ele>
        <time>2021-05-31T18:51:23Z</time>
      </trkpt>
      <trkpt lat="43.09642" lon="0.41316">
        <ele>602</ele>
        <time>2021-05-31T18:51:30Z</time>
      </trkpt>
      <trkpt lat="43.09653" lon="0.41419">
        <ele>605</ele>
        <time>2021-05-31T18:51:48Z</time>
      </trkpt>
      <trkpt lat="43.09656" lon="0.4143">
        <ele>606</ele>
        <time>2021-05-31T18:51:50Z</time>
      </trkpt>
      <trkpt lat="43.09667" lon="0.41455">
        <ele>607</ele>
        <time>2021-05-31T18:51:55Z</time>
      </trkpt>
      <trkpt lat="43.09678" lon="0.41468">
        <ele>608</ele>
        <time>2021-05-31T18:51:58Z</time>
      </trkpt>
      <trkpt lat="43.09711" lon="0.41482">
        <ele>611</ele>
        <time>2021-05-31T18:52:06Z</time>
      </trkpt>
      <trkpt lat="43.09731" lon="0.41486">
        <ele>614</ele>
        <time>2021-05-31T18:52:11Z</time>
      </trkpt>
      <trkpt lat="43.09828" lon="0.41466">
        <ele>616</ele>
        <time>2021-05-31T18:52:34Z</time>
      </trkpt>
      <trkpt lat="43.0984" lon="0.41461">
        <ele>617</ele>
        <time>2021-05-31T18:52:37Z</time>
      </trkpt>
      <trkpt lat="43.09865" lon="0.41441">
        <ele>617</ele>
        <time>2021-05-31T18:52:44Z</time>
      </trkpt>
      <trkpt lat="43.09875" lon="0.41435">
        <ele>617</ele>
        <time>2021-05-31T18:52:46Z</time>
      </trkpt>
      <trkpt lat="43.09967" lon="0.41387">
        <ele>621</ele>
        <time>2021-05-31T18:53:09Z</time>
      </trkpt>
      <trkpt lat="43.10049" lon="0.41667">
        <ele>616</ele>
        <time>2021-05-31T18:54:01Z</time>
      </trkpt>
      <trkpt lat="43.10059" lon="0.41699">
        <ele>615</ele>
        <time>2021-05-31T18:54:07Z</time>
      </trkpt>
      <trkpt lat="43.10065" lon="0.41713">
        <ele>615</ele>
        <time>2021-05-31T18:54:09Z</time>
      </trkpt>
      <trkpt lat="43.10081" lon="0.41734">
        <ele>615</ele>
        <time>2021-05-31T18:54:15Z</time>
      </trkpt>
      <trkpt lat="43.10087" lon="0.41745">
        <ele>615</ele>
        <time>2021-05-31T18:54:17Z</time>
      </trkpt>
      <trkpt lat="43.10147" lon="0.41892">
        <ele>615</ele>
        <time>2021-05-31T18:54:46Z</time>
      </trkpt>
      <trkpt lat="43.10157" lon="0.41932">
        <ele>616</ele>
        <time>2021-05-31T18:54:53Z</time>
      </trkpt>
      <trkpt lat="43.10158" lon="0.41997">
        <ele>616</ele>
        <time>2021-05-31T18:55:04Z</time>
      </trkpt>
      <trkpt lat="43.10162" lon="0.42038">
        <ele>615</ele>
        <time>2021-05-31T18:55:11Z</time>
      </trkpt>
      <trkpt lat="43.10261" lon="0.42729">
        <ele>611</ele>
        <time>2021-05-31T18:57:11Z</time>
      </trkpt>
      <trkpt lat="43.10266" lon="0.42766">
        <ele>610</ele>
        <time>2021-05-31T18:57:17Z</time>
      </trkpt>
      <trkpt lat="43.1027" lon="0.42852">
        <ele>608</ele>
        <time>2021-05-31T18:57:32Z</time>
      </trkpt>
      <trkpt lat="43.1028" lon="0.4329">
        <ele>604</ele>
        <time>2021-05-31T18:58:47Z</time>
      </trkpt>
      <trkpt lat="43.1028" lon="0.4335">
        <ele>603</ele>
        <time>2021-05-31T18:58:57Z</time>
      </trkpt>
      <trkpt lat="43.10278" lon="0.43416">
        <ele>603</ele>
        <time>2021-05-31T18:59:08Z</time>
      </trkpt>
      <trkpt lat="43.10263" lon="0.4363">
        <ele>600</ele>
        <time>2021-05-31T18:59:45Z</time>
      </trkpt>
      <trkpt lat="43.10259" lon="0.43679">
        <ele>599</ele>
        <time>2021-05-31T18:59:53Z</time>
      </trkpt>
      <trkpt lat="43.10254" lon="0.43716">
        <ele>598</ele>
        <time>2021-05-31T19:00:00Z</time>
      </trkpt>
      <trkpt lat="43.10175" lon="0.44151">
        <ele>587</ele>
        <time>2021-05-31T19:01:16Z</time>
      </trkpt>
      <trkpt lat="43.10242" lon="0.44141">
        <ele>589</ele>
        <time>2021-05-31T19:01:32Z</time>
      </trkpt>
      <trkpt lat="43.10402" lon="0.44109">
        <ele>593</ele>
        <time>2021-05-31T19:02:10Z</time>
      </trkpt>
      <trkpt lat="43.10591" lon="0.44068">
        <ele>598</ele>
        <time>2021-05-31T19:02:54Z</time>
      </trkpt>
      <trkpt lat="43.10666" lon="0.44053">
        <ele>599</ele>
        <time>2021-05-31T19:03:12Z</time>
      </trkpt>
      <trkpt lat="43.10695" lon="0.44048">
        <ele>599</ele>
        <time>2021-05-31T19:03:19Z</time>
      </trkpt>
      <trkpt lat="43.10726" lon="0.44043">
        <ele>598</ele>
        <time>2021-05-31T19:03:26Z</time>
      </trkpt>
      <trkpt lat="43.10759" lon="0.44029">
        <ele>597</ele>
        <time>2021-05-31T19:03:34Z</time>
      </trkpt>
      <trkpt lat="43.10785" lon="0.44014">
        <ele>597</ele>
        <time>2021-05-31T19:03:41Z</time>
      </trkpt>
      <trkpt lat="43.10899" lon="0.43931">
        <ele>594</ele>
        <time>2021-05-31T19:04:11Z</time>
      </trkpt>
      <trkpt lat="43.10973" lon="0.43876">
        <ele>591</ele>
        <time>2021-05-31T19:04:31Z</time>
      </trkpt>
      <trkpt lat="43.10997" lon="0.43858">
        <ele>590</ele>
        <time>2021-05-31T19:04:37Z</time>
      </trkpt>
      <trkpt lat="43.11021" lon="0.43842">
        <ele>589</ele>
        <time>2021-05-31T19:04:43Z</time>
      </trkpt>
      <trkpt lat="43.11028" lon="0.43836">
        <ele>589</ele>
        <time>2021-05-31T19:04:45Z</time>
      </trkpt>
      <trkpt lat="43.11045" lon="0.43828">
        <ele>589</ele>
        <time>2021-05-31T19:04:50Z</time>
      </trkpt>
      <trkpt lat="43.11057" lon="0.43825">
        <ele>589</ele>
        <time>2021-05-31T19:04:52Z</time>
      </trkpt>
      <trkpt lat="43.11067" lon="0.43825">
        <ele>589</ele>
        <time>2021-05-31T19:04:55Z</time>
      </trkpt>
      <trkpt lat="43.11073" lon="0.43828">
        <ele>589</ele>
        <time>2021-05-31T19:04:56Z</time>
      </trkpt>
      <trkpt lat="43.11081" lon="0.43837">
        <ele>589</ele>
        <time>2021-05-31T19:04:59Z</time>
      </trkpt>
      <trkpt lat="43.1109" lon="0.43853">
        <ele>589</ele>
        <time>2021-05-31T19:05:02Z</time>
      </trkpt>
      <trkpt lat="43.11097" lon="0.43862">
        <ele>589</ele>
        <time>2021-05-31T19:05:04Z</time>
      </trkpt>
      <trkpt lat="43.11105" lon="0.43841">
        <ele>588</ele>
        <time>2021-05-31T19:05:08Z</time>
      </trkpt>
      <trkpt lat="43.11123" lon="0.43807">
        <ele>585</ele>
        <time>2021-05-31T19:05:15Z</time>
      </trkpt>
      <trkpt lat="43.11143" lon="0.43782">
        <ele>583</ele>
        <time>2021-05-31T19:05:22Z</time>
      </trkpt>
      <trkpt lat="43.1116" lon="0.43765">
        <ele>581</ele>
        <time>2021-05-31T19:05:27Z</time>
      </trkpt>
      <trkpt lat="43.11196" lon="0.43736">
        <ele>580</ele>
        <time>2021-05-31T19:05:36Z</time>
      </trkpt>
      <trkpt lat="43.11209" lon="0.43725">
        <ele>580</ele>
        <time>2021-05-31T19:05:40Z</time>
      </trkpt>
      <trkpt lat="43.11215" lon="0.4372">
        <ele>580</ele>
        <time>2021-05-31T19:05:42Z</time>
      </trkpt>
      <trkpt lat="43.11258" lon="0.43685">
        <ele>579</ele>
        <time>2021-05-31T19:05:53Z</time>
      </trkpt>
      <trkpt lat="43.11424" lon="0.43553">
        <ele>587</ele>
        <time>2021-05-31T19:06:38Z</time>
      </trkpt>
      <trkpt lat="43.11556" lon="0.43446">
        <ele>592</ele>
        <time>2021-05-31T19:07:14Z</time>
      </trkpt>
      <trkpt lat="43.11582" lon="0.43423">
        <ele>591</ele>
        <time>2021-05-31T19:07:21Z</time>
      </trkpt>
      <trkpt lat="43.116" lon="0.43404">
        <ele>591</ele>
        <time>2021-05-31T19:07:27Z</time>
      </trkpt>
      <trkpt lat="43.11603" lon="0.43402">
        <ele>591</ele>
        <time>2021-05-31T19:07:27Z</time>
      </trkpt>
      <trkpt lat="43.11606" lon="0.43415">
        <ele>590</ele>
        <time>2021-05-31T19:07:30Z</time>
      </trkpt>
      <trkpt lat="43.11618" lon="0.4344">
        <ele>591</ele>
        <time>2021-05-31T19:07:35Z</time>
      </trkpt>
      <trkpt lat="43.11632" lon="0.43427">
        <ele>590</ele>
        <time>2021-05-31T19:07:39Z</time>
      </trkpt>
      <trkpt lat="43.11638" lon="0.43417">
        <ele>590</ele>
        <time>2021-05-31T19:07:41Z</time>
      </trkpt>
      <trkpt lat="43.11651" lon="0.43383">
        <ele>590</ele>
        <time>2021-05-31T19:07:47Z</time>
      </trkpt>
      <trkpt lat="43.11654" lon="0.43378">
        <ele>590</ele>
        <time>2021-05-31T19:07:49Z</time>
      </trkpt>
      <trkpt lat="43.11785" lon="0.43321">
        <ele>594</ele>
        <time>2021-05-31T19:08:21Z</time>
      </trkpt>
      <trkpt lat="43.11851" lon="0.43273">
        <ele>593</ele>
        <time>2021-05-31T19:08:38Z</time>
      </trkpt>
      <trkpt lat="43.12107" lon="0.43101">
        <ele>593</ele>
        <time>2021-05-31T19:09:45Z</time>
      </trkpt>
      <trkpt lat="43.12757" lon="0.438">
        <ele>586</ele>
        <time>2021-05-31T19:12:58Z</time>
      </trkpt>
      <trkpt lat="43.13073" lon="0.44143">
        <ele>578</ele>
        <time>2021-05-31T19:14:32Z</time>
      </trkpt>
      <trkpt lat="43.13124" lon="0.44194">
        <ele>577</ele>
        <time>2021-05-31T19:14:47Z</time>
      </trkpt>
      <trkpt lat="43.13757" lon="0.449">
        <ele>569</ele>
        <time>2021-05-31T19:17:57Z</time>
      </trkpt>
      <trkpt lat="43.14257" lon="0.45454">
        <ele>564</ele>
        <time>2021-05-31T19:20:27Z</time>
      </trkpt>
      <trkpt lat="43.14345" lon="0.4554">
        <ele>562</ele>
        <time>2021-05-31T19:20:53Z</time>
      </trkpt>
      <trkpt lat="43.14428" lon="0.45604">
        <ele>565</ele>
        <time>2021-05-31T19:21:15Z</time>
      </trkpt>
      <trkpt lat="43.14448" lon="0.45625">
        <ele>565</ele>
        <time>2021-05-31T19:21:21Z</time>
      </trkpt>
      <trkpt lat="43.14462" lon="0.45649">
        <ele>565</ele>
        <time>2021-05-31T19:21:26Z</time>
      </trkpt>
      <trkpt lat="43.14474" lon="0.45646">
        <ele>564</ele>
        <time>2021-05-31T19:21:29Z</time>
      </trkpt>
      <trkpt lat="43.14483" lon="0.45649">
        <ele>564</ele>
        <time>2021-05-31T19:21:31Z</time>
      </trkpt>
      <trkpt lat="43.14904" lon="0.45968">
        <ele>559</ele>
        <time>2021-05-31T19:23:23Z</time>
      </trkpt>
      <trkpt lat="43.15358" lon="0.46393">
        <ele>557</ele>
        <time>2021-05-31T19:25:32Z</time>
      </trkpt>
      <trkpt lat="43.158" lon="0.468">
        <ele>551</ele>
        <time>2021-05-31T19:27:36Z</time>
      </trkpt>
      <trkpt lat="43.15832" lon="0.46815">
        <ele>550</ele>
        <time>2021-05-31T19:27:44Z</time>
      </trkpt>
      <trkpt lat="43.16057" lon="0.46875">
        <ele>547</ele>
        <time>2021-05-31T19:28:37Z</time>
      </trkpt>
      <trkpt lat="43.16107" lon="0.46892">
        <ele>547</ele>
        <time>2021-05-31T19:28:49Z</time>
      </trkpt>
      <trkpt lat="43.1616" lon="0.46917">
        <ele>546</ele>
        <time>2021-05-31T19:29:03Z</time>
      </trkpt>
      <trkpt lat="43.16203" lon="0.46941">
        <ele>546</ele>
        <time>2021-05-31T19:29:13Z</time>
      </trkpt>
      <trkpt lat="43.17003" lon="0.47442">
        <ele>534</ele>
        <time>2021-05-31T19:32:39Z</time>
      </trkpt>
      <trkpt lat="43.17128" lon="0.47502">
        <ele>534</ele>
        <time>2021-05-31T19:33:10Z</time>
      </trkpt>
      <trkpt lat="43.17592" lon="0.47711">
        <ele>531</ele>
        <time>2021-05-31T19:35:04Z</time>
      </trkpt>
      <trkpt lat="43.17665" lon="0.47746">
        <ele>530</ele>
        <time>2021-05-31T19:35:22Z</time>
      </trkpt>
      <trkpt lat="43.17741" lon="0.47787">
        <ele>528</ele>
        <time>2021-05-31T19:35:41Z</time>
      </trkpt>
      <trkpt lat="43.17768" lon="0.47804">
        <ele>529</ele>
        <time>2021-05-31T19:35:48Z</time>
      </trkpt>
      <trkpt lat="43.17826" lon="0.4785">
        <ele>531</ele>
        <time>2021-05-31T19:36:03Z</time>
      </trkpt>
      <trkpt lat="43.18075" lon="0.48101">
        <ele>527</ele>
        <time>2021-05-31T19:37:16Z</time>
      </trkpt>
      <trkpt lat="43.18368" lon="0.48391">
        <ele>523</ele>
        <time>2021-05-31T19:38:40Z</time>
      </trkpt>
      <trkpt lat="43.18736" lon="0.48847">
        <ele>521</ele>
        <time>2021-05-31T19:40:36Z</time>
      </trkpt>
      <trkpt lat="43.18778" lon="0.48898">
        <ele>520</ele>
        <time>2021-05-31T19:40:49Z</time>
      </trkpt>
      <trkpt lat="43.18942" lon="0.49102">
        <ele>520</ele>
        <time>2021-05-31T19:41:41Z</time>
      </trkpt>
      <trkpt lat="43.19345" lon="0.4964">
        <ele>513</ele>
        <time>2021-05-31T19:43:52Z</time>
      </trkpt>
      <trkpt lat="43.19751" lon="0.50306">
        <ele>506</ele>
        <time>2021-05-31T19:46:20Z</time>
      </trkpt>
      <trkpt lat="43.19826" lon="0.50419">
        <ele>509</ele>
        <time>2021-05-31T19:46:46Z</time>
      </trkpt>
      <trkpt lat="43.19959" lon="0.50593">
        <ele>509</ele>
        <time>2021-05-31T19:47:29Z</time>
      </trkpt>
      <trkpt lat="43.20091" lon="0.50737">
        <ele>509</ele>
        <time>2021-05-31T19:48:08Z</time>
      </trkpt>
      <trkpt lat="43.20367" lon="0.51082">
        <ele>505</ele>
        <time>2021-05-31T19:49:35Z</time>
      </trkpt>
      <trkpt lat="43.20435" lon="0.51169">
        <ele>501</ele>
        <time>2021-05-31T19:49:57Z</time>
      </trkpt>
      <trkpt lat="43.2051" lon="0.51293">
        <ele>501</ele>
        <time>2021-05-31T19:50:24Z</time>
      </trkpt>
      <trkpt lat="43.20537" lon="0.51327">
        <ele>501</ele>
        <time>2021-05-31T19:50:33Z</time>
      </trkpt>
      <trkpt lat="43.20565" lon="0.51353">
        <ele>501</ele>
        <time>2021-05-31T19:50:41Z</time>
      </trkpt>
      <trkpt lat="43.20625" lon="0.51404">
        <ele>502</ele>
        <time>2021-05-31T19:50:57Z</time>
      </trkpt>
      <trkpt lat="43.20743" lon="0.5149">
        <ele>498</ele>
        <time>2021-05-31T19:51:29Z</time>
      </trkpt>
      <trkpt lat="43.20827" lon="0.51532">
        <ele>497</ele>
        <time>2021-05-31T19:51:49Z</time>
      </trkpt>
      <trkpt lat="43.21308" lon="0.51789">
        <ele>492</ele>
        <time>2021-05-31T19:53:50Z</time>
      </trkpt>
      <trkpt lat="43.21541" lon="0.51891">
        <ele>495</ele>
        <time>2021-05-31T19:54:47Z</time>
      </trkpt>
      <trkpt lat="43.21636" lon="0.5193">
        <ele>497</ele>
        <time>2021-05-31T19:55:10Z</time>
      </trkpt>
      <trkpt lat="43.2166" lon="0.51942">
        <ele>497</ele>
        <time>2021-05-31T19:55:16Z</time>
      </trkpt>
      <trkpt lat="43.21678" lon="0.51954">
        <ele>497</ele>
        <time>2021-05-31T19:55:21Z</time>
      </trkpt>
      <trkpt lat="43.21704" lon="0.51974">
        <ele>497</ele>
        <time>2021-05-31T19:55:28Z</time>
      </trkpt>
      <trkpt lat="43.21948" lon="0.52195">
        <ele>497</ele>
        <time>2021-05-31T19:56:36Z</time>
      </trkpt>
      <trkpt lat="43.21994" lon="0.52239">
        <ele>497</ele>
        <time>2021-05-31T19:56:49Z</time>
      </trkpt>
      <trkpt lat="43.22186" lon="0.52436">
        <ele>493</ele>
        <time>2021-05-31T19:57:45Z</time>
      </trkpt>
      <trkpt lat="43.22375" lon="0.52616">
        <ele>494</ele>
        <time>2021-05-31T19:58:39Z</time>
      </trkpt>
      <trkpt lat="43.22507" lon="0.52748">
        <ele>487</ele>
        <time>2021-05-31T19:59:17Z</time>
      </trkpt>
      <trkpt lat="43.22522" lon="0.52769">
        <ele>486</ele>
        <time>2021-05-31T19:59:22Z</time>
      </trkpt>
      <trkpt lat="43.22575" lon="0.52852">
        <ele>487</ele>
        <time>2021-05-31T19:59:41Z</time>
      </trkpt>
      <trkpt lat="43.22585" lon="0.52874">
        <ele>487</ele>
        <time>2021-05-31T19:59:45Z</time>
      </trkpt>
      <trkpt lat="43.22591" lon="0.52893">
        <ele>486</ele>
        <time>2021-05-31T19:59:49Z</time>
      </trkpt>
      <trkpt lat="43.22602" lon="0.52942">
        <ele>486</ele>
        <time>2021-05-31T19:59:58Z</time>
      </trkpt>
      <trkpt lat="43.22609" lon="0.52984">
        <ele>486</ele>
        <time>2021-05-31T20:00:05Z</time>
      </trkpt>
      <trkpt lat="43.22612" lon="0.5302">
        <ele>486</ele>
        <time>2021-05-31T20:00:11Z</time>
      </trkpt>
      <trkpt lat="43.22617" lon="0.53203">
        <ele>485</ele>
        <time>2021-05-31T20:00:42Z</time>
      </trkpt>
      <trkpt lat="43.2262" lon="0.53238">
        <ele>486</ele>
        <time>2021-05-31T20:00:48Z</time>
      </trkpt>
      <trkpt lat="43.22631" lon="0.53302">
        <ele>487</ele>
        <time>2021-05-31T20:00:59Z</time>
      </trkpt>
      <trkpt lat="43.2264" lon="0.53348">
        <ele>488</ele>
        <time>2021-05-31T20:01:07Z</time>
      </trkpt>
      <trkpt lat="43.22647" lon="0.53367">
        <ele>487</ele>
        <time>2021-05-31T20:01:11Z</time>
      </trkpt>
      <trkpt lat="43.22673" lon="0.53418">
        <ele>485</ele>
        <time>2021-05-31T20:01:22Z</time>
      </trkpt>
      <trkpt lat="43.22677" lon="0.53432">
        <ele>483</ele>
        <time>2021-05-31T20:01:24Z</time>
      </trkpt>
      <trkpt lat="43.22677" lon="0.53449">
        <ele>481</ele>
        <time>2021-05-31T20:01:27Z</time>
      </trkpt>
      <trkpt lat="43.22673" lon="0.5351">
        <ele>476</ele>
        <time>2021-05-31T20:01:38Z</time>
      </trkpt>
      <trkpt lat="43.22674" lon="0.53527">
        <ele>475</ele>
        <time>2021-05-31T20:01:40Z</time>
      </trkpt>
      <trkpt lat="43.22678" lon="0.5354">
        <ele>474</ele>
        <time>2021-05-31T20:01:43Z</time>
      </trkpt>
      <trkpt lat="43.22684" lon="0.53555">
        <ele>473</ele>
        <time>2021-05-31T20:01:46Z</time>
      </trkpt>
      <trkpt lat="43.22693" lon="0.53569">
        <ele>472</ele>
        <time>2021-05-31T20:01:49Z</time>
      </trkpt>
      <trkpt lat="43.22719" lon="0.53604">
        <ele>471</ele>
        <time>2021-05-31T20:01:57Z</time>
      </trkpt>
      <trkpt lat="43.22735" lon="0.53622">
        <ele>472</ele>
        <time>2021-05-31T20:02:02Z</time>
      </trkpt>
      <trkpt lat="43.22746" lon="0.53632">
        <ele>472</ele>
        <time>2021-05-31T20:02:05Z</time>
      </trkpt>
      <trkpt lat="43.22771" lon="0.53647">
        <ele>472</ele>
        <time>2021-05-31T20:02:12Z</time>
      </trkpt>
      <trkpt lat="43.22864" lon="0.53654">
        <ele>471</ele>
        <time>2021-05-31T20:02:43Z</time>
      </trkpt>
      <trkpt lat="43.22894" lon="0.53662">
        <ele>473</ele>
        <time>2021-05-31T20:02:50Z</time>
      </trkpt>
      <trkpt lat="43.22956" lon="0.53698">
        <ele>473</ele>
        <time>2021-05-31T20:03:06Z</time>
      </trkpt>
      <trkpt lat="43.22971" lon="0.53708">
        <ele>474</ele>
        <time>2021-05-31T20:03:10Z</time>
      </trkpt>
      <trkpt lat="43.22983" lon="0.53721">
        <ele>474</ele>
        <time>2021-05-31T20:03:14Z</time>
      </trkpt>
      <trkpt lat="43.22993" lon="0.53736">
        <ele>474</ele>
        <time>2021-05-31T20:03:17Z</time>
      </trkpt>
      <trkpt lat="43.23" lon="0.53751">
        <ele>474</ele>
        <time>2021-05-31T20:03:20Z</time>
      </trkpt>
      <trkpt lat="43.23008" lon="0.53777">
        <ele>473</ele>
        <time>2021-05-31T20:03:25Z</time>
      </trkpt>
      <trkpt lat="43.23029" lon="0.53886">
        <ele>468</ele>
        <time>2021-05-31T20:03:44Z</time>
      </trkpt>
      <trkpt lat="43.23036" lon="0.53909">
        <ele>467</ele>
        <time>2021-05-31T20:03:48Z</time>
      </trkpt>
      <trkpt lat="43.23044" lon="0.53927">
        <ele>467</ele>
        <time>2021-05-31T20:03:52Z</time>
      </trkpt>
      <trkpt lat="43.23053" lon="0.53944">
        <ele>467</ele>
        <time>2021-05-31T20:03:56Z</time>
      </trkpt>
      <trkpt lat="43.23098" lon="0.54012">
        <ele>470</ele>
        <time>2021-05-31T20:04:11Z</time>
      </trkpt>
      <trkpt lat="43.23153" lon="0.54099">
        <ele>472</ele>
        <time>2021-05-31T20:04:31Z</time>
      </trkpt>
      <trkpt lat="43.23197" lon="0.54183">
        <ele>468</ele>
        <time>2021-05-31T20:04:48Z</time>
      </trkpt>
      <trkpt lat="43.23217" lon="0.54208">
        <ele>466</ele>
        <time>2021-05-31T20:04:55Z</time>
      </trkpt>
      <trkpt lat="43.23249" lon="0.54233">
        <ele>462</ele>
        <time>2021-05-31T20:05:03Z</time>
      </trkpt>
      <trkpt lat="43.23261" lon="0.54246">
        <ele>461</ele>
        <time>2021-05-31T20:05:07Z</time>
      </trkpt>
      <trkpt lat="43.23272" lon="0.54262">
        <ele>459</ele>
        <time>2021-05-31T20:05:11Z</time>
      </trkpt>
      <trkpt lat="43.23289" lon="0.54299">
        <ele>457</ele>
        <time>2021-05-31T20:05:18Z</time>
      </trkpt>
      <trkpt lat="43.233" lon="0.54343">
        <ele>458</ele>
        <time>2021-05-31T20:05:26Z</time>
      </trkpt>
      <trkpt lat="43.23325" lon="0.54451">
        <ele>462</ele>
        <time>2021-05-31T20:05:45Z</time>
      </trkpt>
      <trkpt lat="43.23334" lon="0.5448">
        <ele>463</ele>
        <time>2021-05-31T20:05:51Z</time>
      </trkpt>
      <trkpt lat="43.23347" lon="0.5451">
        <ele>464</ele>
        <time>2021-05-31T20:05:57Z</time>
      </trkpt>
      <trkpt lat="43.23353" lon="0.54518">
        <ele>464</ele>
        <time>2021-05-31T20:05:58Z</time>
      </trkpt>
      <trkpt lat="43.23413" lon="0.54563">
        <ele>469</ele>
        <time>2021-05-31T20:06:14Z</time>
      </trkpt>
      <trkpt lat="43.23425" lon="0.54578">
        <ele>467</ele>
        <time>2021-05-31T20:06:18Z</time>
      </trkpt>
      <trkpt lat="43.23441" lon="0.54608">
        <ele>463</ele>
        <time>2021-05-31T20:06:25Z</time>
      </trkpt>
      <trkpt lat="43.23468" lon="0.54676">
        <ele>462</ele>
        <time>2021-05-31T20:06:38Z</time>
      </trkpt>
      <trkpt lat="43.23567" lon="0.5491">
        <ele>475</ele>
        <time>2021-05-31T20:07:24Z</time>
      </trkpt>
      <trkpt lat="43.23594" lon="0.55007">
        <ele>473</ele>
        <time>2021-05-31T20:07:41Z</time>
      </trkpt>
      <trkpt lat="43.23634" lon="0.5518">
        <ele>466</ele>
        <time>2021-05-31T20:08:12Z</time>
      </trkpt>
      <trkpt lat="43.23679" lon="0.55353">
        <ele>464</ele>
        <time>2021-05-31T20:08:44Z</time>
      </trkpt>
      <trkpt lat="43.23695" lon="0.55405">
        <ele>464</ele>
        <time>2021-05-31T20:08:53Z</time>
      </trkpt>
      <trkpt lat="43.23715" lon="0.55456">
        <ele>465</ele>
        <time>2021-05-31T20:09:03Z</time>
      </trkpt>
      <trkpt lat="43.23823" lon="0.5566">
        <ele>462</ele>
        <time>2021-05-31T20:09:46Z</time>
      </trkpt>
      <trkpt lat="43.23959" lon="0.55952">
        <ele>459</ele>
        <time>2021-05-31T20:10:45Z</time>
      </trkpt>
      <trkpt lat="43.24005" lon="0.56043">
        <ele>458</ele>
        <time>2021-05-31T20:11:04Z</time>
      </trkpt>
      <trkpt lat="43.24063" lon="0.56142">
        <ele>452</ele>
        <time>2021-05-31T20:11:25Z</time>
      </trkpt>
      <trkpt lat="43.24127" lon="0.56236">
        <ele>451</ele>
        <time>2021-05-31T20:11:47Z</time>
      </trkpt>
      <trkpt lat="43.24168" lon="0.56302">
        <ele>454</ele>
        <time>2021-05-31T20:12:02Z</time>
      </trkpt>
      <trkpt lat="43.24203" lon="0.56351">
        <ele>456</ele>
        <time>2021-05-31T20:12:14Z</time>
      </trkpt>
      <trkpt lat="43.24242" lon="0.56391">
        <ele>458</ele>
        <time>2021-05-31T20:12:25Z</time>
      </trkpt>
      <trkpt lat="43.24321" lon="0.56467">
        <ele>461</ele>
        <time>2021-05-31T20:12:48Z</time>
      </trkpt>
      <trkpt lat="43.24356" lon="0.56517">
        <ele>460</ele>
        <time>2021-05-31T20:12:59Z</time>
      </trkpt>
      <trkpt lat="43.24385" lon="0.56569">
        <ele>458</ele>
        <time>2021-05-31T20:13:11Z</time>
      </trkpt>
      <trkpt lat="43.24428" lon="0.56679">
        <ele>458</ele>
        <time>2021-05-31T20:13:32Z</time>
      </trkpt>
      <trkpt lat="43.24468" lon="0.56744">
        <ele>459</ele>
        <time>2021-05-31T20:13:46Z</time>
      </trkpt>
      <trkpt lat="43.24494" lon="0.56782">
        <ele>459</ele>
        <time>2021-05-31T20:13:55Z</time>
      </trkpt>
      <trkpt lat="43.24516" lon="0.56821">
        <ele>455</ele>
        <time>2021-05-31T20:14:03Z</time>
      </trkpt>
      <trkpt lat="43.24523" lon="0.56835">
        <ele>454</ele>
        <time>2021-05-31T20:14:06Z</time>
      </trkpt>
      <trkpt lat="43.24543" lon="0.56894">
        <ele>453</ele>
        <time>2021-05-31T20:14:17Z</time>
      </trkpt>
      <trkpt lat="43.24556" lon="0.56952">
        <ele>453</ele>
        <time>2021-05-31T20:14:28Z</time>
      </trkpt>
      <trkpt lat="43.24567" lon="0.56977">
        <ele>453</ele>
        <time>2021-05-31T20:14:33Z</time>
      </trkpt>
      <trkpt lat="43.2458" lon="0.56997">
        <ele>454</ele>
        <time>2021-05-31T20:14:37Z</time>
      </trkpt>
      <trkpt lat="43.24594" lon="0.57011">
        <ele>455</ele>
        <time>2021-05-31T20:14:41Z</time>
      </trkpt>
      <trkpt lat="43.24605" lon="0.5702">
        <ele>455</ele>
        <time>2021-05-31T20:14:44Z</time>
      </trkpt>
      <trkpt lat="43.24641" lon="0.57034">
        <ele>457</ele>
        <time>2021-05-31T20:14:53Z</time>
      </trkpt>
      <trkpt lat="43.24661" lon="0.57034">
        <ele>457</ele>
        <time>2021-05-31T20:14:58Z</time>
      </trkpt>
      <trkpt lat="43.24675" lon="0.57031">
        <ele>457</ele>
        <time>2021-05-31T20:15:01Z</time>
      </trkpt>
      <trkpt lat="43.24703" lon="0.57015">
        <ele>457</ele>
        <time>2021-05-31T20:15:08Z</time>
      </trkpt>
      <trkpt lat="43.24729" lon="0.5698">
        <ele>456</ele>
        <time>2021-05-31T20:15:17Z</time>
      </trkpt>
      <trkpt lat="43.24748" lon="0.56929">
        <ele>452</ele>
        <time>2021-05-31T20:15:26Z</time>
      </trkpt>
      <trkpt lat="43.24759" lon="0.56913">
        <ele>450</ele>
        <time>2021-05-31T20:15:30Z</time>
      </trkpt>
      <trkpt lat="43.24773" lon="0.56904">
        <ele>448</ele>
        <time>2021-05-31T20:15:34Z</time>
      </trkpt>
      <trkpt lat="43.24808" lon="0.56896">
        <ele>446</ele>
        <time>2021-05-31T20:15:42Z</time>
      </trkpt>
      <trkpt lat="43.24855" lon="0.56899">
        <ele>443</ele>
        <time>2021-05-31T20:15:53Z</time>
      </trkpt>
      <trkpt lat="43.24865" lon="0.56909">
        <ele>442</ele>
        <time>2021-05-31T20:15:56Z</time>
      </trkpt>
      <trkpt lat="43.24873" lon="0.56926">
        <ele>442</ele>
        <time>2021-05-31T20:15:59Z</time>
      </trkpt>
      <trkpt lat="43.24875" lon="0.56947">
        <ele>442</ele>
        <time>2021-05-31T20:16:03Z</time>
      </trkpt>
      <trkpt lat="43.24873" lon="0.56967">
        <ele>442</ele>
        <time>2021-05-31T20:16:06Z</time>
      </trkpt>
      <trkpt lat="43.24857" lon="0.56994">
        <ele>446</ele>
        <time>2021-05-31T20:16:12Z</time>
      </trkpt>
      <trkpt lat="43.24823" lon="0.57034">
        <ele>447</ele>
        <time>2021-05-31T20:16:23Z</time>
      </trkpt>
      <trkpt lat="43.24795" lon="0.57103">
        <ele>443</ele>
        <time>2021-05-31T20:16:36Z</time>
      </trkpt>
      <trkpt lat="43.24774" lon="0.57165">
        <ele>439</ele>
        <time>2021-05-31T20:16:48Z</time>
      </trkpt>
      <trkpt lat="43.24761" lon="0.57215">
        <ele>434</ele>
        <time>2021-05-31T20:16:57Z</time>
      </trkpt>
      <trkpt lat="43.24768" lon="0.57252">
        <ele>427</ele>
        <time>2021-05-31T20:17:03Z</time>
      </trkpt>
      <trkpt lat="43.2481" lon="0.57346">
        <ele>425</ele>
        <time>2021-05-31T20:17:22Z</time>
      </trkpt>
      <trkpt lat="43.24828" lon="0.57411">
        <ele>428</ele>
        <time>2021-05-31T20:17:34Z</time>
      </trkpt>
      <trkpt lat="43.24831" lon="0.57452">
        <ele>431</ele>
        <time>2021-05-31T20:17:41Z</time>
      </trkpt>
      <trkpt lat="43.24831" lon="0.57533">
        <ele>437</ele>
        <time>2021-05-31T20:17:55Z</time>
      </trkpt>
      <trkpt lat="43.24823" lon="0.57625">
        <ele>440</ele>
        <time>2021-05-31T20:18:10Z</time>
      </trkpt>
      <trkpt lat="43.24797" lon="0.57783">
        <ele>439</ele>
        <time>2021-05-31T20:18:38Z</time>
      </trkpt>
      <trkpt lat="43.24795" lon="0.57818">
        <ele>439</ele>
        <time>2021-05-31T20:18:44Z</time>
      </trkpt>
      <trkpt lat="43.24797" lon="0.5783">
        <ele>439</ele>
        <time>2021-05-31T20:18:46Z</time>
      </trkpt>
      <trkpt lat="43.24803" lon="0.5784">
        <ele>438</ele>
        <time>2021-05-31T20:18:48Z</time>
      </trkpt>
      <trkpt lat="43.24812" lon="0.57844">
        <ele>438</ele>
        <time>2021-05-31T20:18:51Z</time>
      </trkpt>
      <trkpt lat="43.24819" lon="0.57843">
        <ele>438</ele>
        <time>2021-05-31T20:18:52Z</time>
      </trkpt>
      <trkpt lat="43.24862" lon="0.57832">
        <ele>437</ele>
        <time>2021-05-31T20:19:02Z</time>
      </trkpt>
      <trkpt lat="43.24889" lon="0.57828">
        <ele>436</ele>
        <time>2021-05-31T20:19:09Z</time>
      </trkpt>
      <trkpt lat="43.24913" lon="0.57836">
        <ele>433</ele>
        <time>2021-05-31T20:19:14Z</time>
      </trkpt>
      <trkpt lat="43.24935" lon="0.57861">
        <ele>431</ele>
        <time>2021-05-31T20:19:21Z</time>
      </trkpt>
      <trkpt lat="43.24955" lon="0.57898">
        <ele>428</ele>
        <time>2021-05-31T20:19:29Z</time>
      </trkpt>
      <trkpt lat="43.24976" lon="0.57948">
        <ele>426</ele>
        <time>2021-05-31T20:19:39Z</time>
      </trkpt>
      <trkpt lat="43.24992" lon="0.57978">
        <ele>425</ele>
        <time>2021-05-31T20:19:45Z</time>
      </trkpt>
      <trkpt lat="43.25035" lon="0.58027">
        <ele>420</ele>
        <time>2021-05-31T20:19:58Z</time>
      </trkpt>
      <trkpt lat="43.25071" lon="0.58064">
        <ele>419</ele>
        <time>2021-05-31T20:20:09Z</time>
      </trkpt>
      <trkpt lat="43.25106" lon="0.58107">
        <ele>416</ele>
        <time>2021-05-31T20:20:20Z</time>
      </trkpt>
      <trkpt lat="43.25151" lon="0.58178">
        <ele>417</ele>
        <time>2021-05-31T20:20:36Z</time>
      </trkpt>
      <trkpt lat="43.25232" lon="0.58285">
        <ele>420</ele>
        <time>2021-05-31T20:21:02Z</time>
      </trkpt>
      <trkpt lat="43.25252" lon="0.58331">
        <ele>425</ele>
        <time>2021-05-31T20:21:11Z</time>
      </trkpt>
      <trkpt lat="43.25257" lon="0.58373">
        <ele>426</ele>
        <time>2021-05-31T20:21:18Z</time>
      </trkpt>
      <trkpt lat="43.25251" lon="0.58411">
        <ele>429</ele>
        <time>2021-05-31T20:21:25Z</time>
      </trkpt>
      <trkpt lat="43.25246" lon="0.58477">
        <ele>432</ele>
        <time>2021-05-31T20:21:36Z</time>
      </trkpt>
      <trkpt lat="43.25256" lon="0.58519">
        <ele>431</ele>
        <time>2021-05-31T20:21:44Z</time>
      </trkpt>
      <trkpt lat="43.25274" lon="0.58544">
        <ele>429</ele>
        <time>2021-05-31T20:21:50Z</time>
      </trkpt>
      <trkpt lat="43.25295" lon="0.58559">
        <ele>427</ele>
        <time>2021-05-31T20:21:55Z</time>
      </trkpt>
      <trkpt lat="43.25313" lon="0.58566">
        <ele>426</ele>
        <time>2021-05-31T20:22:00Z</time>
      </trkpt>
      <trkpt lat="43.25337" lon="0.58562">
        <ele>423</ele>
        <time>2021-05-31T20:22:05Z</time>
      </trkpt>
      <trkpt lat="43.25371" lon="0.58571">
        <ele>422</ele>
        <time>2021-05-31T20:22:13Z</time>
      </trkpt>
      <trkpt lat="43.25443" lon="0.58629">
        <ele>420</ele>
        <time>2021-05-31T20:22:33Z</time>
      </trkpt>
      <trkpt lat="43.25456" lon="0.58643">
        <ele>421</ele>
        <time>2021-05-31T20:22:37Z</time>
      </trkpt>
      <trkpt lat="43.25467" lon="0.58667">
        <ele>422</ele>
        <time>2021-05-31T20:22:41Z</time>
      </trkpt>
      <trkpt lat="43.25524" lon="0.58763">
        <ele>419</ele>
        <time>2021-05-31T20:23:03Z</time>
      </trkpt>
      <trkpt lat="43.25601" lon="0.58916">
        <ele>417</ele>
        <time>2021-05-31T20:23:34Z</time>
      </trkpt>
      <trkpt lat="43.25646" lon="0.58998">
        <ele>415</ele>
        <time>2021-05-31T20:23:52Z</time>
      </trkpt>
      <trkpt lat="43.25693" lon="0.59067">
        <ele>411</ele>
        <time>2021-05-31T20:24:08Z</time>
      </trkpt>
      <trkpt lat="43.25762" lon="0.59144">
        <ele>412</ele>
        <time>2021-05-31T20:24:28Z</time>
      </trkpt>
      <trkpt lat="43.25932" lon="0.59274">
        <ele>405</ele>
        <time>2021-05-31T20:25:14Z</time>
      </trkpt>
      <trkpt lat="43.26019" lon="0.59347">
        <ele>411</ele>
        <time>2021-05-31T20:25:38Z</time>
      </trkpt>
      <trkpt lat="43.26112" lon="0.59475">
        <ele>403</ele>
        <time>2021-05-31T20:26:08Z</time>
      </trkpt>
      <trkpt lat="43.26147" lon="0.59549">
        <ele>398</ele>
        <time>2021-05-31T20:26:23Z</time>
      </trkpt>
      <trkpt lat="43.26221" lon="0.59643">
        <ele>397</ele>
        <time>2021-05-31T20:26:47Z</time>
      </trkpt>
      <trkpt lat="43.26238" lon="0.59668">
        <ele>401</ele>
        <time>2021-05-31T20:26:53Z</time>
      </trkpt>
      <trkpt lat="43.26252" lon="0.59706">
        <ele>399</ele>
        <time>2021-05-31T20:27:00Z</time>
      </trkpt>
      <trkpt lat="43.26273" lon="0.59792">
        <ele>396</ele>
        <time>2021-05-31T20:27:15Z</time>
      </trkpt>
      <trkpt lat="43.2629" lon="0.59848">
        <ele>393</ele>
        <time>2021-05-31T20:27:26Z</time>
      </trkpt>
      <trkpt lat="43.263" lon="0.59871">
        <ele>392</ele>
        <time>2021-05-31T20:27:30Z</time>
      </trkpt>
      <trkpt lat="43.26315" lon="0.59886">
        <ele>392</ele>
        <time>2021-05-31T20:27:35Z</time>
      </trkpt>
      <trkpt lat="43.26353" lon="0.59903">
        <ele>393</ele>
        <time>2021-05-31T20:27:44Z</time>
      </trkpt>
      <trkpt lat="43.26397" lon="0.59945">
        <ele>390</ele>
        <time>2021-05-31T20:27:57Z</time>
      </trkpt>
      <trkpt lat="43.2647" lon="0.60034">
        <ele>382</ele>
        <time>2021-05-31T20:28:19Z</time>
      </trkpt>
      <trkpt lat="43.26531" lon="0.60095">
        <ele>381</ele>
        <time>2021-05-31T20:28:37Z</time>
      </trkpt>
      <trkpt lat="43.26568" lon="0.60138">
        <ele>380</ele>
        <time>2021-05-31T20:28:48Z</time>
      </trkpt>
      <trkpt lat="43.26588" lon="0.60172">
        <ele>379</ele>
        <time>2021-05-31T20:28:56Z</time>
      </trkpt>
      <trkpt lat="43.26625" lon="0.6025">
        <ele>374</ele>
        <time>2021-05-31T20:29:12Z</time>
      </trkpt>
      <trkpt lat="43.26644" lon="0.60273">
        <ele>372</ele>
        <time>2021-05-31T20:29:17Z</time>
      </trkpt>
      <trkpt lat="43.26669" lon="0.60284">
        <ele>369</ele>
        <time>2021-05-31T20:29:24Z</time>
      </trkpt>
      <trkpt lat="43.267" lon="0.60292">
        <ele>365</ele>
        <time>2021-05-31T20:29:31Z</time>
      </trkpt>
      <trkpt lat="43.26723" lon="0.60305">
        <ele>363</ele>
        <time>2021-05-31T20:29:37Z</time>
      </trkpt>
      <trkpt lat="43.26803" lon="0.60374">
        <ele>360</ele>
        <time>2021-05-31T20:29:59Z</time>
      </trkpt>
      <trkpt lat="43.26832" lon="0.60405">
        <ele>360</ele>
        <time>2021-05-31T20:30:07Z</time>
      </trkpt>
      <trkpt lat="43.26849" lon="0.60437">
        <ele>360</ele>
        <time>2021-05-31T20:30:14Z</time>
      </trkpt>
      <trkpt lat="43.2686" lon="0.60476">
        <ele>361</ele>
        <time>2021-05-31T20:30:21Z</time>
      </trkpt>
      <trkpt lat="43.26889" lon="0.60628">
        <ele>369</ele>
        <time>2021-05-31T20:30:48Z</time>
      </trkpt>
      <trkpt lat="43.26897" lon="0.60658">
        <ele>369</ele>
        <time>2021-05-31T20:30:53Z</time>
      </trkpt>
      <trkpt lat="43.26909" lon="0.6068">
        <ele>371</ele>
        <time>2021-05-31T20:30:58Z</time>
      </trkpt>
      <trkpt lat="43.26957" lon="0.60742">
        <ele>369</ele>
        <time>2021-05-31T20:31:13Z</time>
      </trkpt>
      <trkpt lat="43.26977" lon="0.60755">
        <ele>367</ele>
        <time>2021-05-31T20:31:19Z</time>
      </trkpt>
      <trkpt lat="43.27" lon="0.6076">
        <ele>364</ele>
        <time>2021-05-31T20:31:24Z</time>
      </trkpt>
      <trkpt lat="43.27103" lon="0.60751">
        <ele>362</ele>
        <time>2021-05-31T20:31:48Z</time>
      </trkpt>
      <trkpt lat="43.27139" lon="0.60759">
        <ele>363</ele>
        <time>2021-05-31T20:31:57Z</time>
      </trkpt>
      <trkpt lat="43.2716" lon="0.60773">
        <ele>363</ele>
        <time>2021-05-31T20:32:02Z</time>
      </trkpt>
      <trkpt lat="43.27176" lon="0.60796">
        <ele>362</ele>
        <time>2021-05-31T20:32:08Z</time>
      </trkpt>
      <trkpt lat="43.27183" lon="0.60825">
        <ele>362</ele>
        <time>2021-05-31T20:32:13Z</time>
      </trkpt>
      <trkpt lat="43.27186" lon="0.60861">
        <ele>361</ele>
        <time>2021-05-31T20:32:19Z</time>
      </trkpt>
      <trkpt lat="43.27179" lon="0.60895">
        <ele>361</ele>
        <time>2021-05-31T20:32:25Z</time>
      </trkpt>
      <trkpt lat="43.27145" lon="0.60995">
        <ele>359</ele>
        <time>2021-05-31T20:32:44Z</time>
      </trkpt>
      <trkpt lat="43.27142" lon="0.61014">
        <ele>359</ele>
        <time>2021-05-31T20:32:47Z</time>
      </trkpt>
      <trkpt lat="43.2714" lon="0.61034">
        <ele>360</ele>
        <time>2021-05-31T20:32:50Z</time>
      </trkpt>
      <trkpt lat="43.27145" lon="0.61074">
        <ele>362</ele>
        <time>2021-05-31T20:32:57Z</time>
      </trkpt>
      <trkpt lat="43.27164" lon="0.61151">
        <ele>367</ele>
        <time>2021-05-31T20:33:11Z</time>
      </trkpt>
      <trkpt lat="43.27167" lon="0.61184">
        <ele>369</ele>
        <time>2021-05-31T20:33:17Z</time>
      </trkpt>
      <trkpt lat="43.27158" lon="0.61263">
        <ele>371</ele>
        <time>2021-05-31T20:33:30Z</time>
      </trkpt>
      <trkpt lat="43.27158" lon="0.61358">
        <ele>370</ele>
        <time>2021-05-31T20:33:47Z</time>
      </trkpt>
      <trkpt lat="43.27145" lon="0.61437">
        <ele>368</ele>
        <time>2021-05-31T20:34:00Z</time>
      </trkpt>
      <trkpt lat="43.27149" lon="0.61471">
        <ele>367</ele>
        <time>2021-05-31T20:34:06Z</time>
      </trkpt>
      <trkpt lat="43.27159" lon="0.61509">
        <ele>365</ele>
        <time>2021-05-31T20:34:13Z</time>
      </trkpt>
      <trkpt lat="43.27171" lon="0.61534">
        <ele>362</ele>
        <time>2021-05-31T20:34:18Z</time>
      </trkpt>
      <trkpt lat="43.27193" lon="0.61552">
        <ele>359</ele>
        <time>2021-05-31T20:34:24Z</time>
      </trkpt>
      <trkpt lat="43.27248" lon="0.61583">
        <ele>357</ele>
        <time>2021-05-31T20:34:38Z</time>
      </trkpt>
      <trkpt lat="43.27276" lon="0.61595">
        <ele>357</ele>
        <time>2021-05-31T20:34:45Z</time>
      </trkpt>
      <trkpt lat="43.27351" lon="0.61612">
        <ele>357</ele>
        <time>2021-05-31T20:35:03Z</time>
      </trkpt>
      <trkpt lat="43.27369" lon="0.61622">
        <ele>356</ele>
        <time>2021-05-31T20:35:07Z</time>
      </trkpt>
      <trkpt lat="43.27381" lon="0.61633">
        <ele>356</ele>
        <time>2021-05-31T20:35:11Z</time>
      </trkpt>
      <trkpt lat="43.27393" lon="0.6165">
        <ele>356</ele>
        <time>2021-05-31T20:35:15Z</time>
      </trkpt>
      <trkpt lat="43.27451" lon="0.61778">
        <ele>356</ele>
        <time>2021-05-31T20:35:40Z</time>
      </trkpt>
      <trkpt lat="43.27501" lon="0.61847">
        <ele>363</ele>
        <time>2021-05-31T20:35:57Z</time>
      </trkpt>
      <trkpt lat="43.27575" lon="0.61936">
        <ele>359</ele>
        <time>2021-05-31T20:36:20Z</time>
      </trkpt>
      <trkpt lat="43.27661" lon="0.62047">
        <ele>360</ele>
        <time>2021-05-31T20:36:47Z</time>
      </trkpt>
      <trkpt lat="43.27708" lon="0.62152">
        <ele>355</ele>
        <time>2021-05-31T20:37:08Z</time>
      </trkpt>
      <trkpt lat="43.27797" lon="0.62188">
        <ele>351</ele>
        <time>2021-05-31T20:37:30Z</time>
      </trkpt>
      <trkpt lat="43.27836" lon="0.62202">
        <ele>350</ele>
        <time>2021-05-31T20:37:39Z</time>
      </trkpt>
      <trkpt lat="43.27856" lon="0.62216">
        <ele>351</ele>
        <time>2021-05-31T20:37:45Z</time>
      </trkpt>
      <trkpt lat="43.27889" lon="0.62252">
        <ele>354</ele>
        <time>2021-05-31T20:37:54Z</time>
      </trkpt>
      <trkpt lat="43.27921" lon="0.62319">
        <ele>356</ele>
        <time>2021-05-31T20:38:08Z</time>
      </trkpt>
      <trkpt lat="43.2796" lon="0.62416">
        <ele>358</ele>
        <time>2021-05-31T20:38:27Z</time>
      </trkpt>
      <trkpt lat="43.27979" lon="0.62479">
        <ele>355</ele>
        <time>2021-05-31T20:38:38Z</time>
      </trkpt>
      <trkpt lat="43.27993" lon="0.62501">
        <ele>354</ele>
        <time>2021-05-31T20:38:43Z</time>
      </trkpt>
      <trkpt lat="43.28045" lon="0.6254">
        <ele>351</ele>
        <time>2021-05-31T20:38:57Z</time>
      </trkpt>
      <trkpt lat="43.28077" lon="0.62574">
        <ele>349</ele>
        <time>2021-05-31T20:39:07Z</time>
      </trkpt>
      <trkpt lat="43.28101" lon="0.62612">
        <ele>350</ele>
        <time>2021-05-31T20:39:15Z</time>
      </trkpt>
      <trkpt lat="43.28143" lon="0.62691">
        <ele>352</ele>
        <time>2021-05-31T20:39:32Z</time>
      </trkpt>
      <trkpt lat="43.28153" lon="0.62727">
        <ele>353</ele>
        <time>2021-05-31T20:39:38Z</time>
      </trkpt>
      <trkpt lat="43.28189" lon="0.62975">
        <ele>355</ele>
        <time>2021-05-31T20:40:21Z</time>
      </trkpt>
      <trkpt lat="43.28203" lon="0.63032">
        <ele>355</ele>
        <time>2021-05-31T20:40:32Z</time>
      </trkpt>
      <trkpt lat="43.28222" lon="0.63077">
        <ele>355</ele>
        <time>2021-05-31T20:40:40Z</time>
      </trkpt>
      <trkpt lat="43.28239" lon="0.63104">
        <ele>354</ele>
        <time>2021-05-31T20:40:47Z</time>
      </trkpt>
      <trkpt lat="43.28261" lon="0.63127">
        <ele>352</ele>
        <time>2021-05-31T20:40:53Z</time>
      </trkpt>
      <trkpt lat="43.28283" lon="0.63137">
        <ele>350</ele>
        <time>2021-05-31T20:40:58Z</time>
      </trkpt>
      <trkpt lat="43.28314" lon="0.63136">
        <ele>349</ele>
        <time>2021-05-31T20:41:06Z</time>
      </trkpt>
      <trkpt lat="43.28377" lon="0.63124">
        <ele>346</ele>
        <time>2021-05-31T20:41:21Z</time>
      </trkpt>
      <trkpt lat="43.28412" lon="0.63112">
        <ele>344</ele>
        <time>2021-05-31T20:41:29Z</time>
      </trkpt>
      <trkpt lat="43.28508" lon="0.63052">
        <ele>341</ele>
        <time>2021-05-31T20:41:54Z</time>
      </trkpt>
      <trkpt lat="43.28547" lon="0.63059">
        <ele>341</ele>
        <time>2021-05-31T20:42:03Z</time>
      </trkpt>
      <trkpt lat="43.28592" lon="0.63102">
        <ele>339</ele>
        <time>2021-05-31T20:42:16Z</time>
      </trkpt>
      <trkpt lat="43.28608" lon="0.63223">
        <ele>342</ele>
        <time>2021-05-31T20:42:36Z</time>
      </trkpt>
      <trkpt lat="43.28598" lon="0.63393">
        <ele>346</ele>
        <time>2021-05-31T20:43:05Z</time>
      </trkpt>
      <trkpt lat="43.28658" lon="0.63588">
        <ele>343</ele>
        <time>2021-05-31T20:43:41Z</time>
      </trkpt>
      <trkpt lat="43.28757" lon="0.6368">
        <ele>341</ele>
        <time>2021-05-31T20:44:09Z</time>
      </trkpt>
      <trkpt lat="43.2879" lon="0.63728">
        <ele>341</ele>
        <time>2021-05-31T20:44:21Z</time>
      </trkpt>
      <trkpt lat="43.28824" lon="0.63834">
        <ele>342</ele>
        <time>2021-05-31T20:44:40Z</time>
      </trkpt>
      <trkpt lat="43.28849" lon="0.63877">
        <ele>341</ele>
        <time>2021-05-31T20:44:50Z</time>
      </trkpt>
      <trkpt lat="43.28902" lon="0.63921">
        <ele>341</ele>
        <time>2021-05-31T20:45:04Z</time>
      </trkpt>
      <trkpt lat="43.28899" lon="0.63958">
        <ele>340</ele>
        <time>2021-05-31T20:45:10Z</time>
      </trkpt>
      <trkpt lat="43.28902" lon="0.64186">
        <ele>346</ele>
        <time>2021-05-31T20:45:49Z</time>
      </trkpt>
      <trkpt lat="43.28903" lon="0.64218">
        <ele>346</ele>
        <time>2021-05-31T20:45:55Z</time>
      </trkpt>
      <trkpt lat="43.28912" lon="0.64293">
        <ele>348</ele>
        <time>2021-05-31T20:46:08Z</time>
      </trkpt>
      <trkpt lat="43.28921" lon="0.64346">
        <ele>349</ele>
        <time>2021-05-31T20:46:17Z</time>
      </trkpt>
      <trkpt lat="43.28945" lon="0.64416">
        <ele>350</ele>
        <time>2021-05-31T20:46:30Z</time>
      </trkpt>
      <trkpt lat="43.28915" lon="0.64435">
        <ele>350</ele>
        <time>2021-05-31T20:46:38Z</time>
      </trkpt>
      <trkpt lat="43.28934" lon="0.64527">
        <ele>346</ele>
        <time>2021-05-31T20:46:54Z</time>
      </trkpt>
      <trkpt lat="43.28952" lon="0.64603">
        <ele>343</ele>
        <time>2021-05-31T20:47:07Z</time>
      </trkpt>
      <trkpt lat="43.28956" lon="0.64613">
        <ele>343</ele>
        <time>2021-05-31T20:47:09Z</time>
      </trkpt>
      <trkpt lat="43.28962" lon="0.64623">
        <ele>343</ele>
        <time>2021-05-31T20:47:12Z</time>
      </trkpt>
      <trkpt lat="43.29073" lon="0.64762">
        <ele>340</ele>
        <time>2021-05-31T20:47:47Z</time>
      </trkpt>
      <trkpt lat="43.29158" lon="0.6486">
        <ele>338</ele>
        <time>2021-05-31T20:48:13Z</time>
      </trkpt>
      <trkpt lat="43.29185" lon="0.64896">
        <ele>336</ele>
        <time>2021-05-31T20:48:21Z</time>
      </trkpt>
      <trkpt lat="43.29184" lon="0.64902">
        <ele>336</ele>
        <time>2021-05-31T20:48:22Z</time>
      </trkpt>
      <trkpt lat="43.29186" lon="0.64919">
        <ele>335</ele>
        <time>2021-05-31T20:48:25Z</time>
      </trkpt>
      <trkpt lat="43.29191" lon="0.64924">
        <ele>335</ele>
        <time>2021-05-31T20:48:27Z</time>
      </trkpt>
      <trkpt lat="43.29197" lon="0.64923">
        <ele>335</ele>
        <time>2021-05-31T20:48:28Z</time>
      </trkpt>
      <trkpt lat="43.29199" lon="0.64915">
        <ele>335</ele>
        <time>2021-05-31T20:48:30Z</time>
      </trkpt>
      <trkpt lat="43.29197" lon="0.64899">
        <ele>335</ele>
        <time>2021-05-31T20:48:32Z</time>
      </trkpt>
      <trkpt lat="43.29202" lon="0.64897">
        <ele>335</ele>
        <time>2021-05-31T20:48:34Z</time>
      </trkpt>
      <trkpt lat="43.2921" lon="0.64896">
        <ele>335</ele>
        <time>2021-05-31T20:48:36Z</time>
      </trkpt>
      <trkpt lat="43.29225" lon="0.649">
        <ele>334</ele>
        <time>2021-05-31T20:48:39Z</time>
      </trkpt>
      <trkpt lat="43.29232" lon="0.649">
        <ele>334</ele>
        <time>2021-05-31T20:48:41Z</time>
      </trkpt>
      <trkpt lat="43.29236" lon="0.64899">
        <ele>334</ele>
        <time>2021-05-31T20:48:42Z</time>
      </trkpt>
      <trkpt lat="43.29253" lon="0.6489">
        <ele>332</ele>
        <time>2021-05-31T20:48:46Z</time>
      </trkpt>
      <trkpt lat="43.29271" lon="0.64873">
        <ele>329</ele>
        <time>2021-05-31T20:48:51Z</time>
      </trkpt>
      <trkpt lat="43.29276" lon="0.64853">
        <ele>328</ele>
        <time>2021-05-31T20:48:55Z</time>
      </trkpt>
      <trkpt lat="43.29282" lon="0.64819">
        <ele>327</ele>
        <time>2021-05-31T20:49:01Z</time>
      </trkpt>
      <trkpt lat="43.29284" lon="0.64801">
        <ele>326</ele>
        <time>2021-05-31T20:49:04Z</time>
      </trkpt>
      <trkpt lat="43.29283" lon="0.64774">
        <ele>326</ele>
        <time>2021-05-31T20:49:08Z</time>
      </trkpt>
      <trkpt lat="43.29285" lon="0.64761">
        <ele>325</ele>
        <time>2021-05-31T20:49:11Z</time>
      </trkpt>
      <trkpt lat="43.29288" lon="0.64755">
        <ele>325</ele>
        <time>2021-05-31T20:49:12Z</time>
      </trkpt>
      <trkpt lat="43.29295" lon="0.64749">
        <ele>323</ele>
        <time>2021-05-31T20:49:14Z</time>
      </trkpt>
      <trkpt lat="43.29303" lon="0.64747">
        <ele>322</ele>
        <time>2021-05-31T20:49:16Z</time>
      </trkpt>
      <trkpt lat="43.2931" lon="0.64751">
        <ele>320</ele>
        <time>2021-05-31T20:49:17Z</time>
      </trkpt>
      <trkpt lat="43.29317" lon="0.64759">
        <ele>319</ele>
        <time>2021-05-31T20:49:19Z</time>
      </trkpt>
      <trkpt lat="43.2932" lon="0.6481">
        <ele>319</ele>
        <time>2021-05-31T20:49:28Z</time>
      </trkpt>
      <trkpt lat="43.29325" lon="0.64834">
        <ele>319</ele>
        <time>2021-05-31T20:49:32Z</time>
      </trkpt>
      <trkpt lat="43.29383" lon="0.65">
        <ele>310</ele>
        <time>2021-05-31T20:50:04Z</time>
      </trkpt>
      <trkpt lat="43.29405" lon="0.65029">
        <ele>306</ele>
        <time>2021-05-31T20:50:11Z</time>
      </trkpt>
      <trkpt lat="43.29438" lon="0.65042">
        <ele>305</ele>
        <time>2021-05-31T20:50:19Z</time>
      </trkpt>
      <trkpt lat="43.29493" lon="0.65052">
        <ele>305</ele>
        <time>2021-05-31T20:50:32Z</time>
      </trkpt>
      <trkpt lat="43.29551" lon="0.65074">
        <ele>310</ele>
        <time>2021-05-31T20:50:46Z</time>
      </trkpt>
      <trkpt lat="43.2958" lon="0.65085">
        <ele>313</ele>
        <time>2021-05-31T20:50:53Z</time>
      </trkpt>
      <trkpt lat="43.29706" lon="0.65135">
        <ele>327</ele>
        <time>2021-05-31T20:51:24Z</time>
      </trkpt>
      <trkpt lat="43.29729" lon="0.65137">
        <ele>328</ele>
        <time>2021-05-31T20:51:29Z</time>
      </trkpt>
      <trkpt lat="43.29894" lon="0.65145">
        <ele>329</ele>
        <time>2021-05-31T20:52:07Z</time>
      </trkpt>
      <trkpt lat="43.30058" lon="0.65149">
        <ele>329</ele>
        <time>2021-05-31T20:52:46Z</time>
      </trkpt>
      <trkpt lat="43.30109" lon="0.65142">
        <ele>331</ele>
        <time>2021-05-31T20:52:58Z</time>
      </trkpt>
      <trkpt lat="43.30182" lon="0.65133">
        <ele>334</ele>
        <time>2021-05-31T20:53:15Z</time>
      </trkpt>
      <trkpt lat="43.30213" lon="0.6512">
        <ele>335</ele>
        <time>2021-05-31T20:53:22Z</time>
      </trkpt>
      <trkpt lat="43.30249" lon="0.65092">
        <ele>336</ele>
        <time>2021-05-31T20:53:32Z</time>
      </trkpt>
      <trkpt lat="43.30257" lon="0.65088">
        <ele>336</ele>
        <time>2021-05-31T20:53:34Z</time>
      </trkpt>
      <trkpt lat="43.30342" lon="0.65055">
        <ele>334</ele>
        <time>2021-05-31T20:53:55Z</time>
      </trkpt>
      <trkpt lat="43.30399" lon="0.65026">
        <ele>332</ele>
        <time>2021-05-31T20:54:09Z</time>
      </trkpt>
      <trkpt lat="43.30428" lon="0.65025">
        <ele>331</ele>
        <time>2021-05-31T20:54:16Z</time>
      </trkpt>
      <trkpt lat="43.30558" lon="0.65063">
        <ele>315</ele>
        <time>2021-05-31T20:54:47Z</time>
      </trkpt>
      <trkpt lat="43.30622" lon="0.65073">
        <ele>308</ele>
        <time>2021-05-31T20:55:02Z</time>
      </trkpt>
      <trkpt lat="43.3072" lon="0.65071">
        <ele>306</ele>
        <time>2021-05-31T20:55:25Z</time>
      </trkpt>
      <trkpt lat="43.30774" lon="0.65086">
        <ele>310</ele>
        <time>2021-05-31T20:55:38Z</time>
      </trkpt>
      <trkpt lat="43.30822" lon="0.65105">
        <ele>319</ele>
        <time>2021-05-31T20:55:49Z</time>
      </trkpt>
      <trkpt lat="43.30869" lon="0.65115">
        <ele>320</ele>
        <time>2021-05-31T20:56:00Z</time>
      </trkpt>
      <trkpt lat="43.30901" lon="0.65133">
        <ele>321</ele>
        <time>2021-05-31T20:56:08Z</time>
      </trkpt>
      <trkpt lat="43.30916" lon="0.65144">
        <ele>323</ele>
        <time>2021-05-31T20:56:12Z</time>
      </trkpt>
      <trkpt lat="43.30939" lon="0.6516">
        <ele>323</ele>
        <time>2021-05-31T20:56:18Z</time>
      </trkpt>
      <trkpt lat="43.3098" lon="0.65189">
        <ele>322</ele>
        <time>2021-05-31T20:56:29Z</time>
      </trkpt>
      <trkpt lat="43.31012" lon="0.652">
        <ele>319</ele>
        <time>2021-05-31T20:56:37Z</time>
      </trkpt>
      <trkpt lat="43.31069" lon="0.65241">
        <ele>315</ele>
        <time>2021-05-31T20:56:52Z</time>
      </trkpt>
      <trkpt lat="43.31102" lon="0.65275">
        <ele>312</ele>
        <time>2021-05-31T20:57:01Z</time>
      </trkpt>
      <trkpt lat="43.31141" lon="0.65318">
        <ele>306</ele>
        <time>2021-05-31T20:57:13Z</time>
      </trkpt>
      <trkpt lat="43.31197" lon="0.65369">
        <ele>298</ele>
        <time>2021-05-31T20:57:29Z</time>
      </trkpt>
      <trkpt lat="43.31254" lon="0.65402">
        <ele>294</ele>
        <time>2021-05-31T20:57:43Z</time>
      </trkpt>
      <trkpt lat="43.31294" lon="0.65464">
        <ele>295</ele>
        <time>2021-05-31T20:57:57Z</time>
      </trkpt>
      <trkpt lat="43.31377" lon="0.65656">
        <ele>305</ele>
        <time>2021-05-31T20:58:35Z</time>
      </trkpt>
      <trkpt lat="43.31449" lon="0.65786">
        <ele>311</ele>
        <time>2021-05-31T20:59:03Z</time>
      </trkpt>
      <trkpt lat="43.3151" lon="0.65916">
        <ele>317</ele>
        <time>2021-05-31T20:59:29Z</time>
      </trkpt>
      <trkpt lat="43.3152" lon="0.65937">
        <ele>318</ele>
        <time>2021-05-31T20:59:34Z</time>
      </trkpt>
      <trkpt lat="43.31526" lon="0.6595">
        <ele>318</ele>
        <time>2021-05-31T20:59:36Z</time>
      </trkpt>
      <trkpt lat="43.3163" lon="0.66125">
        <ele>315</ele>
        <time>2021-05-31T21:00:15Z</time>
      </trkpt>
      <trkpt lat="43.3176" lon="0.66309">
        <ele>311</ele>
        <time>2021-05-31T21:00:58Z</time>
      </trkpt>
      <trkpt lat="43.3191" lon="0.66522">
        <ele>304</ele>
        <time>2021-05-31T21:01:49Z</time>
      </trkpt>
      <trkpt lat="43.32014" lon="0.66716">
        <ele>306</ele>
        <time>2021-05-31T21:02:30Z</time>
      </trkpt>
      <trkpt lat="43.32176" lon="0.67019">
        <ele>297</ele>
        <time>2021-05-31T21:03:33Z</time>
      </trkpt>
      <trkpt lat="43.32201" lon="0.67056">
        <ele>296</ele>
        <time>2021-05-31T21:03:42Z</time>
      </trkpt>
      <trkpt lat="43.32203" lon="0.67059">
        <ele>296</ele>
        <time>2021-05-31T21:03:43Z</time>
      </trkpt>
      <trkpt lat="43.32237" lon="0.67088">
        <ele>296</ele>
        <time>2021-05-31T21:03:52Z</time>
      </trkpt>
      <trkpt lat="43.32263" lon="0.67114">
        <ele>295</ele>
        <time>2021-05-31T21:04:00Z</time>
      </trkpt>
      <trkpt lat="43.3228" lon="0.6713">
        <ele>295</ele>
        <time>2021-05-31T21:04:04Z</time>
      </trkpt>
      <trkpt lat="43.3239" lon="0.67207">
        <ele>293</ele>
        <time>2021-05-31T21:04:33Z</time>
      </trkpt>
      <trkpt lat="43.32517" lon="0.67333">
        <ele>295</ele>
        <time>2021-05-31T21:05:10Z</time>
      </trkpt>
      <trkpt lat="43.32545" lon="0.67366">
        <ele>294</ele>
        <time>2021-05-31T21:05:18Z</time>
      </trkpt>
      <trkpt lat="43.32673" lon="0.6752">
        <ele>296</ele>
        <time>2021-05-31T21:05:58Z</time>
      </trkpt>
      <trkpt lat="43.32779" lon="0.67605">
        <ele>295</ele>
        <time>2021-05-31T21:06:27Z</time>
      </trkpt>
      <trkpt lat="43.32894" lon="0.67717">
        <ele>292</ele>
        <time>2021-05-31T21:07:00Z</time>
      </trkpt>
      <trkpt lat="43.32904" lon="0.67729">
        <ele>292</ele>
        <time>2021-05-31T21:07:03Z</time>
      </trkpt>
      <trkpt lat="43.33026" lon="0.67886">
        <ele>295</ele>
        <time>2021-05-31T21:07:42Z</time>
      </trkpt>
      <trkpt lat="43.33069" lon="0.67949">
        <ele>295</ele>
        <time>2021-05-31T21:07:56Z</time>
      </trkpt>
      <trkpt lat="43.33183" lon="0.68127">
        <ele>293</ele>
        <time>2021-05-31T21:08:37Z</time>
      </trkpt>
      <trkpt lat="43.33231" lon="0.68186">
        <ele>292</ele>
        <time>2021-05-31T21:08:52Z</time>
      </trkpt>
      <trkpt lat="43.3326" lon="0.68226">
        <ele>291</ele>
        <time>2021-05-31T21:09:01Z</time>
      </trkpt>
      <trkpt lat="43.33327" lon="0.68346">
        <ele>291</ele>
        <time>2021-05-31T21:09:27Z</time>
      </trkpt>
      <trkpt lat="43.33349" lon="0.68373">
        <ele>289</ele>
        <time>2021-05-31T21:09:34Z</time>
      </trkpt>
      <trkpt lat="43.33715" lon="0.68607">
        <ele>286</ele>
        <time>2021-05-31T21:11:08Z</time>
      </trkpt>
      <trkpt lat="43.3383" lon="0.68683">
        <ele>285</ele>
        <time>2021-05-31T21:11:38Z</time>
      </trkpt>
      <trkpt lat="43.33991" lon="0.68782">
        <ele>292</ele>
        <time>2021-05-31T21:12:19Z</time>
      </trkpt>
      <trkpt lat="43.34019" lon="0.6879">
        <ele>292</ele>
        <time>2021-05-31T21:12:26Z</time>
      </trkpt>
      <trkpt lat="43.34038" lon="0.68791">
        <ele>292</ele>
        <time>2021-05-31T21:12:30Z</time>
      </trkpt>
      <trkpt lat="43.34088" lon="0.68765">
        <ele>292</ele>
        <time>2021-05-31T21:12:43Z</time>
      </trkpt>
      <trkpt lat="43.34113" lon="0.68764">
        <ele>293</ele>
        <time>2021-05-31T21:12:49Z</time>
      </trkpt>
      <trkpt lat="43.34261" lon="0.6885">
        <ele>298</ele>
        <time>2021-05-31T21:13:26Z</time>
      </trkpt>
      <trkpt lat="43.34295" lon="0.68879">
        <ele>297</ele>
        <time>2021-05-31T21:13:36Z</time>
      </trkpt>
      <trkpt lat="43.34321" lon="0.68909">
        <ele>296</ele>
        <time>2021-05-31T21:13:43Z</time>
      </trkpt>
      <trkpt lat="43.34347" lon="0.68935">
        <ele>295</ele>
        <time>2021-05-31T21:13:51Z</time>
      </trkpt>
      <trkpt lat="43.34424" lon="0.68996">
        <ele>290</ele>
        <time>2021-05-31T21:14:12Z</time>
      </trkpt>
      <trkpt lat="43.34452" lon="0.69021">
        <ele>290</ele>
        <time>2021-05-31T21:14:19Z</time>
      </trkpt>
      <trkpt lat="43.34482" lon="0.69061">
        <ele>292</ele>
        <time>2021-05-31T21:14:29Z</time>
      </trkpt>
      <trkpt lat="43.34504" lon="0.69102">
        <ele>294</ele>
        <time>2021-05-31T21:14:38Z</time>
      </trkpt>
      <trkpt lat="43.34518" lon="0.69135">
        <ele>294</ele>
        <time>2021-05-31T21:14:44Z</time>
      </trkpt>
      <trkpt lat="43.34533" lon="0.69162">
        <ele>295</ele>
        <time>2021-05-31T21:14:50Z</time>
      </trkpt>
      <trkpt lat="43.34549" lon="0.69183">
        <ele>295</ele>
        <time>2021-05-31T21:14:55Z</time>
      </trkpt>
      <trkpt lat="43.34569" lon="0.69204">
        <ele>295</ele>
        <time>2021-05-31T21:15:01Z</time>
      </trkpt>
      <trkpt lat="43.34592" lon="0.69222">
        <ele>295</ele>
        <time>2021-05-31T21:15:07Z</time>
      </trkpt>
      <trkpt lat="43.34609" lon="0.69233">
        <ele>295</ele>
        <time>2021-05-31T21:15:12Z</time>
      </trkpt>
      <trkpt lat="43.34678" lon="0.69267">
        <ele>295</ele>
        <time>2021-05-31T21:15:29Z</time>
      </trkpt>
      <trkpt lat="43.34694" lon="0.69277">
        <ele>295</ele>
        <time>2021-05-31T21:15:33Z</time>
      </trkpt>
      <trkpt lat="43.34712" lon="0.69291">
        <ele>295</ele>
        <time>2021-05-31T21:15:38Z</time>
      </trkpt>
      <trkpt lat="43.34809" lon="0.69395">
        <ele>293</ele>
        <time>2021-05-31T21:16:07Z</time>
      </trkpt>
      <trkpt lat="43.34848" lon="0.69446">
        <ele>293</ele>
        <time>2021-05-31T21:16:19Z</time>
      </trkpt>
      <trkpt lat="43.34874" lon="0.69475">
        <ele>293</ele>
        <time>2021-05-31T21:16:27Z</time>
      </trkpt>
      <trkpt lat="43.35006" lon="0.6958">
        <ele>294</ele>
        <time>2021-05-31T21:17:03Z</time>
      </trkpt>
      <trkpt lat="43.35048" lon="0.69628">
        <ele>289</ele>
        <time>2021-05-31T21:17:15Z</time>
      </trkpt>
      <trkpt lat="43.351" lon="0.69693">
        <ele>287</ele>
        <time>2021-05-31T21:17:32Z</time>
      </trkpt>
      <trkpt lat="43.35131" lon="0.6974">
        <ele>287</ele>
        <time>2021-05-31T21:17:42Z</time>
      </trkpt>
      <trkpt lat="43.35185" lon="0.69842">
        <ele>288</ele>
        <time>2021-05-31T21:18:04Z</time>
      </trkpt>
      <trkpt lat="43.35219" lon="0.69896">
        <ele>288</ele>
        <time>2021-05-31T21:18:16Z</time>
      </trkpt>
      <trkpt lat="43.35233" lon="0.69909">
        <ele>288</ele>
        <time>2021-05-31T21:18:20Z</time>
      </trkpt>
      <trkpt lat="43.35258" lon="0.69927">
        <ele>289</ele>
        <time>2021-05-31T21:18:27Z</time>
      </trkpt>
      <trkpt lat="43.35346" lon="0.69963">
        <ele>286</ele>
        <time>2021-05-31T21:18:48Z</time>
      </trkpt>
      <trkpt lat="43.35381" lon="0.69986">
        <ele>284</ele>
        <time>2021-05-31T21:18:57Z</time>
      </trkpt>
      <trkpt lat="43.35563" lon="0.70145">
        <ele>294</ele>
        <time>2021-05-31T21:19:47Z</time>
      </trkpt>
      <trkpt lat="43.356" lon="0.70175">
        <ele>296</ele>
        <time>2021-05-31T21:19:57Z</time>
      </trkpt>
      <trkpt lat="43.3565" lon="0.702">
        <ele>296</ele>
        <time>2021-05-31T21:20:10Z</time>
      </trkpt>
      <trkpt lat="43.35682" lon="0.70224">
        <ele>295</ele>
        <time>2021-05-31T21:20:18Z</time>
      </trkpt>
      <trkpt lat="43.35697" lon="0.70245">
        <ele>294</ele>
        <time>2021-05-31T21:20:23Z</time>
      </trkpt>
      <trkpt lat="43.35711" lon="0.70273">
        <ele>293</ele>
        <time>2021-05-31T21:20:29Z</time>
      </trkpt>
      <trkpt lat="43.35717" lon="0.70288">
        <ele>293</ele>
        <time>2021-05-31T21:20:32Z</time>
      </trkpt>
      <trkpt lat="43.35736" lon="0.70346">
        <ele>293</ele>
        <time>2021-05-31T21:20:43Z</time>
      </trkpt>
      <trkpt lat="43.35738" lon="0.70365">
        <ele>294</ele>
        <time>2021-05-31T21:20:46Z</time>
      </trkpt>
      <trkpt lat="43.35767" lon="0.7048">
        <ele>292</ele>
        <time>2021-05-31T21:21:07Z</time>
      </trkpt>
      <trkpt lat="43.35779" lon="0.70508">
        <ele>290</ele>
        <time>2021-05-31T21:21:12Z</time>
      </trkpt>
      <trkpt lat="43.35837" lon="0.70602">
        <ele>280</ele>
        <time>2021-05-31T21:21:33Z</time>
      </trkpt>
      <trkpt lat="43.35856" lon="0.70623">
        <ele>279</ele>
        <time>2021-05-31T21:21:39Z</time>
      </trkpt>
      <trkpt lat="43.35873" lon="0.70629">
        <ele>279</ele>
        <time>2021-05-31T21:21:43Z</time>
      </trkpt>
      <trkpt lat="43.35886" lon="0.70627">
        <ele>280</ele>
        <time>2021-05-31T21:21:46Z</time>
      </trkpt>
      <trkpt lat="43.35902" lon="0.70619">
        <ele>280</ele>
        <time>2021-05-31T21:21:50Z</time>
      </trkpt>
      <trkpt lat="43.3592" lon="0.70591">
        <ele>280</ele>
        <time>2021-05-31T21:21:56Z</time>
      </trkpt>
      <trkpt lat="43.35953" lon="0.70508">
        <ele>273</ele>
        <time>2021-05-31T21:22:12Z</time>
      </trkpt>
      <trkpt lat="43.35966" lon="0.70487">
        <ele>271</ele>
        <time>2021-05-31T21:22:17Z</time>
      </trkpt>
      <trkpt lat="43.35974" lon="0.70483">
        <ele>270</ele>
        <time>2021-05-31T21:22:19Z</time>
      </trkpt>
      <trkpt lat="43.35981" lon="0.70485">
        <ele>270</ele>
        <time>2021-05-31T21:22:21Z</time>
      </trkpt>
      <trkpt lat="43.35986" lon="0.70493">
        <ele>271</ele>
        <time>2021-05-31T21:22:23Z</time>
      </trkpt>
      <trkpt lat="43.35996" lon="0.70516">
        <ele>273</ele>
        <time>2021-05-31T21:22:27Z</time>
      </trkpt>
      <trkpt lat="43.36004" lon="0.70523">
        <ele>273</ele>
        <time>2021-05-31T21:22:29Z</time>
      </trkpt>
      <trkpt lat="43.36016" lon="0.70525">
        <ele>273</ele>
        <time>2021-05-31T21:22:32Z</time>
      </trkpt>
      <trkpt lat="43.36032" lon="0.7052">
        <ele>272</ele>
        <time>2021-05-31T21:22:36Z</time>
      </trkpt>
      <trkpt lat="43.36049" lon="0.70506">
        <ele>271</ele>
        <time>2021-05-31T21:22:41Z</time>
      </trkpt>
      <trkpt lat="43.3606" lon="0.70493">
        <ele>269</ele>
        <time>2021-05-31T21:22:44Z</time>
      </trkpt>
      <trkpt lat="43.36067" lon="0.7048">
        <ele>268</ele>
        <time>2021-05-31T21:22:47Z</time>
      </trkpt>
      <trkpt lat="43.36073" lon="0.7046">
        <ele>267</ele>
        <time>2021-05-31T21:22:50Z</time>
      </trkpt>
      <trkpt lat="43.36094" lon="0.70316">
        <ele>255</ele>
        <time>2021-05-31T21:23:15Z</time>
      </trkpt>
      <trkpt lat="43.36105" lon="0.70281">
        <ele>251</ele>
        <time>2021-05-31T21:23:22Z</time>
      </trkpt>
      <trkpt lat="43.36117" lon="0.70261">
        <ele>249</ele>
        <time>2021-05-31T21:23:26Z</time>
      </trkpt>
      <trkpt lat="43.36128" lon="0.70254">
        <ele>248</ele>
        <time>2021-05-31T21:23:29Z</time>
      </trkpt>
      <trkpt lat="43.36144" lon="0.70252">
        <ele>249</ele>
        <time>2021-05-31T21:23:33Z</time>
      </trkpt>
      <trkpt lat="43.36164" lon="0.70253">
        <ele>251</ele>
        <time>2021-05-31T21:23:38Z</time>
      </trkpt>
      <trkpt lat="43.36199" lon="0.7026">
        <ele>249</ele>
        <time>2021-05-31T21:23:46Z</time>
      </trkpt>
      <trkpt lat="43.36227" lon="0.7027">
        <ele>247</ele>
        <time>2021-05-31T21:23:53Z</time>
      </trkpt>
      <trkpt lat="43.36259" lon="0.70292">
        <ele>247</ele>
        <time>2021-05-31T21:24:01Z</time>
      </trkpt>
      <trkpt lat="43.36316" lon="0.70346">
        <ele>246</ele>
        <time>2021-05-31T21:24:17Z</time>
      </trkpt>
      <trkpt lat="43.36336" lon="0.70356">
        <ele>244</ele>
        <time>2021-05-31T21:24:22Z</time>
      </trkpt>
      <trkpt lat="43.36358" lon="0.70361">
        <ele>242</ele>
        <time>2021-05-31T21:24:27Z</time>
      </trkpt>
      <trkpt lat="43.36375" lon="0.70357">
        <ele>240</ele>
        <time>2021-05-31T21:24:31Z</time>
      </trkpt>
      <trkpt lat="43.36392" lon="0.70346">
        <ele>237</ele>
        <time>2021-05-31T21:24:36Z</time>
      </trkpt>
      <trkpt lat="43.36433" lon="0.70293">
        <ele>233</ele>
        <time>2021-05-31T21:24:49Z</time>
      </trkpt>
      <trkpt lat="43.36447" lon="0.70273">
        <ele>233</ele>
        <time>2021-05-31T21:24:54Z</time>
      </trkpt>
      <trkpt lat="43.36462" lon="0.70252">
        <ele>233</ele>
        <time>2021-05-31T21:24:59Z</time>
      </trkpt>
      <trkpt lat="43.36487" lon="0.70218">
        <ele>233</ele>
        <time>2021-05-31T21:25:07Z</time>
      </trkpt>
      <trkpt lat="43.36573" lon="0.70103">
        <ele>237</ele>
        <time>2021-05-31T21:25:35Z</time>
      </trkpt>
      <trkpt lat="43.36592" lon="0.70086">
        <ele>238</ele>
        <time>2021-05-31T21:25:40Z</time>
      </trkpt>
      <trkpt lat="43.36608" lon="0.70075">
        <ele>239</ele>
        <time>2021-05-31T21:25:44Z</time>
      </trkpt>
      <trkpt lat="43.36638" lon="0.70098">
        <ele>240</ele>
        <time>2021-05-31T21:25:52Z</time>
      </trkpt>
      <trkpt lat="43.37015" lon="0.70404">
        <ele>243</ele>
        <time>2021-05-31T21:27:34Z</time>
      </trkpt>
      <trkpt lat="43.37156" lon="0.70527">
        <ele>235</ele>
        <time>2021-05-31T21:28:13Z</time>
      </trkpt>
      <trkpt lat="43.37268" lon="0.70629">
        <ele>235</ele>
        <time>2021-05-31T21:28:45Z</time>
      </trkpt>
      <trkpt lat="43.37414" lon="0.70763">
        <ele>236</ele>
        <time>2021-05-31T21:29:26Z</time>
      </trkpt>
      <trkpt lat="43.37499" lon="0.70841">
        <ele>235</ele>
        <time>2021-05-31T21:29:50Z</time>
      </trkpt>
      <trkpt lat="43.37738" lon="0.7106">
        <ele>226</ele>
        <time>2021-05-31T21:30:57Z</time>
      </trkpt>
      <trkpt lat="43.37964" lon="0.7127">
        <ele>227</ele>
        <time>2021-05-31T21:32:00Z</time>
      </trkpt>
      <trkpt lat="43.38261" lon="0.71538">
        <ele>228</ele>
        <time>2021-05-31T21:33:23Z</time>
      </trkpt>
      <trkpt lat="43.38482" lon="0.71739">
        <ele>228</ele>
        <time>2021-05-31T21:34:25Z</time>
      </trkpt>
      <trkpt lat="43.38535" lon="0.71776">
        <ele>226</ele>
        <time>2021-05-31T21:34:39Z</time>
      </trkpt>
      <trkpt lat="43.38665" lon="0.71826">
        <ele>224</ele>
        <time>2021-05-31T21:35:11Z</time>
      </trkpt>
      <trkpt lat="43.38676" lon="0.7183">
        <ele>224</ele>
        <time>2021-05-31T21:35:13Z</time>
      </trkpt>
      <trkpt lat="43.38709" lon="0.71835">
        <ele>225</ele>
        <time>2021-05-31T21:35:21Z</time>
      </trkpt>
      <trkpt lat="43.38785" lon="0.71833">
        <ele>226</ele>
        <time>2021-05-31T21:35:39Z</time>
      </trkpt>
      <trkpt lat="43.38834" lon="0.7184">
        <ele>226</ele>
        <time>2021-05-31T21:35:50Z</time>
      </trkpt>
      <trkpt lat="43.38976" lon="0.71886">
        <ele>223</ele>
        <time>2021-05-31T21:36:24Z</time>
      </trkpt>
      <trkpt lat="43.39" lon="0.71901">
        <ele>223</ele>
        <time>2021-05-31T21:36:31Z</time>
      </trkpt>
      <trkpt lat="43.3906" lon="0.71954">
        <ele>223</ele>
        <time>2021-05-31T21:36:47Z</time>
      </trkpt>
      <trkpt lat="43.39138" lon="0.72025">
        <ele>221</ele>
        <time>2021-05-31T21:37:09Z</time>
      </trkpt>
      <trkpt lat="43.39301" lon="0.72192">
        <ele>221</ele>
        <time>2021-05-31T21:37:56Z</time>
      </trkpt>
      <trkpt lat="43.39304" lon="0.72196">
        <ele>221</ele>
        <time>2021-05-31T21:37:57Z</time>
      </trkpt>
      <trkpt lat="43.39425" lon="0.72349">
        <ele>226</ele>
        <time>2021-05-31T21:38:36Z</time>
      </trkpt>
      <trkpt lat="43.39457" lon="0.72392">
        <ele>227</ele>
        <time>2021-05-31T21:38:46Z</time>
      </trkpt>
      <trkpt lat="43.39541" lon="0.7254">
        <ele>227</ele>
        <time>2021-05-31T21:39:18Z</time>
      </trkpt>
      <trkpt lat="43.39623" lon="0.72678">
        <ele>228</ele>
        <time>2021-05-31T21:39:48Z</time>
      </trkpt>
      <trkpt lat="43.39672" lon="0.72737">
        <ele>230</ele>
        <time>2021-05-31T21:40:04Z</time>
      </trkpt>
      <trkpt lat="43.39748" lon="0.72822">
        <ele>229</ele>
        <time>2021-05-31T21:40:26Z</time>
      </trkpt>
      <trkpt lat="43.39785" lon="0.72859">
        <ele>228</ele>
        <time>2021-05-31T21:40:37Z</time>
      </trkpt>
      <trkpt lat="43.398" lon="0.7287">
        <ele>228</ele>
        <time>2021-05-31T21:40:41Z</time>
      </trkpt>
      <trkpt lat="43.39817" lon="0.72877">
        <ele>229</ele>
        <time>2021-05-31T21:40:45Z</time>
      </trkpt>
      <trkpt lat="43.39854" lon="0.72882">
        <ele>229</ele>
        <time>2021-05-31T21:40:54Z</time>
      </trkpt>
      <trkpt lat="43.3999" lon="0.72882">
        <ele>229</ele>
        <time>2021-05-31T21:41:26Z</time>
      </trkpt>
      <trkpt lat="43.40161" lon="0.72882">
        <ele>222</ele>
        <time>2021-05-31T21:42:06Z</time>
      </trkpt>
      <trkpt lat="43.40315" lon="0.7288">
        <ele>225</ele>
        <time>2021-05-31T21:42:42Z</time>
      </trkpt>
      <trkpt lat="43.40333" lon="0.7288">
        <ele>226</ele>
        <time>2021-05-31T21:42:46Z</time>
      </trkpt>
      <trkpt lat="43.40339" lon="0.7288">
        <ele>226</ele>
        <time>2021-05-31T21:42:47Z</time>
      </trkpt>
      <trkpt lat="43.40489" lon="0.72875">
        <ele>227</ele>
        <time>2021-05-31T21:43:22Z</time>
      </trkpt>
      <trkpt lat="43.40615" lon="0.72873">
        <ele>227</ele>
        <time>2021-05-31T21:43:52Z</time>
      </trkpt>
      <trkpt lat="43.40815" lon="0.72871">
        <ele>226</ele>
        <time>2021-05-31T21:44:38Z</time>
      </trkpt>
      <trkpt lat="43.41238" lon="0.72862">
        <ele>228</ele>
        <time>2021-05-31T21:46:17Z</time>
      </trkpt>
      <trkpt lat="43.41249" lon="0.72862">
        <ele>229</ele>
        <time>2021-05-31T21:46:20Z</time>
      </trkpt>
      <trkpt lat="43.41735" lon="0.72854">
        <ele>223</ele>
        <time>2021-05-31T21:48:13Z</time>
      </trkpt>
      <trkpt lat="43.418" lon="0.72847">
        <ele>224</ele>
        <time>2021-05-31T21:48:28Z</time>
      </trkpt>
      <trkpt lat="43.41832" lon="0.72843">
        <ele>224</ele>
        <time>2021-05-31T21:48:36Z</time>
      </trkpt>
      <trkpt lat="43.42159" lon="0.72785">
        <ele>222</ele>
        <time>2021-05-31T21:49:53Z</time>
      </trkpt>
      <trkpt lat="43.42288" lon="0.72761">
        <ele>222</ele>
        <time>2021-05-31T21:50:23Z</time>
      </trkpt>
      <trkpt lat="43.42338" lon="0.72752">
        <ele>221</ele>
        <time>2021-05-31T21:50:35Z</time>
      </trkpt>
      <trkpt lat="43.42383" lon="0.72744">
        <ele>220</ele>
        <time>2021-05-31T21:50:46Z</time>
      </trkpt>
      <trkpt lat="43.42423" lon="0.72739">
        <ele>220</ele>
        <time>2021-05-31T21:50:55Z</time>
      </trkpt>
      <trkpt lat="43.42426" lon="0.72738">
        <ele>220</ele>
        <time>2021-05-31T21:50:56Z</time>
      </trkpt>
      <trkpt lat="43.42459" lon="0.72734">
        <ele>219</ele>
        <time>2021-05-31T21:51:04Z</time>
      </trkpt>
      <trkpt lat="43.42476" lon="0.72731">
        <ele>218</ele>
        <time>2021-05-31T21:51:08Z</time>
      </trkpt>
      <trkpt lat="43.42498" lon="0.72733">
        <ele>217</ele>
        <time>2021-05-31T21:51:13Z</time>
      </trkpt>
      <trkpt lat="43.42508" lon="0.72735">
        <ele>217</ele>
        <time>2021-05-31T21:51:15Z</time>
      </trkpt>
      <trkpt lat="43.42633" lon="0.72762">
        <ele>214</ele>
        <time>2021-05-31T21:51:45Z</time>
      </trkpt>
      <trkpt lat="43.42683" lon="0.72775">
        <ele>212</ele>
        <time>2021-05-31T21:51:56Z</time>
      </trkpt>
      <trkpt lat="43.42725" lon="0.72784">
        <ele>211</ele>
        <time>2021-05-31T21:52:06Z</time>
      </trkpt>
      <trkpt lat="43.4311" lon="0.72871">
        <ele>221</ele>
        <time>2021-05-31T21:53:38Z</time>
      </trkpt>
      <trkpt lat="43.43175" lon="0.72885">
        <ele>221</ele>
        <time>2021-05-31T21:53:53Z</time>
      </trkpt>
      <trkpt lat="43.43209" lon="0.7289">
        <ele>220</ele>
        <time>2021-05-31T21:54:01Z</time>
      </trkpt>
      <trkpt lat="43.43242" lon="0.7289">
        <ele>220</ele>
        <time>2021-05-31T21:54:09Z</time>
      </trkpt>
      <trkpt lat="43.43284" lon="0.72886">
        <ele>218</ele>
        <time>2021-05-31T21:54:18Z</time>
      </trkpt>
      <trkpt lat="43.4332" lon="0.72879">
        <ele>216</ele>
        <time>2021-05-31T21:54:27Z</time>
      </trkpt>
      <trkpt lat="43.43397" lon="0.72856">
        <ele>215</ele>
        <time>2021-05-31T21:54:45Z</time>
      </trkpt>
      <trkpt lat="43.43426" lon="0.72851">
        <ele>213</ele>
        <time>2021-05-31T21:54:52Z</time>
      </trkpt>
      <trkpt lat="43.43455" lon="0.72851">
        <ele>211</ele>
        <time>2021-05-31T21:54:59Z</time>
      </trkpt>
      <trkpt lat="43.4349" lon="0.72855">
        <ele>209</ele>
        <time>2021-05-31T21:55:07Z</time>
      </trkpt>
      <trkpt lat="43.43539" lon="0.72867">
        <ele>206</ele>
        <time>2021-05-31T21:55:19Z</time>
      </trkpt>
      <trkpt lat="43.43676" lon="0.72914">
        <ele>203</ele>
        <time>2021-05-31T21:55:52Z</time>
      </trkpt>
      <trkpt lat="43.44431" lon="0.73171">
        <ele>200</ele>
        <time>2021-05-31T21:58:53Z</time>
      </trkpt>
      <trkpt lat="43.44504" lon="0.73196">
        <ele>201</ele>
        <time>2021-05-31T21:59:11Z</time>
      </trkpt>
      <trkpt lat="43.44549" lon="0.73212">
        <ele>202</ele>
        <time>2021-05-31T21:59:22Z</time>
      </trkpt>
      <trkpt lat="43.44614" lon="0.73234">
        <ele>201</ele>
        <time>2021-05-31T21:59:37Z</time>
      </trkpt>
      <trkpt lat="43.44644" lon="0.73244">
        <ele>200</ele>
        <time>2021-05-31T21:59:45Z</time>
      </trkpt>
      <trkpt lat="43.44648" lon="0.73246">
        <ele>200</ele>
        <time>2021-05-31T21:59:46Z</time>
      </trkpt>
      <trkpt lat="43.44918" lon="0.73338">
        <ele>206</ele>
        <time>2021-05-31T22:00:51Z</time>
      </trkpt>
      <trkpt lat="43.4494" lon="0.73346">
        <ele>206</ele>
        <time>2021-05-31T22:00:56Z</time>
      </trkpt>
      <trkpt lat="43.44944" lon="0.73348">
        <ele>206</ele>
        <time>2021-05-31T22:00:57Z</time>
      </trkpt>
      <trkpt lat="43.44943" lon="0.7335">
        <ele>206</ele>
        <time>2021-05-31T22:00:57Z</time>
      </trkpt>
      <trkpt lat="43.44948" lon="0.73356">
        <ele>206</ele>
        <time>2021-05-31T22:00:59Z</time>
      </trkpt>
      <trkpt lat="43.4495" lon="0.73356">
        <ele>206</ele>
        <time>2021-05-31T22:00:59Z</time>
      </trkpt>
      <trkpt lat="43.44952" lon="0.73356">
        <ele>206</ele>
        <time>2021-05-31T22:01:00Z</time>
      </trkpt>
      <trkpt lat="43.44954" lon="0.73354">
        <ele>206</ele>
        <time>2021-05-31T22:01:00Z</time>
      </trkpt>
      <trkpt lat="43.44955" lon="0.73352">
        <ele>206</ele>
        <time>2021-05-31T22:01:01Z</time>
      </trkpt>
      <trkpt lat="43.44958" lon="0.73353">
        <ele>206</ele>
        <time>2021-05-31T22:01:01Z</time>
      </trkpt>
      <trkpt lat="43.45004" lon="0.7337">
        <ele>206</ele>
        <time>2021-05-31T22:01:13Z</time>
      </trkpt>
      <trkpt lat="43.4501" lon="0.73372">
        <ele>206</ele>
        <time>2021-05-31T22:01:14Z</time>
      </trkpt>
      <trkpt lat="43.45042" lon="0.7338">
        <ele>205</ele>
        <time>2021-05-31T22:01:22Z</time>
      </trkpt>
      <trkpt lat="43.45058" lon="0.73384">
        <ele>205</ele>
        <time>2021-05-31T22:01:25Z</time>
      </trkpt>
      <trkpt lat="43.45072" lon="0.73386">
        <ele>204</ele>
        <time>2021-05-31T22:01:29Z</time>
      </trkpt>
      <trkpt lat="43.45302" lon="0.73418">
        <ele>205</ele>
        <time>2021-05-31T22:02:23Z</time>
      </trkpt>
      <trkpt lat="43.45323" lon="0.73421">
        <ele>205</ele>
        <time>2021-05-31T22:02:28Z</time>
      </trkpt>
      <trkpt lat="43.45366" lon="0.73433">
        <ele>207</ele>
        <time>2021-05-31T22:02:38Z</time>
      </trkpt>
      <trkpt lat="43.45526" lon="0.73495">
        <ele>208</ele>
        <time>2021-05-31T22:03:17Z</time>
      </trkpt>
      <trkpt lat="43.45606" lon="0.73525">
        <ele>208</ele>
        <time>2021-05-31T22:03:36Z</time>
      </trkpt>
      <trkpt lat="43.45666" lon="0.73548">
        <ele>209</ele>
        <time>2021-05-31T22:03:51Z</time>
      </trkpt>
      <trkpt lat="43.45739" lon="0.73576">
        <ele>207</ele>
        <time>2021-05-31T22:04:08Z</time>
      </trkpt>
      <trkpt lat="43.45764" lon="0.73584">
        <ele>207</ele>
        <time>2021-05-31T22:04:14Z</time>
      </trkpt>
      <trkpt lat="43.45796" lon="0.7359">
        <ele>206</ele>
        <time>2021-05-31T22:04:22Z</time>
      </trkpt>
      <trkpt lat="43.45819" lon="0.73589">
        <ele>206</ele>
        <time>2021-05-31T22:04:27Z</time>
      </trkpt>
      <trkpt lat="43.45844" lon="0.73586">
        <ele>205</ele>
        <time>2021-05-31T22:04:33Z</time>
      </trkpt>
      <trkpt lat="43.45884" lon="0.73576">
        <ele>204</ele>
        <time>2021-05-31T22:04:43Z</time>
      </trkpt>
      <trkpt lat="43.4592" lon="0.73566">
        <ele>202</ele>
        <time>2021-05-31T22:04:51Z</time>
      </trkpt>
      <trkpt lat="43.45941" lon="0.73565">
        <ele>201</ele>
        <time>2021-05-31T22:04:56Z</time>
      </trkpt>
      <trkpt lat="43.45955" lon="0.73567">
        <ele>200</ele>
        <time>2021-05-31T22:04:59Z</time>
      </trkpt>
      <trkpt lat="43.45979" lon="0.73575">
        <ele>199</ele>
        <time>2021-05-31T22:05:05Z</time>
      </trkpt>
      <trkpt lat="43.45995" lon="0.73583">
        <ele>197</ele>
        <time>2021-05-31T22:05:09Z</time>
      </trkpt>
      <trkpt lat="43.46433" lon="0.7381">
        <ele>195</ele>
        <time>2021-05-31T22:06:58Z</time>
      </trkpt>
      <trkpt lat="43.46456" lon="0.73822">
        <ele>195</ele>
        <time>2021-05-31T22:07:04Z</time>
      </trkpt>
      <trkpt lat="43.46727" lon="0.73961">
        <ele>199</ele>
        <time>2021-05-31T22:08:12Z</time>
      </trkpt>
      <trkpt lat="43.46826" lon="0.74012">
        <ele>198</ele>
        <time>2021-05-31T22:08:36Z</time>
      </trkpt>
      <trkpt lat="43.47078" lon="0.74142">
        <ele>198</ele>
        <time>2021-05-31T22:09:39Z</time>
      </trkpt>
      <trkpt lat="43.47327" lon="0.74272">
        <ele>196</ele>
        <time>2021-05-31T22:10:41Z</time>
      </trkpt>
      <trkpt lat="43.47411" lon="0.74315">
        <ele>199</ele>
        <time>2021-05-31T22:11:02Z</time>
      </trkpt>
      <trkpt lat="43.47644" lon="0.74436">
        <ele>198</ele>
        <time>2021-05-31T22:12:00Z</time>
      </trkpt>
      <trkpt lat="43.48004" lon="0.74622">
        <ele>193</ele>
        <time>2021-05-31T22:13:30Z</time>
      </trkpt>
      <trkpt lat="43.48169" lon="0.74706">
        <ele>190</ele>
        <time>2021-05-31T22:14:11Z</time>
      </trkpt>
      <trkpt lat="43.48194" lon="0.74722">
        <ele>191</ele>
        <time>2021-05-31T22:14:18Z</time>
      </trkpt>
      <trkpt lat="43.48324" lon="0.74819">
        <ele>191</ele>
        <time>2021-05-31T22:14:52Z</time>
      </trkpt>
      <trkpt lat="43.48432" lon="0.74897">
        <ele>189</ele>
        <time>2021-05-31T22:15:21Z</time>
      </trkpt>
      <trkpt lat="43.48789" lon="0.75157">
        <ele>187</ele>
        <time>2021-05-31T22:16:55Z</time>
      </trkpt>
      <trkpt lat="43.48851" lon="0.75202">
        <ele>187</ele>
        <time>2021-05-31T22:17:11Z</time>
      </trkpt>
      <trkpt lat="43.48867" lon="0.75213">
        <ele>188</ele>
        <time>2021-05-31T22:17:16Z</time>
      </trkpt>
      <trkpt lat="43.49543" lon="0.75698">
        <ele>193</ele>
        <time>2021-05-31T22:20:13Z</time>
      </trkpt>
      <trkpt lat="43.49592" lon="0.75733">
        <ele>192</ele>
        <time>2021-05-31T22:20:26Z</time>
      </trkpt>
      <trkpt lat="43.49639" lon="0.75758">
        <ele>192</ele>
        <time>2021-05-31T22:20:38Z</time>
      </trkpt>
      <trkpt lat="43.49694" lon="0.75771">
        <ele>192</ele>
        <time>2021-05-31T22:20:51Z</time>
      </trkpt>
      <trkpt lat="43.49755" lon="0.75768">
        <ele>194</ele>
        <time>2021-05-31T22:21:05Z</time>
      </trkpt>
      <trkpt lat="43.50486" lon="0.75633">
        <ele>211</ele>
        <time>2021-05-31T22:23:58Z</time>
      </trkpt>
      <trkpt lat="43.50805" lon="0.756">
        <ele>210</ele>
        <time>2021-05-31T22:25:12Z</time>
      </trkpt>
      <trkpt lat="43.50889" lon="0.75591">
        <ele>211</ele>
        <time>2021-05-31T22:25:32Z</time>
      </trkpt>
      <trkpt lat="43.50926" lon="0.75587">
        <ele>211</ele>
        <time>2021-05-31T22:25:41Z</time>
      </trkpt>
      <trkpt lat="43.51152" lon="0.75564">
        <ele>212</ele>
        <time>2021-05-31T22:26:34Z</time>
      </trkpt>
      <trkpt lat="43.51253" lon="0.75555">
        <ele>212</ele>
        <time>2021-05-31T22:26:57Z</time>
      </trkpt>
      <trkpt lat="43.51299" lon="0.75551">
        <ele>211</ele>
        <time>2021-05-31T22:27:08Z</time>
      </trkpt>
      <trkpt lat="43.51303" lon="0.75551">
        <ele>210</ele>
        <time>2021-05-31T22:27:09Z</time>
      </trkpt>
      <trkpt lat="43.51412" lon="0.75563">
        <ele>207</ele>
        <time>2021-05-31T22:27:34Z</time>
      </trkpt>
      <trkpt lat="43.51508" lon="0.75593">
        <ele>205</ele>
        <time>2021-05-31T22:27:57Z</time>
      </trkpt>
      <trkpt lat="43.51592" lon="0.75638">
        <ele>202</ele>
        <time>2021-05-31T22:28:19Z</time>
      </trkpt>
      <trkpt lat="43.51745" lon="0.75744">
        <ele>200</ele>
        <time>2021-05-31T22:28:59Z</time>
      </trkpt>
      <trkpt lat="43.51753" lon="0.75749">
        <ele>200</ele>
        <time>2021-05-31T22:29:01Z</time>
      </trkpt>
      <trkpt lat="43.51912" lon="0.75853">
        <ele>199</ele>
        <time>2021-05-31T22:29:42Z</time>
      </trkpt>
      <trkpt lat="43.5198" lon="0.75897">
        <ele>199</ele>
        <time>2021-05-31T22:29:59Z</time>
      </trkpt>
      <trkpt lat="43.52008" lon="0.75919">
        <ele>200</ele>
        <time>2021-05-31T22:30:07Z</time>
      </trkpt>
      <trkpt lat="43.52034" lon="0.75943">
        <ele>200</ele>
        <time>2021-05-31T22:30:14Z</time>
      </trkpt>
      <trkpt lat="43.52061" lon="0.75976">
        <ele>200</ele>
        <time>2021-05-31T22:30:22Z</time>
      </trkpt>
      <trkpt lat="43.52084" lon="0.76016">
        <ele>199</ele>
        <time>2021-05-31T22:30:31Z</time>
      </trkpt>
      <trkpt lat="43.52095" lon="0.7605">
        <ele>198</ele>
        <time>2021-05-31T22:30:37Z</time>
      </trkpt>
      <trkpt lat="43.52098" lon="0.7606">
        <ele>197</ele>
        <time>2021-05-31T22:30:39Z</time>
      </trkpt>
      <trkpt lat="43.52107" lon="0.7609">
        <ele>197</ele>
        <time>2021-05-31T22:30:45Z</time>
      </trkpt>
      <trkpt lat="43.52114" lon="0.76109">
        <ele>197</ele>
        <time>2021-05-31T22:30:48Z</time>
      </trkpt>
      <trkpt lat="43.52119" lon="0.76124">
        <ele>197</ele>
        <time>2021-05-31T22:30:51Z</time>
      </trkpt>
      <trkpt lat="43.52126" lon="0.76146">
        <ele>197</ele>
        <time>2021-05-31T22:30:55Z</time>
      </trkpt>
      <trkpt lat="43.52148" lon="0.76217">
        <ele>198</ele>
        <time>2021-05-31T22:31:08Z</time>
      </trkpt>
      <trkpt lat="43.52159" lon="0.76237">
        <ele>198</ele>
        <time>2021-05-31T22:31:13Z</time>
      </trkpt>
      <trkpt lat="43.52191" lon="0.76258">
        <ele>199</ele>
        <time>2021-05-31T22:31:21Z</time>
      </trkpt>
      <trkpt lat="43.52201" lon="0.76266">
        <ele>199</ele>
        <time>2021-05-31T22:31:24Z</time>
      </trkpt>
      <trkpt lat="43.52212" lon="0.76275">
        <ele>199</ele>
        <time>2021-05-31T22:31:27Z</time>
      </trkpt>
      <trkpt lat="43.52211" lon="0.7631">
        <ele>198</ele>
        <time>2021-05-31T22:31:32Z</time>
      </trkpt>
      <trkpt lat="43.52207" lon="0.76342">
        <ele>196</ele>
        <time>2021-05-31T22:31:38Z</time>
      </trkpt>
      <trkpt lat="43.52203" lon="0.76381">
        <ele>193</ele>
        <time>2021-05-31T22:31:45Z</time>
      </trkpt>
      <trkpt lat="43.52198" lon="0.76424">
        <ele>190</ele>
        <time>2021-05-31T22:31:52Z</time>
      </trkpt>
      <trkpt lat="43.52195" lon="0.76458">
        <ele>189</ele>
        <time>2021-05-31T22:31:58Z</time>
      </trkpt>
      <trkpt lat="43.52189" lon="0.76499">
        <ele>187</ele>
        <time>2021-05-31T22:32:05Z</time>
      </trkpt>
      <trkpt lat="43.52188" lon="0.7651">
        <ele>186</ele>
        <time>2021-05-31T22:32:07Z</time>
      </trkpt>
      <trkpt lat="43.52164" lon="0.76623">
        <ele>182</ele>
        <time>2021-05-31T22:32:27Z</time>
      </trkpt>
      <trkpt lat="43.52259" lon="0.76657">
        <ele>180</ele>
        <time>2021-05-31T22:32:50Z</time>
      </trkpt>
      <trkpt lat="43.52258" lon="0.76682">
        <ele>179</ele>
        <time>2021-05-31T22:32:54Z</time>
      </trkpt>
      <trkpt lat="43.5225" lon="0.76789">
        <ele>181</ele>
        <time>2021-05-31T22:33:12Z</time>
      </trkpt>
      <trkpt lat="43.52249" lon="0.76804">
        <ele>181</ele>
        <time>2021-05-31T22:33:15Z</time>
      </trkpt>
      <trkpt lat="43.52233" lon="0.77051">
        <ele>177</ele>
        <time>2021-05-31T22:33:57Z</time>
      </trkpt>
      <trkpt lat="43.52232" lon="0.77064">
        <ele>177</ele>
        <time>2021-05-31T22:33:59Z</time>
      </trkpt>
      <trkpt lat="43.5222" lon="0.77246">
        <ele>183</ele>
        <time>2021-05-31T22:34:30Z</time>
      </trkpt>
      <trkpt lat="43.52219" lon="0.7726">
        <ele>183</ele>
        <time>2021-05-31T22:34:32Z</time>
      </trkpt>
      <trkpt lat="43.52209" lon="0.77291">
        <ele>186</ele>
        <time>2021-05-31T22:34:38Z</time>
      </trkpt>
      <trkpt lat="43.52252" lon="0.77303">
        <ele>186</ele>
        <time>2021-05-31T22:34:48Z</time>
      </trkpt>
      <trkpt lat="43.52405" lon="0.7734">
        <ele>179</ele>
        <time>2021-05-31T22:35:24Z</time>
      </trkpt>
      <trkpt lat="43.52423" lon="0.77342">
        <ele>179</ele>
        <time>2021-05-31T22:35:29Z</time>
      </trkpt>
      <trkpt lat="43.52453" lon="0.77333">
        <ele>177</ele>
        <time>2021-05-31T22:35:36Z</time>
      </trkpt>
      <trkpt lat="43.52481" lon="0.77334">
        <ele>176</ele>
        <time>2021-05-31T22:35:42Z</time>
      </trkpt>
      <trkpt lat="43.52598" lon="0.77369">
        <ele>176</ele>
        <time>2021-05-31T22:36:10Z</time>
      </trkpt>
      <trkpt lat="43.52726" lon="0.77388">
        <ele>175</ele>
        <time>2021-05-31T22:36:40Z</time>
      </trkpt>
      <trkpt lat="43.52776" lon="0.7739">
        <ele>175</ele>
        <time>2021-05-31T22:36:52Z</time>
      </trkpt>
      <trkpt lat="43.52804" lon="0.77384">
        <ele>175</ele>
        <time>2021-05-31T22:36:59Z</time>
      </trkpt>
      <trkpt lat="43.52897" lon="0.77356">
        <ele>176</ele>
        <time>2021-05-31T22:37:21Z</time>
      </trkpt>
      <trkpt lat="43.52927" lon="0.77351">
        <ele>175</ele>
        <time>2021-05-31T22:37:28Z</time>
      </trkpt>
      <trkpt lat="43.5295" lon="0.77355">
        <ele>175</ele>
        <time>2021-05-31T22:37:33Z</time>
      </trkpt>
      <trkpt lat="43.5299" lon="0.77371">
        <ele>177</ele>
        <time>2021-05-31T22:37:43Z</time>
      </trkpt>
      <trkpt lat="43.5303" lon="0.77381">
        <ele>178</ele>
        <time>2021-05-31T22:37:53Z</time>
      </trkpt>
      <trkpt lat="43.53069" lon="0.77382">
        <ele>178</ele>
        <time>2021-05-31T22:38:02Z</time>
      </trkpt>
      <trkpt lat="43.53094" lon="0.7739">
        <ele>178</ele>
        <time>2021-05-31T22:38:08Z</time>
      </trkpt>
      <trkpt lat="43.53164" lon="0.7747">
        <ele>175</ele>
        <time>2021-05-31T22:38:29Z</time>
      </trkpt>
      <trkpt lat="43.53295" lon="0.77578">
        <ele>172</ele>
        <time>2021-05-31T22:39:05Z</time>
      </trkpt>
      <trkpt lat="43.5332" lon="0.77605">
        <ele>172</ele>
        <time>2021-05-31T22:39:12Z</time>
      </trkpt>
      <trkpt lat="43.53343" lon="0.77634">
        <ele>171</ele>
        <time>2021-05-31T22:39:19Z</time>
      </trkpt>
      <trkpt lat="43.53363" lon="0.77669">
        <ele>171</ele>
        <time>2021-05-31T22:39:27Z</time>
      </trkpt>
      <trkpt lat="43.53397" lon="0.77752">
        <ele>171</ele>
        <time>2021-05-31T22:39:43Z</time>
      </trkpt>
      <trkpt lat="43.53472" lon="0.77889">
        <ele>175</ele>
        <time>2021-05-31T22:40:12Z</time>
      </trkpt>
      <trkpt lat="43.53528" lon="0.78012">
        <ele>176</ele>
        <time>2021-05-31T22:40:37Z</time>
      </trkpt>
      <trkpt lat="43.53568" lon="0.78072">
        <ele>177</ele>
        <time>2021-05-31T22:40:50Z</time>
      </trkpt>
      <trkpt lat="43.5362" lon="0.78116">
        <ele>176</ele>
        <time>2021-05-31T22:41:05Z</time>
      </trkpt>
      <trkpt lat="43.5366" lon="0.7814">
        <ele>174</ele>
        <time>2021-05-31T22:41:15Z</time>
      </trkpt>
      <trkpt lat="43.53685" lon="0.78148">
        <ele>173</ele>
        <time>2021-05-31T22:41:21Z</time>
      </trkpt>
      <trkpt lat="43.53731" lon="0.78156">
        <ele>171</ele>
        <time>2021-05-31T22:41:32Z</time>
      </trkpt>
      <trkpt lat="43.53769" lon="0.78175">
        <ele>170</ele>
        <time>2021-05-31T22:41:41Z</time>
      </trkpt>
      <trkpt lat="43.53829" lon="0.78223">
        <ele>170</ele>
        <time>2021-05-31T22:41:57Z</time>
      </trkpt>
      <trkpt lat="43.53857" lon="0.78253">
        <ele>170</ele>
        <time>2021-05-31T22:42:06Z</time>
      </trkpt>
      <trkpt lat="43.53876" lon="0.78279">
        <ele>171</ele>
        <time>2021-05-31T22:42:12Z</time>
      </trkpt>
      <trkpt lat="43.53903" lon="0.78332">
        <ele>173</ele>
        <time>2021-05-31T22:42:23Z</time>
      </trkpt>
      <trkpt lat="43.53925" lon="0.78397">
        <ele>172</ele>
        <time>2021-05-31T22:42:35Z</time>
      </trkpt>
      <trkpt lat="43.5396" lon="0.78535">
        <ele>173</ele>
        <time>2021-05-31T22:43:00Z</time>
      </trkpt>
      <trkpt lat="43.53974" lon="0.78568">
        <ele>173</ele>
        <time>2021-05-31T22:43:06Z</time>
      </trkpt>
      <trkpt lat="43.53987" lon="0.78592">
        <ele>172</ele>
        <time>2021-05-31T22:43:11Z</time>
      </trkpt>
      <trkpt lat="43.54003" lon="0.78613">
        <ele>172</ele>
        <time>2021-05-31T22:43:16Z</time>
      </trkpt>
      <trkpt lat="43.54124" lon="0.7871">
        <ele>169</ele>
        <time>2021-05-31T22:43:49Z</time>
      </trkpt>
      <trkpt lat="43.54154" lon="0.78741">
        <ele>169</ele>
        <time>2021-05-31T22:43:58Z</time>
      </trkpt>
      <trkpt lat="43.54185" lon="0.78765">
        <ele>169</ele>
        <time>2021-05-31T22:44:06Z</time>
      </trkpt>
      <trkpt lat="43.54237" lon="0.78802">
        <ele>167</ele>
        <time>2021-05-31T22:44:20Z</time>
      </trkpt>
      <trkpt lat="43.54265" lon="0.7883">
        <ele>167</ele>
        <time>2021-05-31T22:44:28Z</time>
      </trkpt>
      <trkpt lat="43.54297" lon="0.78865">
        <ele>167</ele>
        <time>2021-05-31T22:44:37Z</time>
      </trkpt>
      <trkpt lat="43.54341" lon="0.78939">
        <ele>168</ele>
        <time>2021-05-31T22:44:54Z</time>
      </trkpt>
      <trkpt lat="43.5438" lon="0.7903">
        <ele>169</ele>
        <time>2021-05-31T22:45:11Z</time>
      </trkpt>
      <trkpt lat="43.54386" lon="0.79058">
        <ele>169</ele>
        <time>2021-05-31T22:45:16Z</time>
      </trkpt>
      <trkpt lat="43.54387" lon="0.79085">
        <ele>169</ele>
        <time>2021-05-31T22:45:21Z</time>
      </trkpt>
      <trkpt lat="43.54392" lon="0.79101">
        <ele>169</ele>
        <time>2021-05-31T22:45:24Z</time>
      </trkpt>
      <trkpt lat="43.54422" lon="0.79156">
        <ele>170</ele>
        <time>2021-05-31T22:45:36Z</time>
      </trkpt>
      <trkpt lat="43.54429" lon="0.79176">
        <ele>170</ele>
        <time>2021-05-31T22:45:39Z</time>
      </trkpt>
      <trkpt lat="43.54429" lon="0.79191">
        <ele>170</ele>
        <time>2021-05-31T22:45:42Z</time>
      </trkpt>
      <trkpt lat="43.54425" lon="0.79204">
        <ele>170</ele>
        <time>2021-05-31T22:45:44Z</time>
      </trkpt>
      <trkpt lat="43.54376" lon="0.7926">
        <ele>170</ele>
        <time>2021-05-31T22:45:59Z</time>
      </trkpt>
      <trkpt lat="43.54373" lon="0.7927">
        <ele>170</ele>
        <time>2021-05-31T22:46:01Z</time>
      </trkpt>
      <trkpt lat="43.54376" lon="0.79282">
        <ele>170</ele>
        <time>2021-05-31T22:46:03Z</time>
      </trkpt>
      <trkpt lat="43.54388" lon="0.79292">
        <ele>170</ele>
        <time>2021-05-31T22:46:06Z</time>
      </trkpt>
      <trkpt lat="43.544" lon="0.79295">
        <ele>170</ele>
        <time>2021-05-31T22:46:09Z</time>
      </trkpt>
      <trkpt lat="43.54426" lon="0.79292">
        <ele>171</ele>
        <time>2021-05-31T22:46:15Z</time>
      </trkpt>
      <trkpt lat="43.54446" lon="0.79283">
        <ele>171</ele>
        <time>2021-05-31T22:46:20Z</time>
      </trkpt>
      <trkpt lat="43.54461" lon="0.7927">
        <ele>171</ele>
        <time>2021-05-31T22:46:24Z</time>
      </trkpt>
      <trkpt lat="43.54482" lon="0.79259">
        <ele>171</ele>
        <time>2021-05-31T22:46:30Z</time>
      </trkpt>
      <trkpt lat="43.54503" lon="0.79257">
        <ele>171</ele>
        <time>2021-05-31T22:46:35Z</time>
      </trkpt>
      <trkpt lat="43.54574" lon="0.79284">
        <ele>171</ele>
        <time>2021-05-31T22:46:52Z</time>
      </trkpt>
      <trkpt lat="43.54612" lon="0.79288">
        <ele>170</ele>
        <time>2021-05-31T22:47:01Z</time>
      </trkpt>
      <trkpt lat="43.54682" lon="0.79332">
        <ele>168</ele>
        <time>2021-05-31T22:47:19Z</time>
      </trkpt>
      <trkpt lat="43.54753" lon="0.79366">
        <ele>168</ele>
        <time>2021-05-31T22:47:36Z</time>
      </trkpt>
      <trkpt lat="43.54856" lon="0.79401">
        <ele>167</ele>
        <time>2021-05-31T22:48:01Z</time>
      </trkpt>
      <trkpt lat="43.54892" lon="0.79424">
        <ele>167</ele>
        <time>2021-05-31T22:48:10Z</time>
      </trkpt>
      <trkpt lat="43.54932" lon="0.7947">
        <ele>169</ele>
        <time>2021-05-31T22:48:22Z</time>
      </trkpt>
      <trkpt lat="43.55109" lon="0.79631">
        <ele>167</ele>
        <time>2021-05-31T22:49:12Z</time>
      </trkpt>
      <trkpt lat="43.55145" lon="0.7967">
        <ele>167</ele>
        <time>2021-05-31T22:49:23Z</time>
      </trkpt>
      <trkpt lat="43.55218" lon="0.79774">
        <ele>172</ele>
        <time>2021-05-31T22:49:47Z</time>
      </trkpt>
      <trkpt lat="43.55442" lon="0.79976">
        <ele>169</ele>
        <time>2021-05-31T22:50:50Z</time>
      </trkpt>
      <trkpt lat="43.55466" lon="0.79991">
        <ele>169</ele>
        <time>2021-05-31T22:50:56Z</time>
      </trkpt>
      <trkpt lat="43.55641" lon="0.80082">
        <ele>168</ele>
        <time>2021-05-31T22:51:39Z</time>
      </trkpt>
      <trkpt lat="43.55688" lon="0.80128">
        <ele>168</ele>
        <time>2021-05-31T22:51:53Z</time>
      </trkpt>
      <trkpt lat="43.55873" lon="0.8027">
        <ele>163</ele>
        <time>2021-05-31T22:52:42Z</time>
      </trkpt>
      <trkpt lat="43.55911" lon="0.80295">
        <ele>164</ele>
        <time>2021-05-31T22:52:52Z</time>
      </trkpt>
      <trkpt lat="43.55947" lon="0.80315">
        <ele>165</ele>
        <time>2021-05-31T22:53:01Z</time>
      </trkpt>
      <trkpt lat="43.55962" lon="0.80338">
        <ele>165</ele>
        <time>2021-05-31T22:53:06Z</time>
      </trkpt>
      <trkpt lat="43.56009" lon="0.80454">
        <ele>168</ele>
        <time>2021-05-31T22:53:29Z</time>
      </trkpt>
      <trkpt lat="43.56024" lon="0.80502">
        <ele>167</ele>
        <time>2021-05-31T22:53:38Z</time>
      </trkpt>
      <trkpt lat="43.56076" lon="0.80612">
        <ele>166</ele>
        <time>2021-05-31T22:54:00Z</time>
      </trkpt>
      <trkpt lat="43.56112" lon="0.80665">
        <ele>166</ele>
        <time>2021-05-31T22:54:12Z</time>
      </trkpt>
      <trkpt lat="43.56258" lon="0.8084">
        <ele>164</ele>
        <time>2021-05-31T22:54:57Z</time>
      </trkpt>
      <trkpt lat="43.56471" lon="0.81035">
        <ele>162</ele>
        <time>2021-05-31T22:55:57Z</time>
      </trkpt>
      <trkpt lat="43.56492" lon="0.81059">
        <ele>162</ele>
        <time>2021-05-31T22:56:03Z</time>
      </trkpt>
      <trkpt lat="43.56527" lon="0.81111">
        <ele>164</ele>
        <time>2021-05-31T22:56:15Z</time>
      </trkpt>
      <trkpt lat="43.56587" lon="0.81214">
        <ele>164</ele>
        <time>2021-05-31T22:56:38Z</time>
      </trkpt>
      <trkpt lat="43.56696" lon="0.81383">
        <ele>164</ele>
        <time>2021-05-31T22:57:16Z</time>
      </trkpt>
      <trkpt lat="43.56881" lon="0.81645">
        <ele>166</ele>
        <time>2021-05-31T22:58:18Z</time>
      </trkpt>
      <trkpt lat="43.5693" lon="0.8171">
        <ele>166</ele>
        <time>2021-05-31T22:58:34Z</time>
      </trkpt>
      <trkpt lat="43.57036" lon="0.818">
        <ele>166</ele>
        <time>2021-05-31T22:59:03Z</time>
      </trkpt>
      <trkpt lat="43.57109" lon="0.81869">
        <ele>164</ele>
        <time>2021-05-31T22:59:24Z</time>
      </trkpt>
      <trkpt lat="43.57276" lon="0.82001">
        <ele>163</ele>
        <time>2021-05-31T23:00:09Z</time>
      </trkpt>
      <trkpt lat="43.57301" lon="0.82016">
        <ele>163</ele>
        <time>2021-05-31T23:00:15Z</time>
      </trkpt>
      <trkpt lat="43.57338" lon="0.82041">
        <ele>163</ele>
        <time>2021-05-31T23:00:25Z</time>
      </trkpt>
      <trkpt lat="43.57362" lon="0.82066">
        <ele>163</ele>
        <time>2021-05-31T23:00:32Z</time>
      </trkpt>
      <trkpt lat="43.57379" lon="0.82089">
        <ele>163</ele>
        <time>2021-05-31T23:00:37Z</time>
      </trkpt>
      <trkpt lat="43.57464" lon="0.82156">
        <ele>161</ele>
        <time>2021-05-31T23:01:00Z</time>
      </trkpt>
      <trkpt lat="43.57467" lon="0.82186">
        <ele>162</ele>
        <time>2021-05-31T23:01:05Z</time>
      </trkpt>
      <trkpt lat="43.57458" lon="0.82226">
        <ele>163</ele>
        <time>2021-05-31T23:01:12Z</time>
      </trkpt>
      <trkpt lat="43.57472" lon="0.82239">
        <ele>163</ele>
        <time>2021-05-31T23:01:16Z</time>
      </trkpt>
      <trkpt lat="43.57589" lon="0.82333">
        <ele>162</ele>
        <time>2021-05-31T23:01:48Z</time>
      </trkpt>
      <trkpt lat="43.57616" lon="0.82349">
        <ele>163</ele>
        <time>2021-05-31T23:01:55Z</time>
      </trkpt>
      <trkpt lat="43.57706" lon="0.82376">
        <ele>165</ele>
        <time>2021-05-31T23:02:16Z</time>
      </trkpt>
      <trkpt lat="43.57732" lon="0.82392">
        <ele>166</ele>
        <time>2021-05-31T23:02:23Z</time>
      </trkpt>
      <trkpt lat="43.5788" lon="0.82551">
        <ele>163</ele>
        <time>2021-05-31T23:03:07Z</time>
      </trkpt>
      <trkpt lat="43.57909" lon="0.82587">
        <ele>163</ele>
        <time>2021-05-31T23:03:16Z</time>
      </trkpt>
      <trkpt lat="43.57929" lon="0.82633">
        <ele>163</ele>
        <time>2021-05-31T23:03:25Z</time>
      </trkpt>
      <trkpt lat="43.57956" lon="0.82672">
        <ele>163</ele>
        <time>2021-05-31T23:03:34Z</time>
      </trkpt>
      <trkpt lat="43.5805" lon="0.82775">
        <ele>159</ele>
        <time>2021-05-31T23:04:02Z</time>
      </trkpt>
      <trkpt lat="43.58154" lon="0.82848">
        <ele>158</ele>
        <time>2021-05-31T23:04:29Z</time>
      </trkpt>
      <trkpt lat="43.58249" lon="0.82961">
        <ele>158</ele>
        <time>2021-05-31T23:04:58Z</time>
      </trkpt>
      <trkpt lat="43.58307" lon="0.83062">
        <ele>160</ele>
        <time>2021-05-31T23:05:20Z</time>
      </trkpt>
      <trkpt lat="43.58367" lon="0.83205">
        <ele>160</ele>
        <time>2021-05-31T23:05:48Z</time>
      </trkpt>
      <trkpt lat="43.58412" lon="0.83327">
        <ele>163</ele>
        <time>2021-05-31T23:06:11Z</time>
      </trkpt>
      <trkpt lat="43.58466" lon="0.83435">
        <ele>161</ele>
        <time>2021-05-31T23:06:34Z</time>
      </trkpt>
      <trkpt lat="43.58527" lon="0.83505">
        <ele>161</ele>
        <time>2021-05-31T23:06:52Z</time>
      </trkpt>
      <trkpt lat="43.58643" lon="0.83658">
        <ele>159</ele>
        <time>2021-05-31T23:07:30Z</time>
      </trkpt>
      <trkpt lat="43.58665" lon="0.83695">
        <ele>159</ele>
        <time>2021-05-31T23:07:38Z</time>
      </trkpt>
      <trkpt lat="43.58735" lon="0.83828">
        <ele>159</ele>
        <time>2021-05-31T23:08:05Z</time>
      </trkpt>
      <trkpt lat="43.5895" lon="0.8416">
        <ele>159</ele>
        <time>2021-05-31T23:09:21Z</time>
      </trkpt>
      <trkpt lat="43.59032" lon="0.84284">
        <ele>160</ele>
        <time>2021-05-31T23:09:49Z</time>
      </trkpt>
      <trkpt lat="43.59132" lon="0.84415">
        <ele>161</ele>
        <time>2021-05-31T23:10:21Z</time>
      </trkpt>
      <trkpt lat="43.5918" lon="0.84473">
        <ele>160</ele>
        <time>2021-05-31T23:10:36Z</time>
      </trkpt>
      <trkpt lat="43.59292" lon="0.84592">
        <ele>160</ele>
        <time>2021-05-31T23:11:09Z</time>
      </trkpt>
      <trkpt lat="43.59417" lon="0.84676">
        <ele>159</ele>
        <time>2021-05-31T23:11:42Z</time>
      </trkpt>
      <trkpt lat="43.59573" lon="0.84718">
        <ele>162</ele>
        <time>2021-05-31T23:12:19Z</time>
      </trkpt>
      <trkpt lat="43.59763" lon="0.84836">
        <ele>158</ele>
        <time>2021-05-31T23:13:08Z</time>
      </trkpt>
      <trkpt lat="43.60054" lon="0.85097">
        <ele>156</ele>
        <time>2021-05-31T23:14:29Z</time>
      </trkpt>
      <trkpt lat="43.60129" lon="0.8518">
        <ele>156</ele>
        <time>2021-05-31T23:14:51Z</time>
      </trkpt>
      <trkpt lat="43.60187" lon="0.85239">
        <ele>155</ele>
        <time>2021-05-31T23:15:08Z</time>
      </trkpt>
      <trkpt lat="43.60242" lon="0.85291">
        <ele>153</ele>
        <time>2021-05-31T23:15:23Z</time>
      </trkpt>
      <trkpt lat="43.60278" lon="0.85333">
        <ele>153</ele>
        <time>2021-05-31T23:15:34Z</time>
      </trkpt>
      <trkpt lat="43.60359" lon="0.85443">
        <ele>154</ele>
        <time>2021-05-31T23:16:01Z</time>
      </trkpt>
      <trkpt lat="43.60455" lon="0.85579">
        <ele>157</ele>
        <time>2021-05-31T23:16:33Z</time>
      </trkpt>
      <trkpt lat="43.60535" lon="0.85673">
        <ele>160</ele>
        <time>2021-05-31T23:16:58Z</time>
      </trkpt>
      <trkpt lat="43.60579" lon="0.85713">
        <ele>161</ele>
        <time>2021-05-31T23:17:10Z</time>
      </trkpt>
      <trkpt lat="43.60603" lon="0.85728">
        <ele>161</ele>
        <time>2021-05-31T23:17:16Z</time>
      </trkpt>
      <trkpt lat="43.60628" lon="0.85748">
        <ele>161</ele>
        <time>2021-05-31T23:17:23Z</time>
      </trkpt>
      <trkpt lat="43.60678" lon="0.85812">
        <ele>164</ele>
        <time>2021-05-31T23:17:39Z</time>
      </trkpt>
      <trkpt lat="43.60742" lon="0.85875">
        <ele>164</ele>
        <time>2021-05-31T23:17:57Z</time>
      </trkpt>
      <trkpt lat="43.60798" lon="0.85927">
        <ele>162</ele>
        <time>2021-05-31T23:18:13Z</time>
      </trkpt>
      <trkpt lat="43.60817" lon="0.85935">
        <ele>161</ele>
        <time>2021-05-31T23:18:17Z</time>
      </trkpt>
      <trkpt lat="43.60876" lon="0.85934">
        <ele>160</ele>
        <time>2021-05-31T23:18:31Z</time>
      </trkpt>
      <trkpt lat="43.60952" lon="0.8595">
        <ele>161</ele>
        <time>2021-05-31T23:18:49Z</time>
      </trkpt>
      <trkpt lat="43.60982" lon="0.85965">
        <ele>163</ele>
        <time>2021-05-31T23:18:57Z</time>
      </trkpt>
      <trkpt lat="43.6102" lon="0.86002">
        <ele>164</ele>
        <time>2021-05-31T23:19:07Z</time>
      </trkpt>
      <trkpt lat="43.61212" lon="0.86177">
        <ele>159</ele>
        <time>2021-05-31T23:20:01Z</time>
      </trkpt>
      <trkpt lat="43.61307" lon="0.86271">
        <ele>159</ele>
        <time>2021-05-31T23:20:29Z</time>
      </trkpt>
      <trkpt lat="43.61439" lon="0.86388">
        <ele>153</ele>
        <time>2021-05-31T23:21:05Z</time>
      </trkpt>
      <trkpt lat="43.61557" lon="0.86479">
        <ele>152</ele>
        <time>2021-05-31T23:21:37Z</time>
      </trkpt>
      <trkpt lat="43.61599" lon="0.86517">
        <ele>152</ele>
        <time>2021-05-31T23:21:48Z</time>
      </trkpt>
      <trkpt lat="43.61691" lon="0.86587">
        <ele>151</ele>
        <time>2021-05-31T23:22:13Z</time>
      </trkpt>
      <trkpt lat="43.61718" lon="0.86617">
        <ele>151</ele>
        <time>2021-05-31T23:22:21Z</time>
      </trkpt>
      <trkpt lat="43.61821" lon="0.86752">
        <ele>151</ele>
        <time>2021-05-31T23:22:54Z</time>
      </trkpt>
      <trkpt lat="43.61846" lon="0.86776">
        <ele>151</ele>
        <time>2021-05-31T23:23:01Z</time>
      </trkpt>
      <trkpt lat="43.61949" lon="0.86805">
        <ele>152</ele>
        <time>2021-05-31T23:23:26Z</time>
      </trkpt>
      <trkpt lat="43.62126" lon="0.86878">
        <ele>153</ele>
        <time>2021-05-31T23:24:09Z</time>
      </trkpt>
      <trkpt lat="43.62336" lon="0.86953">
        <ele>154</ele>
        <time>2021-05-31T23:25:00Z</time>
      </trkpt>
      <trkpt lat="43.62493" lon="0.87028">
        <ele>152</ele>
        <time>2021-05-31T23:25:38Z</time>
      </trkpt>
      <trkpt lat="43.62532" lon="0.8705">
        <ele>153</ele>
        <time>2021-05-31T23:25:48Z</time>
      </trkpt>
      <trkpt lat="43.62691" lon="0.87157">
        <ele>159</ele>
        <time>2021-05-31T23:26:30Z</time>
      </trkpt>
      <trkpt lat="43.62779" lon="0.87227">
        <ele>158</ele>
        <time>2021-05-31T23:26:53Z</time>
      </trkpt>
      <trkpt lat="43.62826" lon="0.87275">
        <ele>162</ele>
        <time>2021-05-31T23:27:07Z</time>
      </trkpt>
      <trkpt lat="43.62801" lon="0.87329">
        <ele>166</ele>
        <time>2021-05-31T23:27:18Z</time>
      </trkpt>
      <trkpt lat="43.62777" lon="0.87383">
        <ele>170</ele>
        <time>2021-05-31T23:27:28Z</time>
      </trkpt>
      <trkpt lat="43.62777" lon="0.87383">
        <ele>170</ele>
        <time>2021-05-31T23:27:28Z</time>
      </trkpt>
      <trkpt lat="43.62752" lon="0.87431">
        <ele>177</ele>
        <time>2021-05-31T23:27:38Z</time>
      </trkpt>
      <trkpt lat="43.62751" lon="0.87434">
        <ele>177</ele>
        <time>2021-05-31T23:27:39Z</time>
      </trkpt>
      <trkpt lat="43.62724" lon="0.87481">
        <ele>179</ele>
        <time>2021-05-31T23:27:49Z</time>
      </trkpt>
      <trkpt lat="43.62721" lon="0.87486">
        <ele>179</ele>
        <time>2021-05-31T23:27:50Z</time>
      </trkpt>
      <trkpt lat="43.6272" lon="0.87489">
        <ele>179</ele>
        <time>2021-05-31T23:27:51Z</time>
      </trkpt>
      <trkpt lat="43.62696" lon="0.87529">
        <ele>181</ele>
        <time>2021-05-31T23:28:00Z</time>
      </trkpt>
      <trkpt lat="43.62693" lon="0.87534">
        <ele>181</ele>
        <time>2021-05-31T23:28:01Z</time>
      </trkpt>
      <trkpt lat="43.62689" lon="0.8754">
        <ele>181</ele>
        <time>2021-05-31T23:28:02Z</time>
      </trkpt>
      <trkpt lat="43.62665" lon="0.87586">
        <ele>185</ele>
        <time>2021-05-31T23:28:12Z</time>
      </trkpt>
      <trkpt lat="43.62664" lon="0.87587">
        <ele>185</ele>
        <time>2021-05-31T23:28:12Z</time>
      </trkpt>
      <trkpt lat="43.62635" lon="0.87638">
        <ele>183</ele>
        <time>2021-05-31T23:28:23Z</time>
      </trkpt>
      <trkpt lat="43.62606" lon="0.87689">
        <ele>184</ele>
        <time>2021-05-31T23:28:34Z</time>
      </trkpt>
      <trkpt lat="43.62577" lon="0.87739">
        <ele>186</ele>
        <time>2021-05-31T23:28:45Z</time>
      </trkpt>
      <trkpt lat="43.62576" lon="0.87741">
        <ele>186</ele>
        <time>2021-05-31T23:28:45Z</time>
      </trkpt>
      <trkpt lat="43.62549" lon="0.8779">
        <ele>185</ele>
        <time>2021-05-31T23:28:56Z</time>
      </trkpt>
      <trkpt lat="43.62547" lon="0.87793">
        <ele>186</ele>
        <time>2021-05-31T23:28:56Z</time>
      </trkpt>
      <trkpt lat="43.62525" lon="0.87828">
        <ele>187</ele>
        <time>2021-05-31T23:29:04Z</time>
      </trkpt>
      <trkpt lat="43.62524" lon="0.87831">
        <ele>187</ele>
        <time>2021-05-31T23:29:05Z</time>
      </trkpt>
      <trkpt lat="43.62517" lon="0.87841">
        <ele>187</ele>
        <time>2021-05-31T23:29:07Z</time>
      </trkpt>
      <trkpt lat="43.62499" lon="0.8787">
        <ele>188</ele>
        <time>2021-05-31T23:29:13Z</time>
      </trkpt>
      <trkpt lat="43.6249" lon="0.87888">
        <ele>189</ele>
        <time>2021-05-31T23:29:17Z</time>
      </trkpt>
      <trkpt lat="43.62488" lon="0.87893">
        <ele>189</ele>
        <time>2021-05-31T23:29:18Z</time>
      </trkpt>
      <trkpt lat="43.62463" lon="0.87942">
        <ele>189</ele>
        <time>2021-05-31T23:29:28Z</time>
      </trkpt>
      <trkpt lat="43.62461" lon="0.87946">
        <ele>189</ele>
        <time>2021-05-31T23:29:29Z</time>
      </trkpt>
      <trkpt lat="43.62425" lon="0.88008">
        <ele>190</ele>
        <time>2021-05-31T23:29:43Z</time>
      </trkpt>
      <trkpt lat="43.62399" lon="0.88053">
        <ele>190</ele>
        <time>2021-05-31T23:29:52Z</time>
      </trkpt>
      <trkpt lat="43.62386" lon="0.88076">
        <ele>191</ele>
        <time>2021-05-31T23:29:57Z</time>
      </trkpt>
      <trkpt lat="43.6238" lon="0.88086">
        <ele>191</ele>
        <time>2021-05-31T23:29:59Z</time>
      </trkpt>
      <trkpt lat="43.62374" lon="0.88096">
        <ele>192</ele>
        <time>2021-05-31T23:30:02Z</time>
      </trkpt>
      <trkpt lat="43.62351" lon="0.88138">
        <ele>195</ele>
        <time>2021-05-31T23:30:10Z</time>
      </trkpt>
      <trkpt lat="43.62346" lon="0.88163">
        <ele>196</ele>
        <time>2021-05-31T23:30:15Z</time>
      </trkpt>
      <trkpt lat="43.62342" lon="0.88234">
        <ele>196</ele>
        <time>2021-05-31T23:30:27Z</time>
      </trkpt>
      <trkpt lat="43.62343" lon="0.88255">
        <ele>196</ele>
        <time>2021-05-31T23:30:30Z</time>
      </trkpt>
      <trkpt lat="43.62345" lon="0.88259">
        <ele>196</ele>
        <time>2021-05-31T23:30:31Z</time>
      </trkpt>
      <trkpt lat="43.62342" lon="0.88263">
        <ele>196</ele>
        <time>2021-05-31T23:30:32Z</time>
      </trkpt>
      <trkpt lat="43.62341" lon="0.88271">
        <ele>196</ele>
        <time>2021-05-31T23:30:34Z</time>
      </trkpt>
      <trkpt lat="43.62345" lon="0.88281">
        <ele>196</ele>
        <time>2021-05-31T23:30:36Z</time>
      </trkpt>
      <trkpt lat="43.62346" lon="0.88292">
        <ele>195</ele>
        <time>2021-05-31T23:30:37Z</time>
      </trkpt>
      <trkpt lat="43.62343" lon="0.8836">
        <ele>196</ele>
        <time>2021-05-31T23:30:49Z</time>
      </trkpt>
      <trkpt lat="43.62346" lon="0.88455">
        <ele>196</ele>
        <time>2021-05-31T23:31:05Z</time>
      </trkpt>
      <trkpt lat="43.62352" lon="0.88461">
        <ele>196</ele>
        <time>2021-05-31T23:31:07Z</time>
      </trkpt>
      <trkpt lat="43.62364" lon="0.88461">
        <ele>196</ele>
        <time>2021-05-31T23:31:10Z</time>
      </trkpt>
      <trkpt lat="43.62371" lon="0.88461">
        <ele>196</ele>
        <time>2021-05-31T23:31:11Z</time>
      </trkpt>
      <trkpt lat="43.62378" lon="0.88463">
        <ele>195</ele>
        <time>2021-05-31T23:31:13Z</time>
      </trkpt>
      <trkpt lat="43.62423" lon="0.88487">
        <ele>195</ele>
        <time>2021-05-31T23:31:24Z</time>
      </trkpt>
      <trkpt lat="43.62485" lon="0.88523">
        <ele>196</ele>
        <time>2021-05-31T23:31:40Z</time>
      </trkpt>
      <trkpt lat="43.62535" lon="0.88552">
        <ele>196</ele>
        <time>2021-05-31T23:31:52Z</time>
      </trkpt>
      <trkpt lat="43.62662" lon="0.88617">
        <ele>197</ele>
        <time>2021-05-31T23:32:24Z</time>
      </trkpt>
      <trkpt lat="43.62668" lon="0.88622">
        <ele>197</ele>
        <time>2021-05-31T23:32:26Z</time>
      </trkpt>
      <trkpt lat="43.62785" lon="0.88684">
        <ele>198</ele>
        <time>2021-05-31T23:32:55Z</time>
      </trkpt>
      <trkpt lat="43.62791" lon="0.88687">
        <ele>198</ele>
        <time>2021-05-31T23:32:57Z</time>
      </trkpt>
      <trkpt lat="43.62803" lon="0.88694">
        <ele>198</ele>
        <time>2021-05-31T23:33:00Z</time>
      </trkpt>
      <trkpt lat="43.62831" lon="0.88709">
        <ele>198</ele>
        <time>2021-05-31T23:33:07Z</time>
      </trkpt>
      <trkpt lat="43.62852" lon="0.88721">
        <ele>198</ele>
        <time>2021-05-31T23:33:12Z</time>
      </trkpt>
      <trkpt lat="43.6289" lon="0.88744">
        <ele>199</ele>
        <time>2021-05-31T23:33:22Z</time>
      </trkpt>
      <trkpt lat="43.62895" lon="0.88748">
        <ele>199</ele>
        <time>2021-05-31T23:33:23Z</time>
      </trkpt>
      <trkpt lat="43.62912" lon="0.88765">
        <ele>199</ele>
        <time>2021-05-31T23:33:28Z</time>
      </trkpt>
      <trkpt lat="43.63004" lon="0.88887">
        <ele>197</ele>
        <time>2021-05-31T23:33:58Z</time>
      </trkpt>
      <trkpt lat="43.63008" lon="0.88892">
        <ele>197</ele>
        <time>2021-05-31T23:33:59Z</time>
      </trkpt>
      <trkpt lat="43.63042" lon="0.88938">
        <ele>195</ele>
        <time>2021-05-31T23:34:10Z</time>
      </trkpt>
      <trkpt lat="43.63053" lon="0.88953">
        <ele>194</ele>
        <time>2021-05-31T23:34:14Z</time>
      </trkpt>
      <trkpt lat="43.63074" lon="0.88982">
        <ele>194</ele>
        <time>2021-05-31T23:34:21Z</time>
      </trkpt>
      <trkpt lat="43.63138" lon="0.8907">
        <ele>199</ele>
        <time>2021-05-31T23:34:42Z</time>
      </trkpt>
      <trkpt lat="43.63196" lon="0.89154">
        <ele>201</ele>
        <time>2021-05-31T23:35:01Z</time>
      </trkpt>
      <trkpt lat="43.63197" lon="0.89156">
        <ele>201</ele>
        <time>2021-05-31T23:35:02Z</time>
      </trkpt>
      <trkpt lat="43.63218" lon="0.89184">
        <ele>200</ele>
        <time>2021-05-31T23:35:08Z</time>
      </trkpt>
      <trkpt lat="43.633" lon="0.89311">
        <ele>196</ele>
        <time>2021-05-31T23:35:37Z</time>
      </trkpt>
      <trkpt lat="43.63331" lon="0.89345">
        <ele>195</ele>
        <time>2021-05-31T23:35:46Z</time>
      </trkpt>
      <trkpt lat="43.63363" lon="0.89366">
        <ele>194</ele>
        <time>2021-05-31T23:35:55Z</time>
      </trkpt>
      <trkpt lat="43.63381" lon="0.89373">
        <ele>194</ele>
        <time>2021-05-31T23:35:59Z</time>
      </trkpt>
      <trkpt lat="43.63384" lon="0.89375">
        <ele>194</ele>
        <time>2021-05-31T23:36:00Z</time>
      </trkpt>
      <trkpt lat="43.63417" lon="0.8938">
        <ele>193</ele>
        <time>2021-05-31T23:36:08Z</time>
      </trkpt>
      <trkpt lat="43.63446" lon="0.8939">
        <ele>193</ele>
        <time>2021-05-31T23:36:15Z</time>
      </trkpt>
      <trkpt lat="43.63478" lon="0.8941">
        <ele>194</ele>
        <time>2021-05-31T23:36:23Z</time>
      </trkpt>
      <trkpt lat="43.63547" lon="0.89456">
        <ele>196</ele>
        <time>2021-05-31T23:36:41Z</time>
      </trkpt>
      <trkpt lat="43.63614" lon="0.89492">
        <ele>198</ele>
        <time>2021-05-31T23:36:57Z</time>
      </trkpt>
      <trkpt lat="43.6365" lon="0.89518">
        <ele>199</ele>
        <time>2021-05-31T23:37:07Z</time>
      </trkpt>
      <trkpt lat="43.6366" lon="0.89531">
        <ele>199</ele>
        <time>2021-05-31T23:37:10Z</time>
      </trkpt>
      <trkpt lat="43.63675" lon="0.89544">
        <ele>199</ele>
        <time>2021-05-31T23:37:14Z</time>
      </trkpt>
      <trkpt lat="43.63763" lon="0.8966">
        <ele>195</ele>
        <time>2021-05-31T23:37:43Z</time>
      </trkpt>
      <trkpt lat="43.63804" lon="0.8971">
        <ele>194</ele>
        <time>2021-05-31T23:37:55Z</time>
      </trkpt>
      <trkpt lat="43.63828" lon="0.89724">
        <ele>193</ele>
        <time>2021-05-31T23:38:02Z</time>
      </trkpt>
      <trkpt lat="43.63939" lon="0.89801">
        <ele>192</ele>
        <time>2021-05-31T23:38:31Z</time>
      </trkpt>
      <trkpt lat="43.64007" lon="0.89845">
        <ele>190</ele>
        <time>2021-05-31T23:38:48Z</time>
      </trkpt>
      <trkpt lat="43.64032" lon="0.89866">
        <ele>190</ele>
        <time>2021-05-31T23:38:55Z</time>
      </trkpt>
      <trkpt lat="43.64138" lon="0.89993">
        <ele>190</ele>
        <time>2021-05-31T23:39:28Z</time>
      </trkpt>
      <trkpt lat="43.64171" lon="0.90029">
        <ele>189</ele>
        <time>2021-05-31T23:39:38Z</time>
      </trkpt>
      <trkpt lat="43.64256" lon="0.90135">
        <ele>187</ele>
        <time>2021-05-31T23:40:04Z</time>
      </trkpt>
      <trkpt lat="43.64278" lon="0.90159">
        <ele>189</ele>
        <time>2021-05-31T23:40:11Z</time>
      </trkpt>
      <trkpt lat="43.64299" lon="0.90179">
        <ele>190</ele>
        <time>2021-05-31T23:40:17Z</time>
      </trkpt>
      <trkpt lat="43.6433" lon="0.90201">
        <ele>191</ele>
        <time>2021-05-31T23:40:25Z</time>
      </trkpt>
      <trkpt lat="43.6458" lon="0.90336">
        <ele>198</ele>
        <time>2021-05-31T23:41:28Z</time>
      </trkpt>
      <trkpt lat="43.64607" lon="0.90352">
        <ele>197</ele>
        <time>2021-05-31T23:41:34Z</time>
      </trkpt>
      <trkpt lat="43.64652" lon="0.90385">
        <ele>195</ele>
        <time>2021-05-31T23:41:46Z</time>
      </trkpt>
      <trkpt lat="43.6467" lon="0.904">
        <ele>194</ele>
        <time>2021-05-31T23:41:51Z</time>
      </trkpt>
      <trkpt lat="43.64688" lon="0.90419">
        <ele>193</ele>
        <time>2021-05-31T23:41:57Z</time>
      </trkpt>
      <trkpt lat="43.64704" lon="0.90441">
        <ele>191</ele>
        <time>2021-05-31T23:42:02Z</time>
      </trkpt>
      <trkpt lat="43.64748" lon="0.90544">
        <ele>187</ele>
        <time>2021-05-31T23:42:22Z</time>
      </trkpt>
      <trkpt lat="43.648" lon="0.90672">
        <ele>192</ele>
        <time>2021-05-31T23:42:47Z</time>
      </trkpt>
      <trkpt lat="43.6485" lon="0.90771">
        <ele>194</ele>
        <time>2021-05-31T23:43:07Z</time>
      </trkpt>
      <trkpt lat="43.64877" lon="0.9081">
        <ele>193</ele>
        <time>2021-05-31T23:43:16Z</time>
      </trkpt>
      <trkpt lat="43.64912" lon="0.90853">
        <ele>193</ele>
        <time>2021-05-31T23:43:27Z</time>
      </trkpt>
      <trkpt lat="43.64955" lon="0.90894">
        <ele>191</ele>
        <time>2021-05-31T23:43:39Z</time>
      </trkpt>
      <trkpt lat="43.6497" lon="0.90907">
        <ele>190</ele>
        <time>2021-05-31T23:43:44Z</time>
      </trkpt>
      <trkpt lat="43.64983" lon="0.90913">
        <ele>190</ele>
        <time>2021-05-31T23:43:47Z</time>
      </trkpt>
      <trkpt lat="43.65025" lon="0.90939">
        <ele>190</ele>
        <time>2021-05-31T23:43:58Z</time>
      </trkpt>
      <trkpt lat="43.65071" lon="0.9096">
        <ele>192</ele>
        <time>2021-05-31T23:44:09Z</time>
      </trkpt>
      <trkpt lat="43.65104" lon="0.90964">
        <ele>192</ele>
        <time>2021-05-31T23:44:17Z</time>
      </trkpt>
      <trkpt lat="43.65146" lon="0.90973">
        <ele>194</ele>
        <time>2021-05-31T23:44:27Z</time>
      </trkpt>
      <trkpt lat="43.65305" lon="0.90987">
        <ele>190</ele>
        <time>2021-05-31T23:45:04Z</time>
      </trkpt>
      <trkpt lat="43.65345" lon="0.90993">
        <ele>189</ele>
        <time>2021-05-31T23:45:13Z</time>
      </trkpt>
      <trkpt lat="43.65378" lon="0.91007">
        <ele>188</ele>
        <time>2021-05-31T23:45:21Z</time>
      </trkpt>
      <trkpt lat="43.65408" lon="0.91039">
        <ele>187</ele>
        <time>2021-05-31T23:45:30Z</time>
      </trkpt>
      <trkpt lat="43.65428" lon="0.91073">
        <ele>187</ele>
        <time>2021-05-31T23:45:37Z</time>
      </trkpt>
      <trkpt lat="43.65507" lon="0.91162">
        <ele>190</ele>
        <time>2021-05-31T23:46:01Z</time>
      </trkpt>
      <trkpt lat="43.65558" lon="0.91209">
        <ele>189</ele>
        <time>2021-05-31T23:46:16Z</time>
      </trkpt>
      <trkpt lat="43.65614" lon="0.91253">
        <ele>188</ele>
        <time>2021-05-31T23:46:31Z</time>
      </trkpt>
      <trkpt lat="43.65642" lon="0.91282">
        <ele>187</ele>
        <time>2021-05-31T23:46:39Z</time>
      </trkpt>
      <trkpt lat="43.6567" lon="0.91327">
        <ele>185</ele>
        <time>2021-05-31T23:46:49Z</time>
      </trkpt>
      <trkpt lat="43.65735" lon="0.91442">
        <ele>186</ele>
        <time>2021-05-31T23:47:13Z</time>
      </trkpt>
      <trkpt lat="43.65772" lon="0.91494">
        <ele>187</ele>
        <time>2021-05-31T23:47:26Z</time>
      </trkpt>
      <trkpt lat="43.65838" lon="0.91537">
        <ele>188</ele>
        <time>2021-05-31T23:47:43Z</time>
      </trkpt>
      <trkpt lat="43.65893" lon="0.91548">
        <ele>189</ele>
        <time>2021-05-31T23:47:56Z</time>
      </trkpt>
      <trkpt lat="43.65931" lon="0.91552">
        <ele>189</ele>
        <time>2021-05-31T23:48:05Z</time>
      </trkpt>
      <trkpt lat="43.65958" lon="0.91545">
        <ele>188</ele>
        <time>2021-05-31T23:48:11Z</time>
      </trkpt>
      <trkpt lat="43.66053" lon="0.91496">
        <ele>188</ele>
        <time>2021-05-31T23:48:35Z</time>
      </trkpt>
      <trkpt lat="43.6613" lon="0.91451">
        <ele>188</ele>
        <time>2021-05-31T23:48:54Z</time>
      </trkpt>
      <trkpt lat="43.66155" lon="0.91442">
        <ele>189</ele>
        <time>2021-05-31T23:49:00Z</time>
      </trkpt>
      <trkpt lat="43.66244" lon="0.91438">
        <ele>187</ele>
        <time>2021-05-31T23:49:21Z</time>
      </trkpt>
      <trkpt lat="43.66285" lon="0.91426">
        <ele>188</ele>
        <time>2021-05-31T23:49:31Z</time>
      </trkpt>
      <trkpt lat="43.66372" lon="0.91357">
        <ele>188</ele>
        <time>2021-05-31T23:49:54Z</time>
      </trkpt>
      <trkpt lat="43.66385" lon="0.9135">
        <ele>188</ele>
        <time>2021-05-31T23:49:58Z</time>
      </trkpt>
      <trkpt lat="43.66407" lon="0.91347">
        <ele>189</ele>
        <time>2021-05-31T23:50:03Z</time>
      </trkpt>
      <trkpt lat="43.66433" lon="0.91341">
        <ele>190</ele>
        <time>2021-05-31T23:50:09Z</time>
      </trkpt>
      <trkpt lat="43.66523" lon="0.91311">
        <ele>189</ele>
        <time>2021-05-31T23:50:31Z</time>
      </trkpt>
      <trkpt lat="43.66572" lon="0.91302">
        <ele>188</ele>
        <time>2021-05-31T23:50:42Z</time>
      </trkpt>
      <trkpt lat="43.66629" lon="0.91295">
        <ele>187</ele>
        <time>2021-05-31T23:50:55Z</time>
      </trkpt>
      <trkpt lat="43.66724" lon="0.9129">
        <ele>185</ele>
        <time>2021-05-31T23:51:18Z</time>
      </trkpt>
      <trkpt lat="43.66774" lon="0.91297">
        <ele>185</ele>
        <time>2021-05-31T23:51:29Z</time>
      </trkpt>
      <trkpt lat="43.66863" lon="0.91338">
        <ele>186</ele>
        <time>2021-05-31T23:51:51Z</time>
      </trkpt>
      <trkpt lat="43.66888" lon="0.91346">
        <ele>186</ele>
        <time>2021-05-31T23:51:57Z</time>
      </trkpt>
      <trkpt lat="43.67264" lon="0.91436">
        <ele>181</ele>
        <time>2021-05-31T23:53:26Z</time>
      </trkpt>
      <trkpt lat="43.67341" lon="0.91445">
        <ele>182</ele>
        <time>2021-05-31T23:53:44Z</time>
      </trkpt>
      <trkpt lat="43.67419" lon="0.91423">
        <ele>181</ele>
        <time>2021-05-31T23:54:03Z</time>
      </trkpt>
      <trkpt lat="43.67538" lon="0.91387">
        <ele>176</ele>
        <time>2021-05-31T23:54:32Z</time>
      </trkpt>
      <trkpt lat="43.6765" lon="0.91345">
        <ele>172</ele>
        <time>2021-05-31T23:54:59Z</time>
      </trkpt>
      <trkpt lat="43.67701" lon="0.91318">
        <ele>171</ele>
        <time>2021-05-31T23:55:11Z</time>
      </trkpt>
      <trkpt lat="43.67961" lon="0.911">
        <ele>165</ele>
        <time>2021-05-31T23:56:22Z</time>
      </trkpt>
      <trkpt lat="43.68204" lon="0.90894">
        <ele>160</ele>
        <time>2021-05-31T23:57:29Z</time>
      </trkpt>
      <trkpt lat="43.68224" lon="0.90882">
        <ele>159</ele>
        <time>2021-05-31T23:57:34Z</time>
      </trkpt>
      <trkpt lat="43.68239" lon="0.90876">
        <ele>159</ele>
        <time>2021-05-31T23:57:38Z</time>
      </trkpt>
      <trkpt lat="43.68262" lon="0.90876">
        <ele>157</ele>
        <time>2021-05-31T23:57:43Z</time>
      </trkpt>
      <trkpt lat="43.68305" lon="0.90878">
        <ele>155</ele>
        <time>2021-05-31T23:57:53Z</time>
      </trkpt>
      <trkpt lat="43.68545" lon="0.90903">
        <ele>150</ele>
        <time>2021-05-31T23:58:49Z</time>
      </trkpt>
      <trkpt lat="43.68576" lon="0.90908">
        <ele>150</ele>
        <time>2021-05-31T23:58:57Z</time>
      </trkpt>
      <trkpt lat="43.68601" lon="0.90917">
        <ele>148</ele>
        <time>2021-05-31T23:59:03Z</time>
      </trkpt>
      <trkpt lat="43.68638" lon="0.9094">
        <ele>144</ele>
        <time>2021-05-31T23:59:12Z</time>
      </trkpt>
      <trkpt lat="43.68662" lon="0.90961">
        <ele>141</ele>
        <time>2021-05-31T23:59:19Z</time>
      </trkpt>
      <trkpt lat="43.68686" lon="0.90992">
        <ele>138</ele>
        <time>2021-05-31T23:59:26Z</time>
      </trkpt>
      <trkpt lat="43.68715" lon="0.91034">
        <ele>136</ele>
        <time>2021-05-31T23:59:36Z</time>
      </trkpt>
      <trkpt lat="43.68807" lon="0.91124">
        <ele>136</ele>
        <time>2021-06-01T00:00:03Z</time>
      </trkpt>
      <trkpt lat="43.68816" lon="0.91134">
        <ele>136</ele>
        <time>2021-06-01T00:00:05Z</time>
      </trkpt>
      <trkpt lat="43.6884" lon="0.91177">
        <ele>136</ele>
        <time>2021-06-01T00:00:14Z</time>
      </trkpt>
      <trkpt lat="43.68866" lon="0.91225">
        <ele>137</ele>
        <time>2021-06-01T00:00:25Z</time>
      </trkpt>
      <trkpt lat="43.689" lon="0.91275">
        <ele>139</ele>
        <time>2021-06-01T00:00:36Z</time>
      </trkpt>
      <trkpt lat="43.68949" lon="0.9135">
        <ele>143</ele>
        <time>2021-06-01T00:00:53Z</time>
      </trkpt>
      <trkpt lat="43.68963" lon="0.91382">
        <ele>147</ele>
        <time>2021-06-01T00:00:59Z</time>
      </trkpt>
      <trkpt lat="43.68968" lon="0.91381">
        <ele>147</ele>
        <time>2021-06-01T00:01:01Z</time>
      </trkpt>
      <trkpt lat="43.69008" lon="0.9136">
        <ele>146</ele>
        <time>2021-06-01T00:01:29Z</time>
      </trkpt>
      <trkpt lat="43.69043" lon="0.91343">
        <ele>145</ele>
        <time>2021-06-01T00:01:38Z</time>
      </trkpt>
      <trkpt lat="43.69088" lon="0.91314">
        <ele>144</ele>
        <time>2021-06-01T00:01:49Z</time>
      </trkpt>
      <trkpt lat="43.6912" lon="0.91284">
        <ele>140</ele>
        <time>2021-06-01T00:01:58Z</time>
      </trkpt>
      <trkpt lat="43.69135" lon="0.9127">
        <ele>139</ele>
        <time>2021-06-01T00:02:03Z</time>
      </trkpt>
      <trkpt lat="43.69158" lon="0.91237">
        <ele>138</ele>
        <time>2021-06-01T00:02:10Z</time>
      </trkpt>
      <trkpt lat="43.69176" lon="0.91203">
        <ele>138</ele>
        <time>2021-06-01T00:02:17Z</time>
      </trkpt>
      <trkpt lat="43.69182" lon="0.91182">
        <ele>138</ele>
        <time>2021-06-01T00:02:21Z</time>
      </trkpt>
      <trkpt lat="43.692" lon="0.91174">
        <ele>138</ele>
        <time>2021-06-01T00:02:26Z</time>
      </trkpt>
      <trkpt lat="43.69326" lon="0.9111">
        <ele>141</ele>
        <time>2021-06-01T00:02:57Z</time>
      </trkpt>
      <trkpt lat="43.69499" lon="0.90982">
        <ele>137</ele>
        <time>2021-06-01T00:03:43Z</time>
      </trkpt>
      <trkpt lat="43.69532" lon="0.90955">
        <ele>135</ele>
        <time>2021-06-01T00:03:52Z</time>
      </trkpt>
      <trkpt lat="43.6959" lon="0.90894">
        <ele>133</ele>
        <time>2021-06-01T00:04:09Z</time>
      </trkpt>
      <trkpt lat="43.696" lon="0.90878">
        <ele>133</ele>
        <time>2021-06-01T00:04:12Z</time>
      </trkpt>
      <trkpt lat="43.69605" lon="0.90871">
        <ele>134</ele>
        <time>2021-06-01T00:04:14Z</time>
      </trkpt>
      <trkpt lat="43.69748" lon="0.90663">
        <ele>141</ele>
        <time>2021-06-01T00:05:02Z</time>
      </trkpt>
      <trkpt lat="43.69839" lon="0.90553">
        <ele>143</ele>
        <time>2021-06-01T00:05:31Z</time>
      </trkpt>
      <trkpt lat="43.69884" lon="0.90512">
        <ele>141</ele>
        <time>2021-06-01T00:05:43Z</time>
      </trkpt>
      <trkpt lat="43.69929" lon="0.90489">
        <ele>140</ele>
        <time>2021-06-01T00:05:54Z</time>
      </trkpt>
      <trkpt lat="43.69964" lon="0.90476">
        <ele>139</ele>
        <time>2021-06-01T00:06:03Z</time>
      </trkpt>
      <trkpt lat="43.70074" lon="0.90487">
        <ele>138</ele>
        <time>2021-06-01T00:06:29Z</time>
      </trkpt>
      <trkpt lat="43.70102" lon="0.90492">
        <ele>137</ele>
        <time>2021-06-01T00:06:35Z</time>
      </trkpt>
      <trkpt lat="43.70323" lon="0.90557">
        <ele>137</ele>
        <time>2021-06-01T00:07:28Z</time>
      </trkpt>
      <trkpt lat="43.70578" lon="0.90599">
        <ele>137</ele>
        <time>2021-06-01T00:08:28Z</time>
      </trkpt>
      <trkpt lat="43.70613" lon="0.90603">
        <ele>138</ele>
        <time>2021-06-01T00:08:36Z</time>
      </trkpt>
      <trkpt lat="43.7065" lon="0.906">
        <ele>138</ele>
        <time>2021-06-01T00:08:45Z</time>
      </trkpt>
      <trkpt lat="43.70803" lon="0.90566">
        <ele>141</ele>
        <time>2021-06-01T00:09:21Z</time>
      </trkpt>
      <trkpt lat="43.70853" lon="0.90559">
        <ele>142</ele>
        <time>2021-06-01T00:09:33Z</time>
      </trkpt>
      <trkpt lat="43.70935" lon="0.90573">
        <ele>144</ele>
        <time>2021-06-01T00:09:52Z</time>
      </trkpt>
      <trkpt lat="43.71019" lon="0.90546">
        <ele>141</ele>
        <time>2021-06-01T00:10:12Z</time>
      </trkpt>
      <trkpt lat="43.71057" lon="0.90508">
        <ele>138</ele>
        <time>2021-06-01T00:10:23Z</time>
      </trkpt>
      <trkpt lat="43.71121" lon="0.9046">
        <ele>136</ele>
        <time>2021-06-01T00:10:40Z</time>
      </trkpt>
      <trkpt lat="43.71162" lon="0.9045">
        <ele>137</ele>
        <time>2021-06-01T00:10:50Z</time>
      </trkpt>
      <trkpt lat="43.71241" lon="0.90452">
        <ele>138</ele>
        <time>2021-06-01T00:11:08Z</time>
      </trkpt>
      <trkpt lat="43.7134" lon="0.90434">
        <ele>136</ele>
        <time>2021-06-01T00:11:32Z</time>
      </trkpt>
      <trkpt lat="43.71361" lon="0.90438">
        <ele>137</ele>
        <time>2021-06-01T00:11:37Z</time>
      </trkpt>
      <trkpt lat="43.71399" lon="0.90461">
        <ele>137</ele>
        <time>2021-06-01T00:11:46Z</time>
      </trkpt>
      <trkpt lat="43.71424" lon="0.90464">
        <ele>137</ele>
        <time>2021-06-01T00:11:52Z</time>
      </trkpt>
      <trkpt lat="43.71444" lon="0.9045">
        <ele>137</ele>
        <time>2021-06-01T00:11:57Z</time>
      </trkpt>
      <trkpt lat="43.71468" lon="0.90444">
        <ele>138</ele>
        <time>2021-06-01T00:12:03Z</time>
      </trkpt>
      <trkpt lat="43.71504" lon="0.90446">
        <ele>139</ele>
        <time>2021-06-01T00:12:12Z</time>
      </trkpt>
      <trkpt lat="43.71624" lon="0.90448">
        <ele>135</ele>
        <time>2021-06-01T00:12:40Z</time>
      </trkpt>
      <trkpt lat="43.71769" lon="0.90468">
        <ele>135</ele>
        <time>2021-06-01T00:13:14Z</time>
      </trkpt>
      <trkpt lat="43.71958" lon="0.90526">
        <ele>131</ele>
        <time>2021-06-01T00:13:59Z</time>
      </trkpt>
      <trkpt lat="43.72001" lon="0.90547">
        <ele>131</ele>
        <time>2021-06-01T00:14:09Z</time>
      </trkpt>
      <trkpt lat="43.72016" lon="0.90566">
        <ele>132</ele>
        <time>2021-06-01T00:14:14Z</time>
      </trkpt>
      <trkpt lat="43.72022" lon="0.90571">
        <ele>132</ele>
        <time>2021-06-01T00:14:16Z</time>
      </trkpt>
      <trkpt lat="43.72045" lon="0.90605">
        <ele>132</ele>
        <time>2021-06-01T00:14:24Z</time>
      </trkpt>
      <trkpt lat="43.7205" lon="0.9061">
        <ele>132</ele>
        <time>2021-06-01T00:14:25Z</time>
      </trkpt>
      <trkpt lat="43.72055" lon="0.90614">
        <ele>132</ele>
        <time>2021-06-01T00:14:26Z</time>
      </trkpt>
      <trkpt lat="43.72064" lon="0.90622">
        <ele>132</ele>
        <time>2021-06-01T00:14:29Z</time>
      </trkpt>
      <trkpt lat="43.72091" lon="0.90624">
        <ele>132</ele>
        <time>2021-06-01T00:14:35Z</time>
      </trkpt>
      <trkpt lat="43.72153" lon="0.90619">
        <ele>136</ele>
        <time>2021-06-01T00:14:50Z</time>
      </trkpt>
      <trkpt lat="43.7221" lon="0.90622">
        <ele>138</ele>
        <time>2021-06-01T00:15:03Z</time>
      </trkpt>
      <trkpt lat="43.72251" lon="0.90618">
        <ele>138</ele>
        <time>2021-06-01T00:15:13Z</time>
      </trkpt>
      <trkpt lat="43.72282" lon="0.90606">
        <ele>136</ele>
        <time>2021-06-01T00:15:20Z</time>
      </trkpt>
      <trkpt lat="43.72306" lon="0.90593">
        <ele>134</ele>
        <time>2021-06-01T00:15:26Z</time>
      </trkpt>
      <trkpt lat="43.72319" lon="0.90585">
        <ele>133</ele>
        <time>2021-06-01T00:15:30Z</time>
      </trkpt>
      <trkpt lat="43.72379" lon="0.90548">
        <ele>131</ele>
        <time>2021-06-01T00:15:45Z</time>
      </trkpt>
      <trkpt lat="43.72423" lon="0.90537">
        <ele>130</ele>
        <time>2021-06-01T00:15:55Z</time>
      </trkpt>
      <trkpt lat="43.72474" lon="0.90544">
        <ele>130</ele>
        <time>2021-06-01T00:16:07Z</time>
      </trkpt>
      <trkpt lat="43.72556" lon="0.90566">
        <ele>130</ele>
        <time>2021-06-01T00:16:27Z</time>
      </trkpt>
      <trkpt lat="43.72565" lon="0.90567">
        <ele>130</ele>
        <time>2021-06-01T00:16:29Z</time>
      </trkpt>
      <trkpt lat="43.72588" lon="0.90568">
        <ele>129</ele>
        <time>2021-06-01T00:16:34Z</time>
      </trkpt>
      <trkpt lat="43.72782" lon="0.90542">
        <ele>131</ele>
        <time>2021-06-01T00:17:20Z</time>
      </trkpt>
      <trkpt lat="43.72841" lon="0.90525">
        <ele>135</ele>
        <time>2021-06-01T00:17:34Z</time>
      </trkpt>
      <trkpt lat="43.73027" lon="0.90378">
        <ele>130</ele>
        <time>2021-06-01T00:18:24Z</time>
      </trkpt>
      <trkpt lat="43.73036" lon="0.90377">
        <ele>131</ele>
        <time>2021-06-01T00:18:26Z</time>
      </trkpt>
      <trkpt lat="43.73041" lon="0.90379">
        <ele>131</ele>
        <time>2021-06-01T00:18:27Z</time>
      </trkpt>
      <trkpt lat="43.73047" lon="0.9038">
        <ele>131</ele>
        <time>2021-06-01T00:18:29Z</time>
      </trkpt>
      <trkpt lat="43.73063" lon="0.90384">
        <ele>132</ele>
        <time>2021-06-01T00:18:32Z</time>
      </trkpt>
      <trkpt lat="43.7309" lon="0.90394">
        <ele>133</ele>
        <time>2021-06-01T00:18:39Z</time>
      </trkpt>
      <trkpt lat="43.73143" lon="0.9041">
        <ele>134</ele>
        <time>2021-06-01T00:18:52Z</time>
      </trkpt>
      <trkpt lat="43.73278" lon="0.90419">
        <ele>131</ele>
        <time>2021-06-01T00:19:23Z</time>
      </trkpt>
      <trkpt lat="43.73469" lon="0.9047">
        <ele>130</ele>
        <time>2021-06-01T00:20:09Z</time>
      </trkpt>
      <trkpt lat="43.7348" lon="0.90472">
        <ele>130</ele>
        <time>2021-06-01T00:20:11Z</time>
      </trkpt>
      <trkpt lat="43.73482" lon="0.90461">
        <ele>130</ele>
        <time>2021-06-01T00:20:13Z</time>
      </trkpt>
      <trkpt lat="43.7348" lon="0.90472">
        <ele>130</ele>
        <time>2021-06-01T00:20:15Z</time>
      </trkpt>
      <trkpt lat="43.73663" lon="0.90522">
        <ele>129</ele>
        <time>2021-06-01T00:20:59Z</time>
      </trkpt>
      <trkpt lat="43.73689" lon="0.90522">
        <ele>129</ele>
        <time>2021-06-01T00:21:05Z</time>
      </trkpt>
      <trkpt lat="43.73712" lon="0.90516">
        <ele>128</ele>
        <time>2021-06-01T00:21:10Z</time>
      </trkpt>
      <trkpt lat="43.73751" lon="0.90505">
        <ele>127</ele>
        <time>2021-06-01T00:21:19Z</time>
      </trkpt>
      <trkpt lat="43.73784" lon="0.905">
        <ele>127</ele>
        <time>2021-06-01T00:21:27Z</time>
      </trkpt>
      <trkpt lat="43.73851" lon="0.90506">
        <ele>127</ele>
        <time>2021-06-01T00:21:43Z</time>
      </trkpt>
      <trkpt lat="43.73907" lon="0.90514">
        <ele>128</ele>
        <time>2021-06-01T00:21:56Z</time>
      </trkpt>
      <trkpt lat="43.73997" lon="0.90549">
        <ele>129</ele>
        <time>2021-06-01T00:22:18Z</time>
      </trkpt>
      <trkpt lat="43.74095" lon="0.90564">
        <ele>128</ele>
        <time>2021-06-01T00:22:41Z</time>
      </trkpt>
      <trkpt lat="43.74116" lon="0.90567">
        <ele>128</ele>
        <time>2021-06-01T00:22:46Z</time>
      </trkpt>
      <trkpt lat="43.74138" lon="0.90571">
        <ele>129</ele>
        <time>2021-06-01T00:22:51Z</time>
      </trkpt>
      <trkpt lat="43.74256" lon="0.90609">
        <ele>131</ele>
        <time>2021-06-01T00:23:19Z</time>
      </trkpt>
      <trkpt lat="43.74292" lon="0.9061">
        <ele>132</ele>
        <time>2021-06-01T00:23:28Z</time>
      </trkpt>
      <trkpt lat="43.74342" lon="0.90604">
        <ele>132</ele>
        <time>2021-06-01T00:23:39Z</time>
      </trkpt>
      <trkpt lat="43.74367" lon="0.90603">
        <ele>131</ele>
        <time>2021-06-01T00:23:45Z</time>
      </trkpt>
      <trkpt lat="43.74516" lon="0.90651">
        <ele>129</ele>
        <time>2021-06-01T00:24:21Z</time>
      </trkpt>
      <trkpt lat="43.74556" lon="0.90676">
        <ele>129</ele>
        <time>2021-06-01T00:24:31Z</time>
      </trkpt>
      <trkpt lat="43.74582" lon="0.907">
        <ele>129</ele>
        <time>2021-06-01T00:24:39Z</time>
      </trkpt>
      <trkpt lat="43.74689" lon="0.90813">
        <ele>133</ele>
        <time>2021-06-01T00:25:10Z</time>
      </trkpt>
      <trkpt lat="43.74695" lon="0.90817">
        <ele>134</ele>
        <time>2021-06-01T00:25:12Z</time>
      </trkpt>
      <trkpt lat="43.74789" lon="0.90882">
        <ele>144</ele>
        <time>2021-06-01T00:25:36Z</time>
      </trkpt>
      <trkpt lat="43.74853" lon="0.90918">
        <ele>152</ele>
        <time>2021-06-01T00:25:52Z</time>
      </trkpt>
      <trkpt lat="43.74888" lon="0.90945">
        <ele>154</ele>
        <time>2021-06-01T00:26:02Z</time>
      </trkpt>
      <trkpt lat="43.74908" lon="0.90976">
        <ele>156</ele>
        <time>2021-06-01T00:26:09Z</time>
      </trkpt>
      <trkpt lat="43.74939" lon="0.91032">
        <ele>156</ele>
        <time>2021-06-01T00:26:20Z</time>
      </trkpt>
      <trkpt lat="43.7495" lon="0.91078">
        <ele>156</ele>
        <time>2021-06-01T00:26:29Z</time>
      </trkpt>
      <trkpt lat="43.74948" lon="0.91169">
        <ele>156</ele>
        <time>2021-06-01T00:26:44Z</time>
      </trkpt>
      <trkpt lat="43.74968" lon="0.91253">
        <ele>161</ele>
        <time>2021-06-01T00:26:59Z</time>
      </trkpt>
      <trkpt lat="43.75044" lon="0.91459">
        <ele>169</ele>
        <time>2021-06-01T00:27:38Z</time>
      </trkpt>
      <trkpt lat="43.75053" lon="0.91527">
        <ele>172</ele>
        <time>2021-06-01T00:27:50Z</time>
      </trkpt>
      <trkpt lat="43.75072" lon="0.91633">
        <ele>178</ele>
        <time>2021-06-01T00:28:08Z</time>
      </trkpt>
      <trkpt lat="43.75079" lon="0.91666">
        <ele>180</ele>
        <time>2021-06-01T00:28:14Z</time>
      </trkpt>
      <trkpt lat="43.75091" lon="0.91694">
        <ele>181</ele>
        <time>2021-06-01T00:28:19Z</time>
      </trkpt>
      <trkpt lat="43.7511" lon="0.91725">
        <ele>183</ele>
        <time>2021-06-01T00:28:26Z</time>
      </trkpt>
      <trkpt lat="43.75139" lon="0.91763">
        <ele>185</ele>
        <time>2021-06-01T00:28:36Z</time>
      </trkpt>
      <trkpt lat="43.7517" lon="0.91798">
        <ele>185</ele>
        <time>2021-06-01T00:28:45Z</time>
      </trkpt>
      <trkpt lat="43.75197" lon="0.91818">
        <ele>184</ele>
        <time>2021-06-01T00:28:52Z</time>
      </trkpt>
      <trkpt lat="43.75215" lon="0.91826">
        <ele>183</ele>
        <time>2021-06-01T00:28:56Z</time>
      </trkpt>
      <trkpt lat="43.75243" lon="0.91833">
        <ele>181</ele>
        <time>2021-06-01T00:29:03Z</time>
      </trkpt>
      <trkpt lat="43.75306" lon="0.91829">
        <ele>179</ele>
        <time>2021-06-01T00:29:18Z</time>
      </trkpt>
      <trkpt lat="43.75341" lon="0.91834">
        <ele>179</ele>
        <time>2021-06-01T00:29:26Z</time>
      </trkpt>
      <trkpt lat="43.75363" lon="0.91846">
        <ele>179</ele>
        <time>2021-06-01T00:29:32Z</time>
      </trkpt>
      <trkpt lat="43.7543" lon="0.91907">
        <ele>178</ele>
        <time>2021-06-01T00:29:50Z</time>
      </trkpt>
      <trkpt lat="43.75471" lon="0.91937">
        <ele>178</ele>
        <time>2021-06-01T00:30:01Z</time>
      </trkpt>
      <trkpt lat="43.75516" lon="0.91963">
        <ele>179</ele>
        <time>2021-06-01T00:30:12Z</time>
      </trkpt>
      <trkpt lat="43.75608" lon="0.92011">
        <ele>182</ele>
        <time>2021-06-01T00:30:35Z</time>
      </trkpt>
      <trkpt lat="43.75643" lon="0.92032">
        <ele>182</ele>
        <time>2021-06-01T00:30:44Z</time>
      </trkpt>
      <trkpt lat="43.75669" lon="0.92051">
        <ele>181</ele>
        <time>2021-06-01T00:30:51Z</time>
      </trkpt>
      <trkpt lat="43.75721" lon="0.92071">
        <ele>179</ele>
        <time>2021-06-01T00:31:04Z</time>
      </trkpt>
      <trkpt lat="43.75784" lon="0.92079">
        <ele>177</ele>
        <time>2021-06-01T00:31:19Z</time>
      </trkpt>
      <trkpt lat="43.75817" lon="0.92081">
        <ele>176</ele>
        <time>2021-06-01T00:31:26Z</time>
      </trkpt>
      <trkpt lat="43.76014" lon="0.92073">
        <ele>177</ele>
        <time>2021-06-01T00:32:12Z</time>
      </trkpt>
      <trkpt lat="43.76034" lon="0.92075">
        <ele>177</ele>
        <time>2021-06-01T00:32:17Z</time>
      </trkpt>
      <trkpt lat="43.76271" lon="0.92176">
        <ele>165</ele>
        <time>2021-06-01T00:33:15Z</time>
      </trkpt>
      <trkpt lat="43.76328" lon="0.92195">
        <ele>165</ele>
        <time>2021-06-01T00:33:29Z</time>
      </trkpt>
      <trkpt lat="43.76418" lon="0.92205">
        <ele>166</ele>
        <time>2021-06-01T00:33:50Z</time>
      </trkpt>
      <trkpt lat="43.76637" lon="0.9227">
        <ele>158</ele>
        <time>2021-06-01T00:34:42Z</time>
      </trkpt>
      <trkpt lat="43.76826" lon="0.92285">
        <ele>164</ele>
        <time>2021-06-01T00:35:26Z</time>
      </trkpt>
      <trkpt lat="43.76917" lon="0.92375">
        <ele>158</ele>
        <time>2021-06-01T00:35:52Z</time>
      </trkpt>
      <trkpt lat="43.76946" lon="0.92399">
        <ele>157</ele>
        <time>2021-06-01T00:36:00Z</time>
      </trkpt>
      <trkpt lat="43.77009" lon="0.92434">
        <ele>154</ele>
        <time>2021-06-01T00:36:16Z</time>
      </trkpt>
      <trkpt lat="43.77065" lon="0.92471">
        <ele>153</ele>
        <time>2021-06-01T00:36:31Z</time>
      </trkpt>
      <trkpt lat="43.77178" lon="0.92656">
        <ele>143</ele>
        <time>2021-06-01T00:37:11Z</time>
      </trkpt>
      <trkpt lat="43.77347" lon="0.92895">
        <ele>129</ele>
        <time>2021-06-01T00:38:08Z</time>
      </trkpt>
      <trkpt lat="43.77357" lon="0.9291">
        <ele>129</ele>
        <time>2021-06-01T00:38:11Z</time>
      </trkpt>
      <trkpt lat="43.77359" lon="0.92921">
        <ele>129</ele>
        <time>2021-06-01T00:38:13Z</time>
      </trkpt>
      <trkpt lat="43.77418" lon="0.92959">
        <ele>128</ele>
        <time>2021-06-01T00:38:28Z</time>
      </trkpt>
      <trkpt lat="43.77448" lon="0.92962">
        <ele>127</ele>
        <time>2021-06-01T00:38:35Z</time>
      </trkpt>
      <trkpt lat="43.77464" lon="0.92949">
        <ele>127</ele>
        <time>2021-06-01T00:38:40Z</time>
      </trkpt>
      <trkpt lat="43.77475" lon="0.92925">
        <ele>126</ele>
        <time>2021-06-01T00:38:45Z</time>
      </trkpt>
      <trkpt lat="43.77488" lon="0.92878">
        <ele>126</ele>
        <time>2021-06-01T00:38:53Z</time>
      </trkpt>
      <trkpt lat="43.77501" lon="0.92827">
        <ele>126</ele>
        <time>2021-06-01T00:39:02Z</time>
      </trkpt>
      <trkpt lat="43.77515" lon="0.92803">
        <ele>127</ele>
        <time>2021-06-01T00:39:07Z</time>
      </trkpt>
      <trkpt lat="43.77527" lon="0.92794">
        <ele>128</ele>
        <time>2021-06-01T00:39:11Z</time>
      </trkpt>
      <trkpt lat="43.77554" lon="0.92788">
        <ele>128</ele>
        <time>2021-06-01T00:39:17Z</time>
      </trkpt>
      <trkpt lat="43.77608" lon="0.92791">
        <ele>129</ele>
        <time>2021-06-01T00:39:30Z</time>
      </trkpt>
      <trkpt lat="43.7765" lon="0.92789">
        <ele>130</ele>
        <time>2021-06-01T00:39:39Z</time>
      </trkpt>
      <trkpt lat="43.77758" lon="0.92765">
        <ele>129</ele>
        <time>2021-06-01T00:40:05Z</time>
      </trkpt>
      <trkpt lat="43.77788" lon="0.92751">
        <ele>128</ele>
        <time>2021-06-01T00:40:12Z</time>
      </trkpt>
      <trkpt lat="43.77826" lon="0.9272">
        <ele>127</ele>
        <time>2021-06-01T00:40:23Z</time>
      </trkpt>
      <trkpt lat="43.7792" lon="0.92601">
        <ele>124</ele>
        <time>2021-06-01T00:40:52Z</time>
      </trkpt>
      <trkpt lat="43.77951" lon="0.92555">
        <ele>123</ele>
        <time>2021-06-01T00:41:03Z</time>
      </trkpt>
      <trkpt lat="43.77994" lon="0.92455">
        <ele>123</ele>
        <time>2021-06-01T00:41:23Z</time>
      </trkpt>
      <trkpt lat="43.78027" lon="0.9242">
        <ele>124</ele>
        <time>2021-06-01T00:41:32Z</time>
      </trkpt>
      <trkpt lat="43.78063" lon="0.92394">
        <ele>123</ele>
        <time>2021-06-01T00:41:42Z</time>
      </trkpt>
      <trkpt lat="43.78114" lon="0.92384">
        <ele>122</ele>
        <time>2021-06-01T00:41:54Z</time>
      </trkpt>
      <trkpt lat="43.78168" lon="0.92378">
        <ele>121</ele>
        <time>2021-06-01T00:42:06Z</time>
      </trkpt>
      <trkpt lat="43.78204" lon="0.92359">
        <ele>122</ele>
        <time>2021-06-01T00:42:15Z</time>
      </trkpt>
      <trkpt lat="43.78237" lon="0.92349">
        <ele>122</ele>
        <time>2021-06-01T00:42:23Z</time>
      </trkpt>
      <trkpt lat="43.78306" lon="0.92347">
        <ele>123</ele>
        <time>2021-06-01T00:42:39Z</time>
      </trkpt>
      <trkpt lat="43.78358" lon="0.92334">
        <ele>125</ele>
        <time>2021-06-01T00:42:52Z</time>
      </trkpt>
      <trkpt lat="43.78405" lon="0.9232">
        <ele>126</ele>
        <time>2021-06-01T00:43:03Z</time>
      </trkpt>
      <trkpt lat="43.78562" lon="0.92318">
        <ele>132</ele>
        <time>2021-06-01T00:43:40Z</time>
      </trkpt>
      <trkpt lat="43.78603" lon="0.92297">
        <ele>133</ele>
        <time>2021-06-01T00:43:50Z</time>
      </trkpt>
      <trkpt lat="43.78697" lon="0.92246">
        <ele>132</ele>
        <time>2021-06-01T00:44:13Z</time>
      </trkpt>
      <trkpt lat="43.78735" lon="0.92215">
        <ele>130</ele>
        <time>2021-06-01T00:44:24Z</time>
      </trkpt>
      <trkpt lat="43.78845" lon="0.92137">
        <ele>127</ele>
        <time>2021-06-01T00:44:53Z</time>
      </trkpt>
      <trkpt lat="43.78886" lon="0.92089">
        <ele>126</ele>
        <time>2021-06-01T00:45:05Z</time>
      </trkpt>
      <trkpt lat="43.78919" lon="0.92045">
        <ele>124</ele>
        <time>2021-06-01T00:45:16Z</time>
      </trkpt>
      <trkpt lat="43.78944" lon="0.92015">
        <ele>123</ele>
        <time>2021-06-01T00:45:24Z</time>
      </trkpt>
      <trkpt lat="43.7898" lon="0.91964">
        <ele>123</ele>
        <time>2021-06-01T00:45:36Z</time>
      </trkpt>
      <trkpt lat="43.79155" lon="0.91741">
        <ele>122</ele>
        <time>2021-06-01T00:46:31Z</time>
      </trkpt>
      <trkpt lat="43.79194" lon="0.9168">
        <ele>123</ele>
        <time>2021-06-01T00:46:45Z</time>
      </trkpt>
      <trkpt lat="43.79255" lon="0.91597">
        <ele>123</ele>
        <time>2021-06-01T00:47:05Z</time>
      </trkpt>
      <trkpt lat="43.79266" lon="0.91585">
        <ele>124</ele>
        <time>2021-06-01T00:47:08Z</time>
      </trkpt>
      <trkpt lat="43.79283" lon="0.91573">
        <ele>124</ele>
        <time>2021-06-01T00:47:13Z</time>
      </trkpt>
      <trkpt lat="43.79325" lon="0.91555">
        <ele>123</ele>
        <time>2021-06-01T00:47:23Z</time>
      </trkpt>
      <trkpt lat="43.79438" lon="0.91484">
        <ele>122</ele>
        <time>2021-06-01T00:47:52Z</time>
      </trkpt>
      <trkpt lat="43.79675" lon="0.91306">
        <ele>126</ele>
        <time>2021-06-01T00:48:55Z</time>
      </trkpt>
      <trkpt lat="43.79804" lon="0.91218">
        <ele>130</ele>
        <time>2021-06-01T00:49:28Z</time>
      </trkpt>
      <trkpt lat="43.7983" lon="0.91197">
        <ele>131</ele>
        <time>2021-06-01T00:49:35Z</time>
      </trkpt>
      <trkpt lat="43.7986" lon="0.91169">
        <ele>131</ele>
        <time>2021-06-01T00:49:44Z</time>
      </trkpt>
      <trkpt lat="43.79876" lon="0.91149">
        <ele>131</ele>
        <time>2021-06-01T00:49:49Z</time>
      </trkpt>
      <trkpt lat="43.79896" lon="0.91166">
        <ele>130</ele>
        <time>2021-06-01T00:49:54Z</time>
      </trkpt>
      <trkpt lat="43.80068" lon="0.91257">
        <ele>121</ele>
        <time>2021-06-01T00:50:37Z</time>
      </trkpt>
      <trkpt lat="43.80323" lon="0.91403">
        <ele>118</ele>
        <time>2021-06-01T00:51:42Z</time>
      </trkpt>
      <trkpt lat="43.8034" lon="0.91415">
        <ele>118</ele>
        <time>2021-06-01T00:51:46Z</time>
      </trkpt>
      <trkpt lat="43.80429" lon="0.91495">
        <ele>118</ele>
        <time>2021-06-01T00:52:11Z</time>
      </trkpt>
      <trkpt lat="43.80485" lon="0.91538">
        <ele>116</ele>
        <time>2021-06-01T00:52:26Z</time>
      </trkpt>
      <trkpt lat="43.80496" lon="0.91541">
        <ele>116</ele>
        <time>2021-06-01T00:52:29Z</time>
      </trkpt>
      <trkpt lat="43.80502" lon="0.91545">
        <ele>116</ele>
        <time>2021-06-01T00:52:30Z</time>
      </trkpt>
      <trkpt lat="43.80535" lon="0.91592">
        <ele>118</ele>
        <time>2021-06-01T00:52:41Z</time>
      </trkpt>
      <trkpt lat="43.80547" lon="0.9159">
        <ele>118</ele>
        <time>2021-06-01T00:52:44Z</time>
      </trkpt>
      <trkpt lat="43.80615" lon="0.9149">
        <ele>116</ele>
        <time>2021-06-01T00:53:07Z</time>
      </trkpt>
      <trkpt lat="43.80653" lon="0.91439">
        <ele>119</ele>
        <time>2021-06-01T00:53:19Z</time>
      </trkpt>
      <trkpt lat="43.80659" lon="0.91425">
        <ele>119</ele>
        <time>2021-06-01T00:53:22Z</time>
      </trkpt>
      <trkpt lat="43.80663" lon="0.91409">
        <ele>119</ele>
        <time>2021-06-01T00:53:25Z</time>
      </trkpt>
      <trkpt lat="43.8067" lon="0.91367">
        <ele>118</ele>
        <time>2021-06-01T00:53:32Z</time>
      </trkpt>
      <trkpt lat="43.80677" lon="0.91343">
        <ele>117</ele>
        <time>2021-06-01T00:53:37Z</time>
      </trkpt>
      <trkpt lat="43.80686" lon="0.91326">
        <ele>117</ele>
        <time>2021-06-01T00:53:40Z</time>
      </trkpt>
      <trkpt lat="43.807" lon="0.91312">
        <ele>118</ele>
        <time>2021-06-01T00:53:44Z</time>
      </trkpt>
      <trkpt lat="43.80713" lon="0.91305">
        <ele>119</ele>
        <time>2021-06-01T00:53:48Z</time>
      </trkpt>
      <trkpt lat="43.80771" lon="0.91285">
        <ele>121</ele>
        <time>2021-06-01T00:54:02Z</time>
      </trkpt>
      <trkpt lat="43.80891" lon="0.91252">
        <ele>123</ele>
        <time>2021-06-01T00:54:30Z</time>
      </trkpt>
      <trkpt lat="43.80928" lon="0.91246">
        <ele>124</ele>
        <time>2021-06-01T00:54:39Z</time>
      </trkpt>
      <trkpt lat="43.8097" lon="0.91243">
        <ele>126</ele>
        <time>2021-06-01T00:54:49Z</time>
      </trkpt>
      <trkpt lat="43.80978" lon="0.91241">
        <ele>126</ele>
        <time>2021-06-01T00:54:50Z</time>
      </trkpt>
      <trkpt lat="43.81045" lon="0.91227">
        <ele>125</ele>
        <time>2021-06-01T00:55:06Z</time>
      </trkpt>
      <trkpt lat="43.81103" lon="0.91222">
        <ele>123</ele>
        <time>2021-06-01T00:55:20Z</time>
      </trkpt>
      <trkpt lat="43.8113" lon="0.91216">
        <ele>121</ele>
        <time>2021-06-01T00:55:26Z</time>
      </trkpt>
      <trkpt lat="43.81165" lon="0.91209">
        <ele>119</ele>
        <time>2021-06-01T00:55:35Z</time>
      </trkpt>
      <trkpt lat="43.81183" lon="0.9121">
        <ele>118</ele>
        <time>2021-06-01T00:55:39Z</time>
      </trkpt>
      <trkpt lat="43.81197" lon="0.91217">
        <ele>118</ele>
        <time>2021-06-01T00:55:42Z</time>
      </trkpt>
      <trkpt lat="43.81207" lon="0.91229">
        <ele>118</ele>
        <time>2021-06-01T00:55:45Z</time>
      </trkpt>
      <trkpt lat="43.81246" lon="0.91301">
        <ele>119</ele>
        <time>2021-06-01T00:56:00Z</time>
      </trkpt>
      <trkpt lat="43.81288" lon="0.91382">
        <ele>120</ele>
        <time>2021-06-01T00:56:17Z</time>
      </trkpt>
      <trkpt lat="43.81357" lon="0.91486">
        <ele>123</ele>
        <time>2021-06-01T00:56:41Z</time>
      </trkpt>
      <trkpt lat="43.81363" lon="0.91497">
        <ele>123</ele>
        <time>2021-06-01T00:56:43Z</time>
      </trkpt>
      <trkpt lat="43.81377" lon="0.91511">
        <ele>122</ele>
        <time>2021-06-01T00:56:47Z</time>
      </trkpt>
      <trkpt lat="43.81395" lon="0.91529">
        <ele>122</ele>
        <time>2021-06-01T00:56:53Z</time>
      </trkpt>
      <trkpt lat="43.81417" lon="0.91557">
        <ele>122</ele>
        <time>2021-06-01T00:57:00Z</time>
      </trkpt>
      <trkpt lat="43.8159" lon="0.91776">
        <ele>120</ele>
        <time>2021-06-01T00:57:54Z</time>
      </trkpt>
      <trkpt lat="43.81603" lon="0.91794">
        <ele>120</ele>
        <time>2021-06-01T00:57:59Z</time>
      </trkpt>
      <trkpt lat="43.8167" lon="0.9188">
        <ele>122</ele>
        <time>2021-06-01T00:58:20Z</time>
      </trkpt>
      <trkpt lat="43.8175" lon="0.9201">
        <ele>118</ele>
        <time>2021-06-01T00:58:49Z</time>
      </trkpt>
      <trkpt lat="43.81763" lon="0.92025">
        <ele>119</ele>
        <time>2021-06-01T00:58:53Z</time>
      </trkpt>
      <trkpt lat="43.81785" lon="0.92046">
        <ele>119</ele>
        <time>2021-06-01T00:58:59Z</time>
      </trkpt>
      <trkpt lat="43.81873" lon="0.92118">
        <ele>120</ele>
        <time>2021-06-01T00:59:23Z</time>
      </trkpt>
      <trkpt lat="43.81995" lon="0.92226">
        <ele>115</ele>
        <time>2021-06-01T00:59:57Z</time>
      </trkpt>
      <trkpt lat="43.82012" lon="0.92247">
        <ele>115</ele>
        <time>2021-06-01T01:00:02Z</time>
      </trkpt>
      <trkpt lat="43.82032" lon="0.92275">
        <ele>115</ele>
        <time>2021-06-01T01:00:09Z</time>
      </trkpt>
      <trkpt lat="43.82047" lon="0.92304">
        <ele>115</ele>
        <time>2021-06-01T01:00:15Z</time>
      </trkpt>
      <trkpt lat="43.82118" lon="0.92422">
        <ele>116</ele>
        <time>2021-06-01T01:00:40Z</time>
      </trkpt>
      <trkpt lat="43.82131" lon="0.92437">
        <ele>116</ele>
        <time>2021-06-01T01:00:44Z</time>
      </trkpt>
      <trkpt lat="43.82146" lon="0.92451">
        <ele>116</ele>
        <time>2021-06-01T01:00:49Z</time>
      </trkpt>
      <trkpt lat="43.82192" lon="0.92488">
        <ele>115</ele>
        <time>2021-06-01T01:01:01Z</time>
      </trkpt>
      <trkpt lat="43.82229" lon="0.92517">
        <ele>115</ele>
        <time>2021-06-01T01:01:11Z</time>
      </trkpt>
      <trkpt lat="43.82335" lon="0.92612">
        <ele>115</ele>
        <time>2021-06-01T01:01:40Z</time>
      </trkpt>
      <trkpt lat="43.82355" lon="0.92627">
        <ele>115</ele>
        <time>2021-06-01T01:01:46Z</time>
      </trkpt>
      <trkpt lat="43.82387" lon="0.92647">
        <ele>114</ele>
        <time>2021-06-01T01:01:54Z</time>
      </trkpt>
      <trkpt lat="43.82459" lon="0.92692">
        <ele>113</ele>
        <time>2021-06-01T01:02:12Z</time>
      </trkpt>
      <trkpt lat="43.82539" lon="0.9273">
        <ele>112</ele>
        <time>2021-06-01T01:02:32Z</time>
      </trkpt>
      <trkpt lat="43.82627" lon="0.92789">
        <ele>112</ele>
        <time>2021-06-01T01:02:55Z</time>
      </trkpt>
      <trkpt lat="43.82642" lon="0.92796">
        <ele>112</ele>
        <time>2021-06-01T01:02:59Z</time>
      </trkpt>
      <trkpt lat="43.82686" lon="0.92807">
        <ele>112</ele>
        <time>2021-06-01T01:03:09Z</time>
      </trkpt>
      <trkpt lat="43.827" lon="0.92814">
        <ele>112</ele>
        <time>2021-06-01T01:03:13Z</time>
      </trkpt>
      <trkpt lat="43.82715" lon="0.92826">
        <ele>112</ele>
        <time>2021-06-01T01:03:17Z</time>
      </trkpt>
      <trkpt lat="43.82721" lon="0.92831">
        <ele>112</ele>
        <time>2021-06-01T01:03:18Z</time>
      </trkpt>
      <trkpt lat="43.82724" lon="0.92834">
        <ele>112</ele>
        <time>2021-06-01T01:03:19Z</time>
      </trkpt>
      <trkpt lat="43.82735" lon="0.92841">
        <ele>111</ele>
        <time>2021-06-01T01:03:22Z</time>
      </trkpt>
      <trkpt lat="43.82824" lon="0.92906">
        <ele>109</ele>
        <time>2021-06-01T01:03:45Z</time>
      </trkpt>
      <trkpt lat="43.82848" lon="0.92918">
        <ele>109</ele>
        <time>2021-06-01T01:03:51Z</time>
      </trkpt>
      <trkpt lat="43.82903" lon="0.92931">
        <ele>110</ele>
        <time>2021-06-01T01:04:04Z</time>
      </trkpt>
      <trkpt lat="43.82991" lon="0.92963">
        <ele>112</ele>
        <time>2021-06-01T01:04:26Z</time>
      </trkpt>
      <trkpt lat="43.83007" lon="0.92971">
        <ele>112</ele>
        <time>2021-06-01T01:04:30Z</time>
      </trkpt>
      <trkpt lat="43.83035" lon="0.92987">
        <ele>113</ele>
        <time>2021-06-01T01:04:37Z</time>
      </trkpt>
      <trkpt lat="43.83069" lon="0.93012">
        <ele>113</ele>
        <time>2021-06-01T01:04:46Z</time>
      </trkpt>
      <trkpt lat="43.83118" lon="0.93054">
        <ele>113</ele>
        <time>2021-06-01T01:04:59Z</time>
      </trkpt>
      <trkpt lat="43.8326" lon="0.93197">
        <ele>110</ele>
        <time>2021-06-01T01:05:40Z</time>
      </trkpt>
      <trkpt lat="43.8335" lon="0.9331">
        <ele>112</ele>
        <time>2021-06-01T01:06:09Z</time>
      </trkpt>
      <trkpt lat="43.83372" lon="0.93342">
        <ele>113</ele>
        <time>2021-06-01T01:06:16Z</time>
      </trkpt>
      <trkpt lat="43.83381" lon="0.93357">
        <ele>113</ele>
        <time>2021-06-01T01:06:19Z</time>
      </trkpt>
      <trkpt lat="43.83397" lon="0.93395">
        <ele>114</ele>
        <time>2021-06-01T01:06:27Z</time>
      </trkpt>
      <trkpt lat="43.834" lon="0.93411">
        <ele>114</ele>
        <time>2021-06-01T01:06:29Z</time>
      </trkpt>
      <trkpt lat="43.83401" lon="0.93426">
        <ele>114</ele>
        <time>2021-06-01T01:06:32Z</time>
      </trkpt>
      <trkpt lat="43.83399" lon="0.93441">
        <ele>115</ele>
        <time>2021-06-01T01:06:35Z</time>
      </trkpt>
      <trkpt lat="43.83386" lon="0.93515">
        <ele>116</ele>
        <time>2021-06-01T01:06:47Z</time>
      </trkpt>
      <trkpt lat="43.83385" lon="0.9353">
        <ele>116</ele>
        <time>2021-06-01T01:06:50Z</time>
      </trkpt>
      <trkpt lat="43.83388" lon="0.93546">
        <ele>116</ele>
        <time>2021-06-01T01:06:53Z</time>
      </trkpt>
      <trkpt lat="43.83393" lon="0.9356">
        <ele>116</ele>
        <time>2021-06-01T01:06:55Z</time>
      </trkpt>
      <trkpt lat="43.8346" lon="0.93701">
        <ele>117</ele>
        <time>2021-06-01T01:07:24Z</time>
      </trkpt>
      <trkpt lat="43.83475" lon="0.93724">
        <ele>117</ele>
        <time>2021-06-01T01:07:29Z</time>
      </trkpt>
      <trkpt lat="43.83533" lon="0.93795">
        <ele>116</ele>
        <time>2021-06-01T01:07:47Z</time>
      </trkpt>
      <trkpt lat="43.83599" lon="0.93874">
        <ele>112</ele>
        <time>2021-06-01T01:08:07Z</time>
      </trkpt>
      <trkpt lat="43.83651" lon="0.93926">
        <ele>113</ele>
        <time>2021-06-01T01:08:22Z</time>
      </trkpt>
      <trkpt lat="43.83768" lon="0.94036">
        <ele>114</ele>
        <time>2021-06-01T01:08:55Z</time>
      </trkpt>
      <trkpt lat="43.83783" lon="0.94053">
        <ele>114</ele>
        <time>2021-06-01T01:09:00Z</time>
      </trkpt>
      <trkpt lat="43.83838" lon="0.94124">
        <ele>116</ele>
        <time>2021-06-01T01:09:18Z</time>
      </trkpt>
      <trkpt lat="43.83848" lon="0.94136">
        <ele>117</ele>
        <time>2021-06-01T01:09:21Z</time>
      </trkpt>
      <trkpt lat="43.83868" lon="0.94162">
        <ele>117</ele>
        <time>2021-06-01T01:09:27Z</time>
      </trkpt>
      <trkpt lat="43.83919" lon="0.94227">
        <ele>118</ele>
        <time>2021-06-01T01:09:43Z</time>
      </trkpt>
      <trkpt lat="43.83964" lon="0.94278">
        <ele>120</ele>
        <time>2021-06-01T01:09:57Z</time>
      </trkpt>
      <trkpt lat="43.84002" lon="0.94312">
        <ele>120</ele>
        <time>2021-06-01T01:10:07Z</time>
      </trkpt>
      <trkpt lat="43.84041" lon="0.94361">
        <ele>118</ele>
        <time>2021-06-01T01:10:20Z</time>
      </trkpt>
      <trkpt lat="43.84087" lon="0.94427">
        <ele>115</ele>
        <time>2021-06-01T01:10:35Z</time>
      </trkpt>
      <trkpt lat="43.84091" lon="0.94431">
        <ele>115</ele>
        <time>2021-06-01T01:10:36Z</time>
      </trkpt>
      <trkpt lat="43.84096" lon="0.94439">
        <ele>115</ele>
        <time>2021-06-01T01:10:38Z</time>
      </trkpt>
      <trkpt lat="43.8418" lon="0.94557">
        <ele>117</ele>
        <time>2021-06-01T01:11:06Z</time>
      </trkpt>
      <trkpt lat="43.84227" lon="0.9462">
        <ele>116</ele>
        <time>2021-06-01T01:11:21Z</time>
      </trkpt>
      <trkpt lat="43.84314" lon="0.94717">
        <ele>115</ele>
        <time>2021-06-01T01:11:47Z</time>
      </trkpt>
      <trkpt lat="43.84342" lon="0.94756">
        <ele>116</ele>
        <time>2021-06-01T01:11:57Z</time>
      </trkpt>
      <trkpt lat="43.84369" lon="0.94795">
        <ele>115</ele>
        <time>2021-06-01T01:12:06Z</time>
      </trkpt>
      <trkpt lat="43.84384" lon="0.94826">
        <ele>115</ele>
        <time>2021-06-01T01:12:12Z</time>
      </trkpt>
      <trkpt lat="43.84394" lon="0.94851">
        <ele>115</ele>
        <time>2021-06-01T01:12:17Z</time>
      </trkpt>
      <trkpt lat="43.84422" lon="0.94907">
        <ele>115</ele>
        <time>2021-06-01T01:12:28Z</time>
      </trkpt>
      <trkpt lat="43.84435" lon="0.94929">
        <ele>115</ele>
        <time>2021-06-01T01:12:33Z</time>
      </trkpt>
      <trkpt lat="43.84478" lon="0.94978">
        <ele>116</ele>
        <time>2021-06-01T01:12:46Z</time>
      </trkpt>
      <trkpt lat="43.84553" lon="0.95056">
        <ele>115</ele>
        <time>2021-06-01T01:13:08Z</time>
      </trkpt>
      <trkpt lat="43.84636" lon="0.95138">
        <ele>116</ele>
        <time>2021-06-01T01:13:32Z</time>
      </trkpt>
      <trkpt lat="43.84712" lon="0.95222">
        <ele>117</ele>
        <time>2021-06-01T01:13:54Z</time>
      </trkpt>
      <trkpt lat="43.84788" lon="0.95301">
        <ele>116</ele>
        <time>2021-06-01T01:14:17Z</time>
      </trkpt>
      <trkpt lat="43.84817" lon="0.95329">
        <ele>116</ele>
        <time>2021-06-01T01:14:25Z</time>
      </trkpt>
      <trkpt lat="43.84865" lon="0.95371">
        <ele>114</ele>
        <time>2021-06-01T01:14:38Z</time>
      </trkpt>
      <trkpt lat="43.84899" lon="0.95397">
        <ele>114</ele>
        <time>2021-06-01T01:14:47Z</time>
      </trkpt>
      <trkpt lat="43.84945" lon="0.95427">
        <ele>115</ele>
        <time>2021-06-01T01:14:59Z</time>
      </trkpt>
      <trkpt lat="43.84972" lon="0.95441">
        <ele>116</ele>
        <time>2021-06-01T01:15:06Z</time>
      </trkpt>
      <trkpt lat="43.85112" lon="0.95506">
        <ele>112</ele>
        <time>2021-06-01T01:15:40Z</time>
      </trkpt>
      <trkpt lat="43.852" lon="0.9556">
        <ele>111</ele>
        <time>2021-06-01T01:16:03Z</time>
      </trkpt>
      <trkpt lat="43.85274" lon="0.95596">
        <ele>109</ele>
        <time>2021-06-01T01:16:21Z</time>
      </trkpt>
      <trkpt lat="43.85296" lon="0.9561">
        <ele>109</ele>
        <time>2021-06-01T01:16:27Z</time>
      </trkpt>
      <trkpt lat="43.85314" lon="0.95626">
        <ele>108</ele>
        <time>2021-06-01T01:16:32Z</time>
      </trkpt>
      <trkpt lat="43.85329" lon="0.95646">
        <ele>108</ele>
        <time>2021-06-01T01:16:37Z</time>
      </trkpt>
      <trkpt lat="43.85366" lon="0.95717">
        <ele>109</ele>
        <time>2021-06-01T01:16:51Z</time>
      </trkpt>
      <trkpt lat="43.85372" lon="0.9573">
        <ele>109</ele>
        <time>2021-06-01T01:16:54Z</time>
      </trkpt>
      <trkpt lat="43.85387" lon="0.95758">
        <ele>110</ele>
        <time>2021-06-01T01:17:00Z</time>
      </trkpt>
      <trkpt lat="43.85409" lon="0.95786">
        <ele>111</ele>
        <time>2021-06-01T01:17:07Z</time>
      </trkpt>
      <trkpt lat="43.85428" lon="0.95802">
        <ele>111</ele>
        <time>2021-06-01T01:17:12Z</time>
      </trkpt>
      <trkpt lat="43.85504" lon="0.95852">
        <ele>111</ele>
        <time>2021-06-01T01:17:32Z</time>
      </trkpt>
      <trkpt lat="43.8551" lon="0.95855">
        <ele>111</ele>
        <time>2021-06-01T01:17:33Z</time>
      </trkpt>
      <trkpt lat="43.85527" lon="0.95869">
        <ele>111</ele>
        <time>2021-06-01T01:17:38Z</time>
      </trkpt>
      <trkpt lat="43.85544" lon="0.95888">
        <ele>110</ele>
        <time>2021-06-01T01:17:43Z</time>
      </trkpt>
      <trkpt lat="43.85555" lon="0.95908">
        <ele>110</ele>
        <time>2021-06-01T01:17:47Z</time>
      </trkpt>
      <trkpt lat="43.85634" lon="0.96096">
        <ele>115</ele>
        <time>2021-06-01T01:18:24Z</time>
      </trkpt>
      <trkpt lat="43.8567" lon="0.96179">
        <ele>117</ele>
        <time>2021-06-01T01:18:40Z</time>
      </trkpt>
      <trkpt lat="43.85705" lon="0.96245">
        <ele>115</ele>
        <time>2021-06-01T01:18:54Z</time>
      </trkpt>
      <trkpt lat="43.8574" lon="0.96302">
        <ele>114</ele>
        <time>2021-06-01T01:19:06Z</time>
      </trkpt>
      <trkpt lat="43.85767" lon="0.96339">
        <ele>114</ele>
        <time>2021-06-01T01:19:15Z</time>
      </trkpt>
      <trkpt lat="43.85824" lon="0.9641">
        <ele>114</ele>
        <time>2021-06-01T01:19:33Z</time>
      </trkpt>
      <trkpt lat="43.85923" lon="0.96559">
        <ele>111</ele>
        <time>2021-06-01T01:20:07Z</time>
      </trkpt>
      <trkpt lat="43.85926" lon="0.96564">
        <ele>111</ele>
        <time>2021-06-01T01:20:08Z</time>
      </trkpt>
      <trkpt lat="43.85961" lon="0.9663">
        <ele>112</ele>
        <time>2021-06-01T01:20:22Z</time>
      </trkpt>
      <trkpt lat="43.8598" lon="0.96656">
        <ele>113</ele>
        <time>2021-06-01T01:20:28Z</time>
      </trkpt>
      <trkpt lat="43.86075" lon="0.96805">
        <ele>113</ele>
        <time>2021-06-01T01:21:02Z</time>
      </trkpt>
      <trkpt lat="43.86095" lon="0.96832">
        <ele>114</ele>
        <time>2021-06-01T01:21:08Z</time>
      </trkpt>
      <trkpt lat="43.86126" lon="0.96859">
        <ele>112</ele>
        <time>2021-06-01T01:21:17Z</time>
      </trkpt>
      <trkpt lat="43.86145" lon="0.96871">
        <ele>111</ele>
        <time>2021-06-01T01:21:22Z</time>
      </trkpt>
      <trkpt lat="43.86171" lon="0.96883">
        <ele>110</ele>
        <time>2021-06-01T01:21:28Z</time>
      </trkpt>
      <trkpt lat="43.86204" lon="0.96895">
        <ele>109</ele>
        <time>2021-06-01T01:21:36Z</time>
      </trkpt>
      <trkpt lat="43.8623" lon="0.96908">
        <ele>108</ele>
        <time>2021-06-01T01:21:43Z</time>
      </trkpt>
      <trkpt lat="43.86249" lon="0.96921">
        <ele>108</ele>
        <time>2021-06-01T01:21:48Z</time>
      </trkpt>
      <trkpt lat="43.86297" lon="0.96967">
        <ele>108</ele>
        <time>2021-06-01T01:22:01Z</time>
      </trkpt>
      <trkpt lat="43.86321" lon="0.96995">
        <ele>108</ele>
        <time>2021-06-01T01:22:08Z</time>
      </trkpt>
      <trkpt lat="43.86398" lon="0.97098">
        <ele>109</ele>
        <time>2021-06-01T01:22:33Z</time>
      </trkpt>
      <trkpt lat="43.8641" lon="0.97116">
        <ele>108</ele>
        <time>2021-06-01T01:22:38Z</time>
      </trkpt>
      <trkpt lat="43.86424" lon="0.97143">
        <ele>108</ele>
        <time>2021-06-01T01:22:43Z</time>
      </trkpt>
      <trkpt lat="43.86441" lon="0.9718">
        <ele>107</ele>
        <time>2021-06-01T01:22:51Z</time>
      </trkpt>
      <trkpt lat="43.8652" lon="0.97451">
        <ele>109</ele>
        <time>2021-06-01T01:23:40Z</time>
      </trkpt>
      <trkpt lat="43.86617" lon="0.97706">
        <ele>108</ele>
        <time>2021-06-01T01:24:28Z</time>
      </trkpt>
      <trkpt lat="43.86637" lon="0.97753">
        <ele>108</ele>
        <time>2021-06-01T01:24:38Z</time>
      </trkpt>
      <trkpt lat="43.86678" lon="0.97836">
        <ele>109</ele>
        <time>2021-06-01T01:24:54Z</time>
      </trkpt>
      <trkpt lat="43.86722" lon="0.97946">
        <ele>110</ele>
        <time>2021-06-01T01:25:16Z</time>
      </trkpt>
      <trkpt lat="43.86781" lon="0.98065">
        <ele>110</ele>
        <time>2021-06-01T01:25:40Z</time>
      </trkpt>
      <trkpt lat="43.86834" lon="0.98156">
        <ele>109</ele>
        <time>2021-06-01T01:26:00Z</time>
      </trkpt>
      <trkpt lat="43.8687" lon="0.98207">
        <ele>107</ele>
        <time>2021-06-01T01:26:12Z</time>
      </trkpt>
      <trkpt lat="43.86889" lon="0.98223">
        <ele>107</ele>
        <time>2021-06-01T01:26:17Z</time>
      </trkpt>
      <trkpt lat="43.86896" lon="0.98227">
        <ele>107</ele>
        <time>2021-06-01T01:26:19Z</time>
      </trkpt>
      <trkpt lat="43.86951" lon="0.98254">
        <ele>106</ele>
        <time>2021-06-01T01:26:32Z</time>
      </trkpt>
      <trkpt lat="43.86967" lon="0.98265">
        <ele>105</ele>
        <time>2021-06-01T01:26:36Z</time>
      </trkpt>
      <trkpt lat="43.86986" lon="0.98281">
        <ele>105</ele>
        <time>2021-06-01T01:26:42Z</time>
      </trkpt>
      <trkpt lat="43.87014" lon="0.98311">
        <ele>105</ele>
        <time>2021-06-01T01:26:50Z</time>
      </trkpt>
      <trkpt lat="43.87034" lon="0.98335">
        <ele>105</ele>
        <time>2021-06-01T01:26:56Z</time>
      </trkpt>
      <trkpt lat="43.87055" lon="0.98369">
        <ele>106</ele>
        <time>2021-06-01T01:27:04Z</time>
      </trkpt>
      <trkpt lat="43.87065" lon="0.98395">
        <ele>106</ele>
        <time>2021-06-01T01:27:09Z</time>
      </trkpt>
      <trkpt lat="43.87072" lon="0.98418">
        <ele>107</ele>
        <time>2021-06-01T01:27:13Z</time>
      </trkpt>
      <trkpt lat="43.87121" lon="0.98651">
        <ele>105</ele>
        <time>2021-06-01T01:27:54Z</time>
      </trkpt>
      <trkpt lat="43.8714" lon="0.98727">
        <ele>103</ele>
        <time>2021-06-01T01:28:07Z</time>
      </trkpt>
      <trkpt lat="43.87151" lon="0.98769">
        <ele>103</ele>
        <time>2021-06-01T01:28:15Z</time>
      </trkpt>
      <trkpt lat="43.87189" lon="0.9888">
        <ele>102</ele>
        <time>2021-06-01T01:28:35Z</time>
      </trkpt>
      <trkpt lat="43.87241" lon="0.99015">
        <ele>104</ele>
        <time>2021-06-01T01:29:01Z</time>
      </trkpt>
      <trkpt lat="43.87278" lon="0.99097">
        <ele>104</ele>
        <time>2021-06-01T01:29:17Z</time>
      </trkpt>
      <trkpt lat="43.8736" lon="0.99257">
        <ele>102</ele>
        <time>2021-06-01T01:29:50Z</time>
      </trkpt>
      <trkpt lat="43.8738" lon="0.99288">
        <ele>104</ele>
        <time>2021-06-01T01:29:57Z</time>
      </trkpt>
      <trkpt lat="43.874" lon="0.9931">
        <ele>105</ele>
        <time>2021-06-01T01:30:03Z</time>
      </trkpt>
      <trkpt lat="43.87421" lon="0.9933">
        <ele>106</ele>
        <time>2021-06-01T01:30:09Z</time>
      </trkpt>
      <trkpt lat="43.87444" lon="0.99348">
        <ele>106</ele>
        <time>2021-06-01T01:30:16Z</time>
      </trkpt>
      <trkpt lat="43.87549" lon="0.99418">
        <ele>104</ele>
        <time>2021-06-01T01:30:43Z</time>
      </trkpt>
      <trkpt lat="43.87572" lon="0.9944">
        <ele>103</ele>
        <time>2021-06-01T01:30:49Z</time>
      </trkpt>
      <trkpt lat="43.8759" lon="0.99463">
        <ele>103</ele>
        <time>2021-06-01T01:30:55Z</time>
      </trkpt>
      <trkpt lat="43.87614" lon="0.99506">
        <ele>103</ele>
        <time>2021-06-01T01:31:04Z</time>
      </trkpt>
      <trkpt lat="43.87619" lon="0.99515">
        <ele>103</ele>
        <time>2021-06-01T01:31:06Z</time>
      </trkpt>
      <trkpt lat="43.87661" lon="0.99599">
        <ele>104</ele>
        <time>2021-06-01T01:31:23Z</time>
      </trkpt>
      <trkpt lat="43.87674" lon="0.99626">
        <ele>105</ele>
        <time>2021-06-01T01:31:29Z</time>
      </trkpt>
      <trkpt lat="43.87689" lon="0.99614">
        <ele>104</ele>
        <time>2021-06-01T01:31:33Z</time>
      </trkpt>
      <trkpt lat="43.87762" lon="0.99554">
        <ele>103</ele>
        <time>2021-06-01T01:31:53Z</time>
      </trkpt>
      <trkpt lat="43.87788" lon="0.99533">
        <ele>103</ele>
        <time>2021-06-01T01:32:00Z</time>
      </trkpt>
      <trkpt lat="43.8783" lon="0.99498">
        <ele>104</ele>
        <time>2021-06-01T01:32:11Z</time>
      </trkpt>
      <trkpt lat="43.87839" lon="0.99494">
        <ele>104</ele>
        <time>2021-06-01T01:32:13Z</time>
      </trkpt>
      <trkpt lat="43.87847" lon="0.99495">
        <ele>104</ele>
        <time>2021-06-01T01:32:15Z</time>
      </trkpt>
      <trkpt lat="43.87857" lon="0.99465">
        <ele>103</ele>
        <time>2021-06-01T01:32:21Z</time>
      </trkpt>
      <trkpt lat="43.87872" lon="0.99419">
        <ele>102</ele>
        <time>2021-06-01T01:32:29Z</time>
      </trkpt>
      <trkpt lat="43.87893" lon="0.99359">
        <ele>102</ele>
        <time>2021-06-01T01:32:40Z</time>
      </trkpt>
      <trkpt lat="43.87902" lon="0.99329">
        <ele>102</ele>
        <time>2021-06-01T01:32:46Z</time>
      </trkpt>
      <trkpt lat="43.87936" lon="0.99228">
        <ele>104</ele>
        <time>2021-06-01T01:33:05Z</time>
      </trkpt>
      <trkpt lat="43.87952" lon="0.99182">
        <ele>105</ele>
        <time>2021-06-01T01:33:13Z</time>
      </trkpt>
      <trkpt lat="43.87954" lon="0.99176">
        <ele>105</ele>
        <time>2021-06-01T01:33:14Z</time>
      </trkpt>
      <trkpt lat="43.87956" lon="0.99172">
        <ele>105</ele>
        <time>2021-06-01T01:33:15Z</time>
      </trkpt>
      <trkpt lat="43.87969" lon="0.99142">
        <ele>105</ele>
        <time>2021-06-01T01:33:21Z</time>
      </trkpt>
      <trkpt lat="43.87976" lon="0.99129">
        <ele>105</ele>
        <time>2021-06-01T01:33:24Z</time>
      </trkpt>
      <trkpt lat="43.87983" lon="0.99126">
        <ele>106</ele>
        <time>2021-06-01T01:33:26Z</time>
      </trkpt>
      <trkpt lat="43.87987" lon="0.99118">
        <ele>106</ele>
        <time>2021-06-01T01:33:27Z</time>
      </trkpt>
      <trkpt lat="43.87988" lon="0.99107">
        <ele>106</ele>
        <time>2021-06-01T01:33:29Z</time>
      </trkpt>
      <trkpt lat="43.87985" lon="0.99098">
        <ele>106</ele>
        <time>2021-06-01T01:33:31Z</time>
      </trkpt>
      <trkpt lat="43.8799" lon="0.99079">
        <ele>107</ele>
        <time>2021-06-01T01:33:34Z</time>
      </trkpt>
      <trkpt lat="43.87993" lon="0.99072">
        <ele>107</ele>
        <time>2021-06-01T01:33:36Z</time>
      </trkpt>
      <trkpt lat="43.87995" lon="0.99067">
        <ele>107</ele>
        <time>2021-06-01T01:33:36Z</time>
      </trkpt>
      <trkpt lat="43.87997" lon="0.99064">
        <ele>107</ele>
        <time>2021-06-01T01:33:37Z</time>
      </trkpt>
      <trkpt lat="43.88004" lon="0.99048">
        <ele>107</ele>
        <time>2021-06-01T01:33:40Z</time>
      </trkpt>
      <trkpt lat="43.88012" lon="0.99033">
        <ele>108</ele>
        <time>2021-06-01T01:33:43Z</time>
      </trkpt>
      <trkpt lat="43.88015" lon="0.99033">
        <ele>108</ele>
        <time>2021-06-01T01:33:44Z</time>
      </trkpt>
      <trkpt lat="43.88019" lon="0.99031">
        <ele>108</ele>
        <time>2021-06-01T01:33:45Z</time>
      </trkpt>
      <trkpt lat="43.88021" lon="0.99029">
        <ele>108</ele>
        <time>2021-06-01T01:33:46Z</time>
      </trkpt>
      <trkpt lat="43.88022" lon="0.99025">
        <ele>108</ele>
        <time>2021-06-01T01:33:46Z</time>
      </trkpt>
      <trkpt lat="43.88023" lon="0.99021">
        <ele>108</ele>
        <time>2021-06-01T01:33:47Z</time>
      </trkpt>
      <trkpt lat="43.88023" lon="0.99017">
        <ele>108</ele>
        <time>2021-06-01T01:33:48Z</time>
      </trkpt>
      <trkpt lat="43.88022" lon="0.99014">
        <ele>108</ele>
        <time>2021-06-01T01:33:48Z</time>
      </trkpt>
      <trkpt lat="43.8802" lon="0.99011">
        <ele>108</ele>
        <time>2021-06-01T01:33:49Z</time>
      </trkpt>
      <trkpt lat="43.88017" lon="0.9901">
        <ele>108</ele>
        <time>2021-06-01T01:33:50Z</time>
      </trkpt>
      <trkpt lat="43.88011" lon="0.9898">
        <ele>108</ele>
        <time>2021-06-01T01:33:55Z</time>
      </trkpt>
      <trkpt lat="43.88003" lon="0.98951">
        <ele>109</ele>
        <time>2021-06-01T01:34:00Z</time>
      </trkpt>
      <trkpt lat="43.87969" lon="0.98864">
        <ele>108</ele>
        <time>2021-06-01T01:34:17Z</time>
      </trkpt>
      <trkpt lat="43.87976" lon="0.98822">
        <ele>108</ele>
        <time>2021-06-01T01:34:24Z</time>
      </trkpt>
      <trkpt lat="43.87985" lon="0.98804">
        <ele>108</ele>
        <time>2021-06-01T01:34:28Z</time>
      </trkpt>
      <trkpt lat="43.88002" lon="0.98774">
        <ele>109</ele>
        <time>2021-06-01T01:34:34Z</time>
      </trkpt>
      <trkpt lat="43.88019" lon="0.98749">
        <ele>109</ele>
        <time>2021-06-01T01:34:40Z</time>
      </trkpt>
      <trkpt lat="43.88035" lon="0.98728">
        <ele>110</ele>
        <time>2021-06-01T01:34:45Z</time>
      </trkpt>
      <trkpt lat="43.88064" lon="0.98691">
        <ele>111</ele>
        <time>2021-06-01T01:34:54Z</time>
      </trkpt>
      <trkpt lat="43.88097" lon="0.98651">
        <ele>112</ele>
        <time>2021-06-01T01:35:05Z</time>
      </trkpt>
      <trkpt lat="43.88106" lon="0.9864">
        <ele>113</ele>
        <time>2021-06-01T01:35:07Z</time>
      </trkpt>
      <trkpt lat="43.88148" lon="0.98589">
        <ele>115</ele>
        <time>2021-06-01T01:35:20Z</time>
      </trkpt>
      <trkpt lat="43.8822" lon="0.98517">
        <ele>119</ele>
        <time>2021-06-01T01:35:41Z</time>
      </trkpt>
      <trkpt lat="43.88225" lon="0.9852">
        <ele>119</ele>
        <time>2021-06-01T01:35:42Z</time>
      </trkpt>
      <trkpt lat="43.88229" lon="0.98514">
        <ele>119</ele>
        <time>2021-06-01T01:35:44Z</time>
      </trkpt>
      <trkpt lat="43.88228" lon="0.98511">
        <ele>119</ele>
        <time>2021-06-01T01:35:44Z</time>
      </trkpt>
      <trkpt lat="43.88224" lon="0.98508">
        <ele>119</ele>
        <time>2021-06-01T01:35:45Z</time>
      </trkpt>
      <trkpt lat="43.88224" lon="0.98502">
        <ele>119</ele>
        <time>2021-06-01T01:35:46Z</time>
      </trkpt>
    </trkseg>
  </trk>
</gpx>